[[{"header":{"parameterUnit":"m.s-1","parameterCategory":1,"la1":30.6,"la2":29.2853,"lo1":-89.7004,"lo2":-87.6739,"dy":0.0162,"dx":0.0183,"nx":112,"ny":82,"refTime":"2024-02-14T06:00:00:Z","depth":0,"parameterNumber":2,"parameterNumberName":"U-component_of_WINDS"},"data":[0.0,0.0,0.0,0.0,0.0,0.0,0.0,0.0,0.0,0.0,0.0,0.0,0.0,0.0,0.0,0.0,0.0,0.0,0.0,0.0,0.0,0.0,0.0,0.0,0.0,0.0,0.0,0.0,0.0,0.0,0.0,0.0,0.0,0.0,0.0,0.0,0.0,0.0,0.0,0.0,0.0,0.0,0.0,0.0,0.0,0.0,0.0,0.0,0.0,0.0,0.0,0.0,0.0,0.0,0.0,0.0,0.0,0.0,0.0,0.0,0.0,0.0,0.0,0.0,0.0,0.0,0.0,0.0,0.0,0.0,0.0,0.0,0.0,0.0,0.0,0.0,0.0,0.0,0.0,0.0,0.0,0.0,0.0,0.0,0.0,0.0,0.0,0.0,0.0,0.0,0.0,1.4067,1.4267,1.4396,1.4396,1.4396,1.4396,1.4396,0.0,0.0,0.0,0.0,0.0,0.0,0.0,0.0,0.0,0.0,0.0,0.0,0.0,0.0,0.0,0.0,0.0,0.0,0.0,0.0,0.0,0.0,0.0,0.0,0.0,0.0,0.0,0.0,0.0,0.0,0.0,0.0,0.0,0.0,0.0,0.0,0.0,0.0,0.0,0.0,0.0,0.0,0.0,0.0,0.0,0.0,0.0,0.0,0.0,0.0,0.0,0.0,0.0,0.0,0.0,0.0,0.0,0.0,0.0,0.0,0.0,0.0,0.0,0.0,0.0,0.0,0.0,0.0,0.0,0.0,0.0,0.0,0.0,0.0,0.0,0.0,0.0,0.0,0.0,0.0,0.0,0.0,0.0,0.0,0.0,0.0,0.0,0.0,0.0,0.0,0.0,0.0,0.0,0.0,0.0,0.0,0.0,0.0,0.0,0.0,0.0,0.0,0.0,0.0,1.408,1.4303,1.4384,1.4396,1.4396,1.4396,1.4396,1.4396,0.0,0.0,0.0,0.0,0.0,0.0,0.0,0.0,0.0,0.0,0.0,0.0,0.0,0.0,0.0,0.0,0.0,0.0,0.0,0.0,0.0,0.0,0.0,0.0,0.0,0.0,0.0,0.0,0.0,0.0,0.0,0.0,0.0,0.0,0.0,0.0,0.0,0.0,0.0,0.0,0.0,0.0,0.0,0.0,0.0,0.0,0.0,0.0,0.0,0.0,0.0,0.0,0.0,0.0,0.0,0.0,0.0,0.0,0.0,0.0,0.0,0.0,0.0,0.0,0.0,0.0,0.0,0.0,0.0,0.0,0.0,0.0,0.0,0.0,0.0,0.0,0.0,0.0,0.0,0.0,0.0,0.0,0.0,0.0,0.0,0.0,0.0,0.0,0.0,0.0,0.0,0.0,0.0,0.0,0.0,0.0,0.0,0.0,0.0,0.0,0.0,0.0,0.0,1.3809,1.4068,1.4268,1.4361,1.4396,1.4396,1.4396,1.4396,1.4396,1.4221,0.0,0.0,0.0,0.0,0.0,0.0,0.0,0.0,0.0,0.0,0.0,0.0,0.0,0.0,0.0,0.0,0.0,0.0,0.0,0.0,0.0,0.0,0.0,0.0,0.0,0.0,0.0,0.0,0.0,0.0,0.0,0.0,0.0,0.0,0.0,0.0,0.0,0.0,0.0,0.0,0.0,0.0,0.0,0.0,0.0,0.0,0.0,0.0,0.0,0.0,0.0,0.0,0.0,0.0,0.0,0.0,0.0,0.0,0.0,0.0,0.0,0.0,0.0,0.0,0.0,0.0,0.0,0.0,0.0,0.0,0.0,0.0,0.0,0.0,0.0,0.0,0.0,0.0,0.0,0.0,0.0,0.0,0.0,0.0,0.0,0.0,0.0,0.0,0.0,0.0,0.0,0.0,0.0,0.0,0.0,0.0,0.0,0.0,0.0,0.0,0.0,0.0,1.3892,1.4045,1.4187,1.4326,1.4396,1.4396,1.4396,1.4396,1.4396,1.415,0.0,0.0,0.0,0.0,0.0,0.0,0.0,0.0,0.0,0.0,0.0,0.0,0.0,0.0,0.0,0.0,0.0,0.0,0.0,0.0,0.0,0.0,0.0,0.0,0.0,0.0,0.0,0.0,0.0,0.0,0.0,0.0,0.0,0.0,0.0,0.0,0.0,0.0,0.0,0.0,0.0,0.0,0.0,0.0,0.0,0.0,0.0,0.0,0.0,0.0,0.0,0.0,0.0,0.0,0.0,0.0,0.0,0.0,0.0,0.0,0.0,0.0,0.0,0.0,0.0,0.0,0.0,0.0,0.0,0.0,0.0,0.0,0.0,0.0,0.0,0.0,0.0,0.0,0.0,0.0,0.0,0.0,0.0,0.0,0.0,0.0,0.0,0.0,0.0,0.0,0.0,0.0,0.0,0.0,0.0,0.0,0.0,0.0,0.0,0.0,0.0,0.0,1.3844,1.4045,1.4187,1.4326,1.4396,1.4396,1.4396,1.4396,1.4396,1.415,0.0,0.0,0.0,0.0,0.0,0.0,0.0,0.0,0.0,0.0,0.0,0.0,0.0,0.0,0.0,0.0,0.0,0.0,0.0,0.0,0.0,0.0,0.0,0.0,0.0,0.0,0.0,0.0,0.0,0.0,0.0,0.0,0.0,0.0,0.0,0.0,0.0,0.0,0.0,0.0,0.0,0.0,0.0,0.0,0.0,0.0,0.0,0.0,0.0,0.0,0.0,0.0,0.0,0.0,0.0,0.0,0.0,0.0,0.0,0.0,0.0,0.0,0.0,0.0,0.0,0.0,0.0,0.0,0.0,0.0,0.0,0.0,0.0,0.0,0.0,0.0,0.0,0.0,0.0,0.0,0.0,0.0,0.0,0.0,0.0,0.0,0.0,0.0,0.0,0.0,0.0,0.0,0.0,0.0,0.0,0.0,0.0,0.0,0.0,0.0,0.0,0.0,1.3785,1.402,0.0,1.4279,1.4396,1.4396,1.4396,1.4361,1.428,0.0,0.0,0.0,0.0,0.0,0.0,0.0,0.0,0.0,0.0,0.0,0.0,0.0,0.0,0.0,0.0,0.0,0.0,0.0,0.0,0.0,0.0,0.0,0.0,0.0,0.0,0.0,0.0,0.0,0.0,0.0,0.0,0.0,0.0,0.0,0.0,0.0,0.0,0.0,0.0,0.0,0.0,0.0,0.0,0.0,0.0,0.0,0.0,0.0,0.0,0.0,0.0,0.0,0.0,0.0,0.0,0.0,0.0,0.0,0.0,0.0,0.0,0.0,0.0,0.0,0.0,0.0,0.0,0.0,0.0,0.0,0.0,0.0,0.0,0.0,0.0,0.0,0.0,0.0,0.0,0.0,0.0,0.0,0.0,0.0,0.0,0.0,0.0,0.0,0.0,0.0,0.0,0.0,0.0,0.0,0.0,0.0,0.0,0.0,0.0,0.0,0.0,1.3314,1.3692,1.3951,0.0,1.4209,1.435,1.4396,1.4361,1.4303,1.4211,0.0,0.0,0.0,0.0,0.0,0.0,0.0,0.0,0.0,0.0,0.0,0.0,0.0,0.0,0.0,0.0,0.0,0.0,0.0,0.0,0.0,0.0,0.0,0.0,0.0,0.0,0.0,0.0,0.0,0.0,0.0,0.0,0.0,0.0,0.0,0.0,0.0,0.0,0.0,0.0,0.0,0.0,0.0,0.0,0.0,0.0,0.0,0.0,0.0,0.0,0.0,0.0,0.0,0.0,0.0,0.0,0.0,0.0,0.0,0.0,0.0,0.0,0.0,0.0,0.0,0.0,0.0,0.0,0.0,0.0,0.0,0.0,0.0,0.0,0.0,0.0,0.0,0.0,0.0,0.0,0.0,0.0,0.0,0.0,0.0,0.0,0.0,0.0,0.0,0.0,0.0,0.0,0.0,0.0,0.0,0.0,0.0,0.0,0.0,0.0,0.0,0.0,1.3206,1.3549,1.3844,1.3985,1.4116,1.4257,1.4373,1.4269,1.4199,0.0,0.0,0.0,0.0,0.0,0.0,0.0,0.0,0.0,0.0,0.0,0.0,0.0,0.0,0.0,0.0,0.0,0.0,0.0,0.0,0.0,0.0,0.0,0.0,0.0,0.0,0.0,0.0,0.0,0.0,0.0,0.0,0.0,0.0,0.0,0.0,0.0,0.0,0.0,0.0,0.0,0.0,0.0,0.0,0.0,0.0,0.0,0.0,0.0,0.0,0.0,0.0,0.0,0.0,0.0,0.0,0.0,0.0,0.0,0.0,0.0,0.0,0.0,0.0,0.0,0.0,0.0,0.0,0.0,0.0,0.0,0.0,0.0,0.0,0.0,0.0,0.0,0.0,0.0,0.0,0.0,0.0,0.0,0.0,0.0,0.0,0.0,0.0,0.0,0.0,0.0,0.0,0.0,0.0,0.0,0.0,0.0,0.0,0.0,0.0,0.0,0.0,0.0,1.3182,1.3467,1.3716,1.3844,1.3986,1.4068,1.4104,1.408,1.4021,1.3916,0.0,0.0,0.0,0.0,0.0,0.0,0.0,0.0,0.0,0.0,0.0,0.0,0.0,0.0,0.0,0.0,0.0,0.0,0.0,0.0,0.0,0.0,0.0,0.0,0.0,0.0,0.0,0.0,0.0,0.0,0.0,0.0,0.0,0.0,0.0,0.0,0.0,0.0,0.0,0.0,0.0,0.0,0.0,0.0,0.0,0.0,0.0,0.0,0.0,0.0,0.0,0.0,0.0,0.0,0.0,0.0,0.0,0.0,0.0,0.0,0.0,0.0,0.0,0.0,0.0,0.0,0.0,0.0,0.0,0.0,0.0,0.0,0.0,0.0,0.0,0.0,0.0,0.0,0.0,0.0,0.0,0.0,0.0,0.0,0.0,0.0,0.0,0.0,0.0,0.0,0.0,0.0,0.0,0.0,0.0,0.0,0.0,0.0,0.0,0.0,0.0,0.0,1.317,1.3396,1.3586,1.3785,1.3868,1.3949,1.3997,1.3951,1.388,1.3809,0.0,0.0,0.0,0.0,0.0,0.0,0.0,0.0,0.0,0.0,0.0,0.0,0.0,0.0,0.0,0.0,0.0,0.0,0.0,0.0,0.0,0.0,0.0,0.0,0.0,0.0,0.0,0.0,0.0,0.0,0.0,0.0,0.0,0.0,0.0,0.0,0.0,0.0,0.0,0.0,0.0,0.0,0.0,0.0,0.0,0.0,0.0,0.0,0.0,0.0,0.0,0.0,0.0,0.0,0.0,0.0,0.0,0.0,0.0,0.0,0.0,0.0,0.0,0.0,0.0,0.0,0.0,0.0,0.0,0.0,0.0,0.0,0.0,0.0,0.0,0.0,0.0,0.0,0.0,0.0,0.0,0.0,0.0,0.0,0.0,0.0,0.0,0.0,0.0,0.0,0.0,0.0,0.0,0.0,0.0,0.0,0.0,0.0,0.0,0.0,0.0,0.0,1.3228,1.3332,1.3479,1.3739,1.3763,1.3833,1.3951,1.3856,1.3785,1.3751,0.0,0.0,0.0,0.0,0.0,0.0,0.0,0.0,0.0,0.0,0.0,0.0,0.0,0.0,0.0,0.0,0.0,0.0,0.0,0.0,0.0,0.0,0.0,0.0,0.0,0.0,0.0,0.0,0.0,0.0,0.0,0.0,0.0,0.0,0.0,0.0,0.0,0.0,0.0,0.0,0.0,0.0,0.0,0.0,0.0,0.0,0.0,0.0,0.0,0.0,0.0,0.0,0.0,0.0,0.0,0.0,0.0,0.0,0.0,0.0,0.6896,0.0,0.0,0.0,0.0,0.0,0.0,0.0,0.0,0.0,0.0,0.0,0.0,0.0,0.0,0.0,0.0,0.0,0.0,0.0,0.0,0.0,0.0,0.0,0.0,0.0,0.0,0.0,0.0,0.0,0.0,0.0,0.0,0.0,0.0,0.0,0.0,0.0,0.0,0.0,0.0,0.0,1.3546,1.3388,1.3302,1.3467,1.3575,1.3656,1.368,1.3656,1.3609,1.3491,1.3467,0.0,0.0,0.0,0.0,0.0,0.0,0.0,0.0,0.0,0.0,0.0,0.0,0.0,0.0,0.0,0.0,0.0,0.0,0.0,0.0,0.0,0.0,0.0,0.0,0.0,0.0,0.0,0.0,0.0,0.0,0.0,0.0,0.0,0.0,0.0,0.0,0.0,0.0,0.0,0.0,0.0,0.0,0.0,0.0,0.0,0.0,0.0,0.0,0.0,0.0,0.0,0.0,0.0,0.0,0.0,0.0,0.0,0.0,0.0,0.0,0.7308,0.0,0.0,0.0,0.0,0.0,0.0,0.0,0.0,0.0,0.0,0.0,0.0,0.0,0.0,0.0,0.0,0.0,0.0,0.0,0.0,0.0,0.0,0.0,0.0,0.0,0.0,0.0,0.0,0.0,0.0,0.0,0.0,0.0,0.0,0.0,0.0,0.0,0.0,0.0,0.0,1.3848,1.363,1.3498,1.3634,1.3552,1.3479,1.3409,1.3467,1.3455,1.3314,1.3302,0.0,0.0,0.0,0.0,0.0,0.0,0.0,0.0,0.0,0.0,0.0,0.0,0.0,0.0,0.0,0.0,0.0,0.0,0.0,0.0,0.0,0.0,0.0,0.0,0.0,0.0,0.0,0.0,0.0,0.0,0.0,0.0,0.0,0.0,0.0,0.0,0.0,0.0,0.0,0.0,0.0,0.0,0.0,0.0,0.0,0.0,0.0,0.0,0.0,0.0,0.0,0.0,0.0,0.6438,0.672,0.6898,0.7272,0.7523,0.7659,0.7659,0.7744,0.7948,0.8478,0.0,0.0,0.0,0.0,0.0,0.0,0.0,0.0,0.0,0.0,0.0,0.0,0.0,0.0,0.0,0.0,0.0,0.0,0.0,0.0,0.0,0.0,0.0,0.0,1.1427,1.1751,1.2042,0.0,0.0,0.0,0.0,0.0,0.0,0.0,0.0,0.0,0.0,0.0,1.4154,1.3965,1.3841,1.3966,1.3682,1.3446,1.3327,1.3352,1.3302,1.3192,1.3182,1.3142,0.0,0.0,0.0,0.0,0.0,0.0,0.0,0.0,0.0,0.0,0.0,0.0,0.0,0.0,0.0,0.0,0.0,0.0,0.0,0.0,0.0,0.0,0.0,0.0,0.0,0.0,0.0,0.0,0.0,0.0,0.0,0.0,0.2489,0.2534,0.0,0.0,0.0,0.0,0.0,0.0,0.0,0.0,0.0,0.0,0.0,0.0,0.0,0.6029,0.621,0.6437,0.6664,0.6922,0.7331,0.758,0.7655,0.7882,0.8103,0.8288,0.8288,0.0,0.8342,0.8589,0.0,0.0,0.0,0.0,0.0,0.0,0.0,0.0,0.0,0.0,0.0,0.0,0.0,0.0,0.0,0.0,0.0,0.0,0.0,0.0,0.0,0.0,1.1811,1.1521,1.1695,1.1977,0.0,1.2096,1.2251,1.2713,1.2912,0.0,0.0,0.0,0.0,0.0,0.0,0.0,1.4516,1.4353,1.4235,1.4248,1.4003,1.3832,1.3806,1.3449,1.3192,1.3123,1.3111,1.3063,1.2929,1.282,0.0,0.0,0.0,0.0,0.0,0.0,0.0,0.0,0.0,0.0,0.0,0.0,0.0,0.0,0.0,0.0,0.0,0.0,0.0,0.0,0.0,0.0,0.0,0.0,0.0,0.0,0.0,0.0,0.0,0.2416,0.273,0.2922,0.3269,0.3548,0.0,0.0,0.0,0.0,0.0,0.0,0.0,0.0,0.0,0.5785,0.6201,0.647,0.6571,0.693,0.7219,0.7443,0.7773,0.8,0.8154,0.8473,0.8662,0.876,0.9018,0.9189,0.9278,0.9121,0.9162,0.9372,0.0,0.0,0.0,0.0,1.0213,1.0292,1.0292,1.0552,1.0897,1.0897,0.0,0.0,0.0,0.0,0.0,0.0,0.0,0.0,0.0,0.0,1.1958,1.1825,1.204,1.2353,1.2612,1.2662,1.2668,0.0,1.2867,1.3087,1.3344,0.0,0.0,0.0,0.0,1.4725,1.4811,1.4678,1.4584,1.4584,1.4307,1.4003,1.3701,1.3556,1.3338,1.301,1.3,1.2929,1.2786,1.2725,1.2652,0.0,0.0,0.0,0.0,0.0,0.0,0.0,0.0,0.0,0.0,0.0,0.0,0.0,0.0,0.0,0.0,0.0,0.0,0.0,0.0,0.0,0.0,0.0,0.0,0.0,0.0,0.0,0.0,0.2871,0.3153,0.3411,0.3833,0.4166,0.0,0.0,0.0,0.0,0.0,0.0,0.5706,0.6107,0.6375,0.6452,0.6814,0.7003,0.7003,0.7466,0.7781,0.7924,0.8259,0.8492,0.8637,0.9,0.9153,0.9205,0.9613,0.9882,1.005,0.9689,0.9662,0.9893,1.0259,1.0409,1.0427,1.0568,1.0604,1.0605,1.0591,1.0808,1.1107,1.116,1.1388,1.1633,1.1633,0.0,0.0,0.0,0.0,1.1633,1.1633,1.1929,1.221,1.2116,1.2369,1.2706,1.3028,1.3097,1.3044,0.0,1.3015,1.3197,1.335,0.0,0.0,0.0,0.0,1.4941,1.4985,1.4941,1.4923,1.4951,1.4643,1.4273,1.3867,1.3808,1.3563,1.3042,1.3,1.2902,1.2661,1.2615,1.2554,1.2446,0.0,0.0,0.0,0.0,0.0,0.0,0.0,0.0,0.0,0.0,0.0,0.0,0.0,0.0,0.0,0.0,0.0,0.0,0.0,0.0,0.0,0.0,0.0,0.0,0.0,0.0,0.0,0.0,0.0,0.4043,0.442,0.0,0.0,0.0,0.0,0.5717,0.5951,0.6197,0.6517,0.6798,0.7096,0.7416,0.7694,0.783,0.783,0.8305,0.8541,0.8563,0.903,0.9247,0.9255,0.9461,0.9599,0.9669,0.9887,1.0096,1.0273,1.0267,1.0358,1.058,1.0842,1.1078,1.1238,1.1173,1.1273,1.1431,1.1372,1.1477,1.1687,1.189,1.2092,1.2258,1.2258,1.2258,0.0,0.0,1.2258,1.2258,1.2258,1.2551,1.2781,1.2462,1.2681,1.3003,1.3074,1.3097,1.3199,0.0,1.3558,1.3561,1.3577,0.0,1.3995,1.401,1.4404,1.4775,1.497,1.5108,1.5235,1.5352,1.5014,1.476,1.474,1.4322,1.385,1.3317,1.3275,1.3052,1.2526,1.2394,1.2311,1.2311,1.2175,0.0,0.0,0.0,0.0,0.0,0.0,0.0,0.0,0.0,0.0,0.0,0.0,0.0,0.0,0.0,0.0,0.0,0.0,0.0,0.0,0.0,0.0,0.0,0.0,0.0,0.0,0.0,0.0,0.4954,0.5252,0.0,0.5967,0.637,0.6663,0.6754,0.7117,0.7366,0.7489,0.7762,0.8034,0.8318,0.855,0.876,0.8924,0.9266,0.9444,0.9444,0.9922,1.0134,1.0154,1.058,1.0684,1.0539,1.0782,1.0834,1.0763,1.108,1.1063,1.088,1.1102,1.1324,1.1513,1.1619,1.1702,1.1789,1.1927,1.2104,1.2318,1.2654,1.2828,1.2886,1.2886,1.2886,1.2846,1.2664,1.2623,1.2602,1.2518,1.2691,1.2908,1.2905,1.3118,1.3394,1.3684,1.3741,1.3882,1.4345,1.4153,1.3966,1.4088,1.4279,1.4385,1.4385,1.4577,1.476,1.497,1.5127,1.5249,1.5381,1.5273,1.505,1.4707,1.4528,1.4161,1.3584,1.3565,1.3423,1.3163,1.3101,1.2974,1.2754,1.2701,1.2608,0.0,0.0,0.0,0.0,0.0,0.0,0.0,0.0,0.0,0.0,0.0,0.0,0.0,0.0,0.0,0.0,0.0,0.0,0.0,0.0,0.0,0.0,0.0,0.0,0.0,0.0,0.5183,0.576,0.6116,0.6456,0.684,0.7282,0.757,0.7661,0.8036,0.8294,0.8364,0.8621,0.8901,0.9158,0.9294,0.9507,0.9767,1.0,1.0185,1.0278,1.069,1.0875,1.0875,1.1313,1.1392,1.1254,1.1592,1.1641,1.1497,1.1921,1.1898,1.1619,1.1652,1.1755,1.1887,1.1988,1.2093,1.2208,1.2423,1.2631,1.285,1.3114,1.3193,1.3193,1.3193,1.3193,1.3166,1.2979,1.2925,1.2936,1.2917,1.3058,1.3236,1.3349,1.3524,1.3759,1.4051,1.4093,1.4274,1.4874,1.4622,1.4363,1.4547,1.4709,1.4792,1.4792,1.4817,1.49,1.5083,1.5056,1.5093,1.5245,1.5274,1.5114,1.4773,1.473,1.4487,1.387,1.3828,1.3708,1.3441,1.3377,1.3232,1.2995,1.2913,1.2888,1.2923,0.0,0.0,0.0,0.0,0.0,0.0,0.0,0.0,0.0,0.0,0.0,0.0,0.0,0.0,0.0,0.0,0.0,0.0,0.0,0.0,0.0,0.0,0.0,0.5594,0.587,0.6228,0.6517,0.7015,0.7419,0.7658,0.79,0.8186,0.8441,0.8722,0.8953,0.9159,0.9424,0.969,0.9966,0.997,1.0105,1.0361,1.0561,1.0788,1.1043,1.1315,1.1449,1.1449,1.1651,1.1743,1.1778,1.2237,1.242,1.2432,1.2711,1.2801,1.2779,1.2524,1.2412,1.2398,1.2358,1.2496,1.2754,1.2873,1.3055,1.324,1.324,1.324,1.324,1.324,1.324,1.324,1.3227,1.3207,1.3259,1.347,1.366,1.3786,1.3739,1.3883,1.4033,1.4128,1.4134,1.4343,1.507,1.494,1.477,1.4908,1.5081,1.5223,1.5223,1.5156,0.0,1.5306,1.4965,1.4793,1.5004,1.5009,1.5,1.4985,1.4985,1.4742,1.4142,1.41,1.3876,1.3351,1.3136,1.3031,1.304,1.2756,1.2823,1.3215,0.0,0.0,0.0,0.0,0.0,0.0,0.0,0.0,0.0,0.0,0.0,0.0,0.0,0.0,0.0,0.0,0.0,0.0,0.0,0.0,0.0,0.0,0.6682,0.6284,0.6652,0.7149,0.7599,0.7965,0.8446,0.9131,0.9437,0.9716,0.9965,1.0243,1.0521,1.0819,1.0903,1.1155,1.1632,1.1632,1.1758,1.2034,1.1905,1.1874,1.1943,1.2068,1.223,1.2422,1.2613,1.2753,1.2792,1.2932,1.2876,1.2711,1.2991,1.3086,1.3066,1.2784,1.2669,1.2629,1.2817,1.3109,1.3439,1.3466,1.3633,1.3848,1.3848,1.3848,1.3848,1.3848,1.3848,1.3801,1.356,1.3487,1.3534,1.3682,1.3758,1.3881,1.4193,1.4422,1.4624,1.4794,1.4757,1.4856,1.5454,1.5294,1.5214,1.5687,1.5641,1.5605,1.5764,1.5644,0.0,1.5724,1.5377,1.5203,1.5415,1.5165,1.4941,1.4789,1.4775,1.4663,1.4409,1.4385,1.4271,1.4039,1.3972,1.3831,1.3579,1.335,1.3313,0.0,0.0,0.0,0.0,0.0,0.0,0.0,0.0,0.0,0.0,0.0,0.0,0.0,0.0,0.0,0.0,0.0,0.0,0.0,0.0,0.0,0.0,0.7609,0.7916,0.7893,0.7982,0.8255,0.8758,0.9139,0.9572,1.0092,1.0499,1.0811,1.0967,1.133,1.1641,1.1822,1.1951,1.2158,1.2467,1.2472,1.2648,1.3039,1.2883,1.2917,1.3139,1.317,1.3224,1.3253,1.3376,1.3411,1.3335,1.3435,1.3402,1.3286,1.3543,1.3594,0.0,0.0,0.0,0.0,0.0,1.3878,1.4076,1.4045,1.414,1.4249,1.415,1.4109,1.4109,1.4109,1.4109,1.4048,1.3854,1.3862,1.396,1.4122,1.4262,1.4402,1.4619,1.4833,1.5024,1.5083,1.5168,1.5388,1.5857,1.5746,0.0,1.6332,1.6166,1.6021,1.6218,1.6086,1.5987,1.6053,1.5718,1.5457,1.5405,1.518,1.492,1.464,1.4621,0.0,0.0,0.0,1.4402,1.4184,1.4124,0.0,0.0,0.0,1.3496,1.3496,0.0,0.0,0.0,1.3496,1.3596,0.0,0.0,0.0,0.0,0.0,0.0,0.0,0.0,0.0,0.0,0.0,0.0,0.0,0.0,0.0,0.0,0.8834,0.9421,0.9907,0.9683,0.9596,0.9889,1.0398,1.0745,1.0793,1.132,1.1659,1.1711,1.2127,1.2438,1.2516,0.0,0.0,0.0,0.0,1.3194,1.3659,1.3663,1.3872,1.4353,1.4319,1.4187,1.4,1.4,1.3868,1.3658,1.3876,1.3985,1.4003,1.4256,1.4231,1.3994,1.368,1.3724,1.404,1.444,1.4613,1.4648,1.4568,0.0,0.0,1.429,1.421,1.4196,1.417,1.4156,1.415,1.4137,1.4258,1.4461,1.4699,1.4908,1.508,1.5004,1.5194,1.5365,1.5267,1.5537,1.5891,1.6272,1.6275,1.6367,1.688,1.659,1.6377,1.6595,1.6477,1.6369,1.6369,1.6019,1.5625,1.5276,0.0,0.0,1.4592,1.4528,1.45,1.45,1.4461,1.4297,1.3995,1.3845,1.3685,1.3496,1.3496,1.3496,1.3496,1.3554,1.3579,1.3579,1.3579,1.3759,0.0,0.0,0.0,0.0,0.0,0.0,0.0,0.0,0.0,0.0,0.0,0.0,0.0,0.0,0.0,0.9386,0.9932,1.0481,1.0952,1.1483,1.1572,1.0778,1.1164,1.1651,1.2035,1.2404,1.2727,1.2947,1.3054,1.3318,1.3821,1.3875,1.4115,1.4547,1.4574,1.46,1.4707,1.4541,1.4523,1.4622,0.0,0.0,1.4542,1.4542,1.4533,1.447,1.4513,1.454,1.455,1.4592,1.4711,1.4807,1.4103,1.4086,1.4479,1.4569,1.4732,1.4912,1.4919,1.4899,1.4892,1.4839,1.4841,1.4772,1.4509,1.4414,0.0,1.4368,1.4377,1.4503,1.4915,1.5069,1.518,1.5473,1.5754,1.5986,1.6113,1.6249,1.6426,1.6653,1.6722,1.6884,1.7313,1.6776,1.6412,1.6778,1.681,1.6772,1.6772,1.6424,1.6149,1.6076,1.5496,1.5065,1.4992,1.4698,1.45,1.45,1.4243,1.401,1.3845,1.3655,1.3541,1.3496,1.3496,1.3496,1.3496,1.3827,1.3982,1.3982,1.3982,1.4024,0.0,0.0,0.0,0.0,0.0,0.0,0.0,0.0,0.0,0.0,0.0,0.797,0.8499,0.0,0.985,1.0446,1.1028,1.1601,1.2172,1.2745,1.2829,1.2119,1.2526,1.2943,1.3189,1.3616,1.3949,1.4087,1.4392,1.469,1.4988,1.4988,1.5048,1.5202,1.5197,1.5221,1.5261,1.514,1.5182,1.5302,1.5167,1.511,1.5094,1.5255,1.5231,1.5095,1.5091,1.5096,1.508,1.4966,1.5053,1.5259,1.4859,1.4836,1.5068,1.516,1.5299,1.5378,1.5253,1.52,1.518,1.5033,1.5008,1.4981,1.4805,1.4743,1.4749,1.4662,1.4716,1.4845,1.5041,1.5249,1.545,1.565,1.5989,1.6299,1.6504,1.6758,1.7019,1.7203,1.7304,1.7452,1.7748,1.7373,1.7072,1.7194,1.7037,1.6908,1.6908,1.6717,1.6515,1.6323,1.5938,1.5625,1.5429,1.5029,1.4702,1.4509,1.4184,1.3965,1.3905,1.364,1.3496,1.3496,1.3708,1.3802,1.3802,1.4196,1.4432,1.4504,1.4703,1.4749,0.0,0.0,0.0,0.0,0.0,0.0,0.0,0.0,0.733,0.7726,0.8343,0.8978,0.9445,1.0111,1.0831,1.1558,1.2135,1.2726,1.3421,1.3796,1.3938,1.3793,1.4009,1.4215,1.4272,1.4772,1.5078,1.5078,1.5524,1.5834,1.589,1.5896,1.5832,1.5658,1.5646,1.5668,1.5719,1.574,1.5845,1.6045,1.6045,1.5936,1.5728,1.5969,1.5924,1.5657,1.5605,1.5588,1.5569,1.5335,1.5363,1.5564,1.5564,1.5564,1.5588,1.573,1.5808,1.5775,1.5541,1.5478,1.5444,1.5233,1.516,1.5146,1.5086,1.5118,1.5147,1.507,1.5199,1.5332,1.5261,1.5525,1.5795,1.5777,1.6134,1.6525,1.673,1.7139,1.7514,1.772,1.7871,1.8046,1.8252,1.8105,1.7869,1.755,1.722,1.6991,1.6917,1.6908,1.6789,1.6451,1.635,1.6147,1.5725,1.5395,1.5068,1.4717,1.4438,1.4262,1.4225,1.3963,1.3825,1.3825,1.4151,1.4315,1.4299,1.4712,1.4976,1.5074,1.5476,1.5531,0.3812,0.4539,0.5273,0.5803,0.6329,0.6839,0.0,0.0,0.8425,0.8837,0.9516,1.023,1.0931,1.157,1.2187,1.2887,1.3286,1.382,1.4607,1.4934,1.5299,1.5799,1.5227,1.4914,1.5208,1.5535,1.5693,1.5693,1.575,1.5918,1.6239,1.6239,1.634,1.654,1.654,1.6553,1.6581,1.6574,1.658,1.6597,1.6597,1.6585,1.658,1.6606,1.646,1.6195,1.5961,1.5869,1.5849,1.5761,1.573,1.5784,1.5784,1.5784,1.5784,1.5778,1.5808,1.5801,1.5768,1.5761,1.5748,1.5721,1.5708,1.5661,1.5424,1.5512,1.5709,1.564,1.5749,1.5906,1.5835,1.5976,1.6128,1.6073,1.6368,1.673,1.6996,1.7375,1.772,1.7931,1.8316,1.8649,1.885,1.8741,1.8347,1.7614,1.7458,1.7303,1.6954,1.6908,1.6873,1.6844,1.6506,1.6147,1.5725,1.5659,1.5558,1.5401,1.5343,1.5256,1.5072,1.5024,1.5008,1.5008,1.5043,1.507,1.507,1.5475,1.5678,1.572,1.6042,1.6042,0.4927,0.5737,0.6427,0.0,0.7347,0.8077,0.8365,0.8997,0.9621,0.9907,1.055,1.123,1.1734,1.225,1.2923,0.0,1.412,1.4553,1.5527,1.5758,1.602,1.6611,1.6326,1.6084,1.6055,1.6316,1.6489,1.6489,1.6686,1.6951,1.7274,1.728,1.735,1.744,1.7469,1.7388,1.7223,1.7081,1.699,1.6998,1.678,1.6703,1.6703,1.6902,1.6931,1.6826,1.6703,1.6462,1.6137,1.6091,1.5985,1.5808,1.5808,1.5808,1.5808,1.5808,1.5808,1.5808,1.5808,1.5808,1.5808,1.5808,1.5808,1.5805,1.5856,1.5939,1.6041,1.6142,1.6239,1.6302,1.6404,1.6569,1.6695,1.6594,1.6894,1.7234,1.727,1.7587,1.7951,1.8193,1.8583,1.8911,1.8982,1.9035,1.89,1.8434,1.8165,1.7879,1.7481,1.7425,1.7297,1.6936,1.6762,1.6496,1.6083,1.6056,1.5938,1.5633,1.5544,1.5463,1.5391,1.5261,1.5205,1.5205,1.5435,1.555,1.555,1.5907,1.6145,1.6266,1.6419,1.6453,0.6034,0.0,0.0,0.7576,0.84,0.9276,0.9505,1.014,1.0763,1.1089,1.1614,1.2183,1.2658,1.3087,1.3701,1.4761,1.4999,1.5361,1.6304,1.6425,1.6611,1.7085,1.7232,1.7168,1.6956,1.7138,1.7291,1.7291,1.7573,1.7837,1.8112,1.8112,1.8106,1.81,1.8122,1.8017,1.7815,1.7631,1.75,1.7427,1.7167,1.7025,1.6975,1.7193,1.7318,1.732,1.7239,1.6958,1.6531,1.6364,1.617,1.5921,1.5841,1.5808,1.5808,1.5808,1.5808,1.5808,1.5808,1.5808,1.5808,1.5808,1.5808,1.5855,1.6123,1.6241,1.6365,1.6584,1.6728,1.6832,1.69,1.7113,1.7279,1.7177,1.7504,1.7809,1.7685,1.795,1.8282,1.8449,1.8763,1.9022,1.9073,1.9251,1.9328,1.9187,1.9023,1.8704,1.8124,1.7911,1.7589,1.7032,1.6926,1.6772,1.6488,1.646,1.6349,1.6046,1.5946,1.5896,1.5896,1.5748,1.5674,1.5674,1.5952,1.6103,1.6103,1.6347,1.6534,1.6682,1.6808,1.6932,0.0,0.0,0.8743,0.8743,0.9513,1.0331,1.0669,1.1213,1.1836,1.2428,1.2715,1.311,1.397,1.4363,1.4828,1.5642,1.5983,1.6333,1.6885,1.6985,1.7103,1.7455,1.7755,1.7972,0.0,1.7972,1.7972,1.7972,1.8223,1.8392,1.8392,1.8392,1.8386,1.8379,1.8379,1.8384,1.8381,1.8368,1.8228,1.7995,1.7982,1.7822,1.7582,1.7582,1.7575,1.7582,1.7301,1.7192,1.7132,1.6531,1.629,1.6257,1.5939,1.5808,1.5808,1.5808,1.5808,1.5808,1.5808,1.5808,1.5808,1.5808,1.5808,1.5855,1.6123,1.6383,1.6636,1.6918,1.7309,1.7585,1.7273,1.753,1.7865,1.7799,1.8124,1.8443,1.8297,1.8588,1.8836,1.8711,1.8871,1.9053,1.9262,1.9458,1.9597,1.9587,1.9962,1.986,1.8814,1.8169,1.7642,1.723,1.702,1.6899,1.6873,1.6873,1.689,1.6854,1.6854,1.6854,1.6854,1.6854,1.6854,1.6854,1.6863,1.6873,1.6873,1.6882,1.6874,1.69,1.7285,1.7477,0.8224,0.0,0.9673,1.0037,1.0641,1.1318,1.1876,1.2283,1.272,1.3222,1.3551,1.39,1.4385,1.4833,1.536,1.603,1.6371,1.6715,1.7273,1.752,1.7702,1.782,1.8077,0.0,0.0,0.0,0.0,1.8282,1.8334,1.8502,1.8735,1.8735,1.8829,1.9068,1.9068,1.9051,1.9068,1.884,1.8677,1.8596,1.8175,1.7856,1.7608,1.7608,1.7608,1.7602,1.7501,1.7354,1.7186,1.6991,1.6652,1.6284,1.619,1.6005,1.5808,1.5808,1.5808,1.5808,1.5808,1.5808,1.5808,1.5808,1.5927,1.6123,1.6376,1.6636,1.6902,1.7129,1.7441,1.7722,1.7788,1.8149,1.8474,1.8402,1.8748,1.9065,1.8939,1.9215,1.9459,1.9319,1.9451,1.958,1.9505,1.9557,1.9705,2.001,1.9927,1.9716,1.94,1.8905,1.8395,1.7853,1.7621,1.7395,1.7125,1.6968,1.6908,1.6908,1.6908,1.6908,1.6908,1.6908,1.6908,1.6908,1.6908,1.6908,1.6908,1.6908,1.7116,1.7498,1.7646,1.7922,0.9369,1.0012,1.0764,1.1112,1.1711,1.2386,1.2932,1.3323,1.3694,1.4067,1.4337,1.4579,1.488,1.537,1.5879,1.6356,1.6739,1.714,1.7613,1.7849,1.8025,1.8142,1.8392,1.859,0.0,0.0,0.0,1.859,1.8684,1.8858,1.9062,1.9091,1.9178,1.9395,1.9395,1.9395,1.9395,1.9178,1.9025,1.889,1.8303,1.7916,1.7742,1.7629,1.7608,1.7608,1.7608,1.7501,1.7347,1.7246,1.6892,1.6444,1.6337,1.6092,1.5808,1.5808,1.5808,1.5808,1.5808,1.5808,1.5832,1.5903,1.6052,1.6272,1.6643,1.6855,1.705,1.7364,1.7644,1.7908,1.8164,1.8596,1.8956,1.9019,1.9381,1.9674,1.9548,1.9872,2.0091,1.9856,1.9914,1.9964,1.9846,1.9838,1.9971,2.0362,2.014,1.9917,1.9781,1.9483,1.9035,1.8477,1.8231,1.7954,1.7567,1.7347,1.716,1.7012,1.6934,1.6908,1.6908,1.6908,1.6908,1.6908,1.6968,1.7077,1.7216,1.7295,1.7596,1.8132,1.8264,1.8544,1.0487,1.1196,1.1953,1.1983,1.2725,1.353,1.3867,1.4306,1.4713,1.4961,1.5035,1.5122,0.0,0.0,1.6396,1.6666,1.7157,1.7619,1.7937,1.8031,1.8142,0.0,0.0,0.0,0.0,0.0,0.0,1.8939,0.0,1.9395,1.9395,1.9395,1.9395,1.9395,1.9395,1.9395,1.9395,1.9395,1.9219,1.889,1.8316,1.8009,1.7982,1.7722,1.7608,1.7608,1.7608,1.7608,1.7588,1.734,1.702,1.67,1.6438,1.6112,1.5828,1.5815,1.5808,1.5808,1.5832,1.5825,1.5855,1.6123,1.6224,1.6343,1.6838,1.7026,1.712,1.7558,1.7908,1.8179,1.8458,1.8858,1.9288,1.9556,1.9982,2.0288,2.0179,2.0509,2.071,2.0322,2.0248,2.024,2.0242,2.0304,2.0401,2.0566,2.0605,2.0439,1.9981,1.982,1.9571,1.91,1.8877,1.8586,1.8178,1.7953,1.7678,1.7294,1.7102,1.6981,1.6981,1.6981,1.6981,1.6981,1.718,1.7462,1.7855,1.8043,1.8331,1.8766,1.9137,1.9345,1.1541,1.2063,1.2696,1.3243,1.3728,1.419,1.4606,1.4802,1.4987,1.5315,1.5374,1.5449,0.0,0.0,0.0,1.667,1.72,0.0,1.7971,1.8398,0.0,1.8765,0.0,1.9272,1.9272,1.9336,0.0,0.0,1.9336,1.9395,1.9395,1.9395,1.9395,1.9395,1.9395,1.9395,1.9395,1.9395,1.9219,1.889,1.8551,1.8236,1.7982,1.7722,1.7608,1.7608,1.7608,1.7608,1.7602,1.7528,1.7327,1.7033,1.6714,1.6413,1.6132,1.5888,1.5808,1.5832,1.6028,1.6099,1.6099,1.6177,1.6461,1.6815,1.6956,1.7238,1.7542,1.7675,1.8032,1.845,1.8674,1.9112,1.9556,1.9777,2.0224,2.0619,2.0748,2.1029,2.1179,2.0914,2.0906,2.0906,2.0756,2.0873,2.0898,2.0635,2.0605,2.0566,2.0429,2.0381,2.0187,1.973,1.9551,1.9265,1.8807,1.8595,1.8429,1.8325,1.8261,1.8243,1.8243,1.8243,1.8243,1.8243,1.8297,1.8372,1.8476,1.8512,1.8859,1.9448,1.9553,1.9841,1.2419,1.2882,1.3413,1.3934,1.4367,1.4759,1.5118,1.5309,1.5437,1.563,1.569,0.0,0.0,0.0,0.0,0.0,0.0,0.0,1.8325,1.8677,1.8939,0.0,1.9301,0.0,1.9395,1.9395,1.9395,0.0,1.9395,1.9395,1.9395,1.9395,1.9395,1.9395,1.9395,1.9395,1.9395,1.9395,1.9314,1.9112,1.8691,1.8404,1.8203,1.7782,1.7608,1.7608,0.0,1.7608,1.7608,1.7608,1.7441,1.7186,1.6993,1.6672,1.6277,1.6086,1.5993,1.6004,1.6147,1.6343,1.6555,1.6555,1.6744,1.705,1.7238,1.7495,1.7745,1.7985,1.8334,1.8674,1.892,1.9356,1.9785,2.0019,2.0464,2.0893,2.1127,2.136,2.151,2.1417,2.1521,2.1564,2.1368,2.1256,2.1132,2.0898,2.0713,2.0605,2.0605,2.0605,2.0507,2.0244,2.0138,1.9897,1.9442,1.9237,1.9039,1.8839,1.8747,1.8701,1.8701,1.8701,1.8701,1.8701,1.8784,1.8934,1.9144,1.9208,1.9523,2.0081,2.0081,2.0294,1.3195,1.3643,1.4111,1.4375,1.4859,1.5318,1.5556,1.582,1.5998,1.5971,0.0,1.5945,1.5918,1.6099,1.6429,1.7036,0.0,1.7897,1.8719,1.8913,1.9062,1.9366,1.9395,1.9395,1.9395,1.9395,1.9395,1.9395,1.9395,1.9395,1.9395,1.9395,1.9395,1.9395,1.9395,1.9395,1.9395,1.9395,1.9395,1.9388,1.8811,1.8524,1.847,1.7903,1.7622,1.7608,1.7608,1.7608,1.7608,1.7608,1.7461,1.7253,1.7213,1.6839,1.6351,1.631,1.6261,1.6201,1.6248,1.6579,1.7003,1.7003,1.7026,1.712,1.7565,1.7721,1.7869,1.8365,1.8682,1.892,1.9173,1.9608,2.0019,2.0292,2.0713,2.1118,2.1347,2.1593,2.1786,2.1922,2.2114,2.2215,2.1999,2.164,2.1327,2.121,2.0908,2.0654,2.0615,2.0605,2.0605,2.0605,2.0605,2.0429,2.0029,1.9887,1.9647,1.9234,1.9047,1.8945,1.8945,1.8945,1.8945,1.8945,1.9131,1.9416,1.9821,1.9934,2.0195,2.0605,2.0605,2.0605,1.401,1.4467,1.4955,1.5227,1.5695,1.6096,1.6146,1.6361,0.0,0.0,0.0,1.6158,1.5945,1.5954,1.6156,1.6697,0.0,0.0,0.0,0.0,1.9336,0.0,0.0,0.0,0.0,0.0,0.0,0.0,0.0,1.9395,1.9395,1.9395,1.9395,1.9395,1.9395,1.9395,1.9395,1.9395,1.9395,1.9395,1.9011,1.8724,1.8477,1.8096,1.7796,1.7608,1.7608,0.0,1.7608,1.7608,1.7582,1.7508,1.7293,1.6959,1.66,1.6384,1.6261,1.6218,1.6447,1.6737,1.7003,1.7003,1.7113,1.7309,1.7605,1.7861,1.8094,1.8411,1.8789,1.9196,1.9464,1.9868,2.0292,2.0564,2.1001,2.1347,2.1392,2.1727,2.2144,2.2554,2.2654,2.2619,2.2438,2.2344,2.203,2.1298,2.1152,2.0986,2.0635,2.0605,2.0605,2.0605,2.0605,2.0576,2.0498,2.0459,2.041,2.0332,2.0284,2.0265,2.0265,2.0265,2.0265,2.0265,2.0303,2.0362,2.044,2.0478,2.0527,2.0605,2.0605,2.0605,1.4616,1.4907,1.5166,1.5434,1.5693,1.5929,1.6075,0.0,0.0,0.0,1.6204,1.6217,1.5945,0.0,0.0,0.0,0.0,0.0,0.0,0.0,0.0,0.0,0.0,0.0,0.0,0.0,0.0,0.0,0.0,1.9395,1.9395,1.9395,1.9395,1.9395,1.9395,1.9395,1.9395,1.9395,1.9395,1.9395,1.9065,1.8771,1.8477,1.8156,1.7849,1.7608,1.7608,1.7608,1.7608,1.7608,1.7608,1.7595,1.7454,1.722,1.6951,1.6787,1.6661,1.6638,1.677,1.6965,1.7176,1.7331,1.7441,1.7551,1.7838,1.8094,1.8396,1.8766,1.9135,1.9456,1.9685,2.0141,2.0564,2.0803,2.1217,2.1593,2.1727,2.203,2.2353,2.2737,2.2882,2.2923,2.2828,2.2635,2.2352,2.1942,2.1503,2.1132,2.0937,2.0732,2.0605,2.0605,2.0605,2.0605,2.0605,2.0605,2.0605,2.0605,2.0605,2.0605,2.0605,2.0605,2.0605,2.0605,2.0605,2.0605,2.0605,2.0605,2.0605,2.0605,2.0605,2.0605,1.5053,1.5226,1.5301,1.552,1.5623,1.5726,1.5944,1.6157,0.0,0.0,1.6115,1.615,1.5933,0.0,0.0,0.0,0.0,0.0,0.0,0.0,0.0,0.0,0.0,0.0,0.0,0.0,0.0,0.0,0.0,1.9395,1.9395,1.9395,1.9395,1.9395,1.9395,1.9395,1.9395,1.9395,1.9395,1.9395,1.9132,1.8838,1.8484,1.8223,1.7909,1.7608,1.7608,1.7608,1.7608,1.7608,1.7608,1.7608,1.7608,1.7434,1.7191,1.7129,1.707,1.6994,1.6985,1.7183,1.7426,1.7628,1.7698,1.7768,1.8094,1.835,1.8658,1.9081,1.9433,1.9716,1.9936,2.0382,2.0826,2.1087,2.1477,2.1852,2.2119,2.2331,2.2552,2.2816,2.2991,2.3091,2.3091,2.284,2.2596,2.2498,2.1923,2.1454,2.1366,2.0986,2.0732,2.0732,2.0644,2.0605,2.0605,2.0605,2.0605,2.0605,2.0605,2.0605,2.0605,2.0605,2.0605,2.0605,2.0605,2.0605,2.0605,2.0605,2.0605,2.0605,2.0605,2.0605,1.538,1.5588,1.5743,1.577,1.6,1.6231,1.6257,0.0,0.0,1.6272,1.6089,1.5928,1.5896,0.0,0.0,0.0,0.0,1.714,0.0,0.0,0.0,0.0,0.0,0.0,0.0,0.0,0.0,0.0,1.9395,1.9395,1.9395,1.9395,1.9395,1.9395,1.9395,1.9395,1.9395,1.9395,1.9395,1.9395,1.9368,1.906,1.849,1.8464,1.8136,1.7608,1.7608,1.7608,0.0,1.7608,1.7608,1.7608,1.7608,1.7434,1.7191,1.7129,1.707,1.6994,1.6985,1.7277,1.7675,1.7698,1.7698,1.7791,1.8319,1.8612,1.8827,1.9119,1.9509,1.9936,2.0201,2.0623,2.1087,2.153,2.1852,2.2119,2.2331,2.2574,2.2816,2.3025,2.3101,2.3091,2.3091,2.3062,2.2927,2.2547,2.242,2.2256,2.1875,2.1425,2.1132,2.1132,2.081,2.0605,2.0605,2.0605,2.0605,2.0605,2.0605,2.0605,2.0605,2.0605,2.0605,2.0605,2.0605,2.0605,2.0605,2.0605,2.0605,2.0605,2.0605,2.0605,1.5571,1.573,1.5808,1.5808,1.5895,1.5957,1.5861,0.0,1.5985,1.5645,1.5737,1.5854,1.569,1.5783,0.0,0.0,0.0,0.0,0.0,0.0,0.0,0.0,0.0,0.0,0.0,0.0,0.0,0.0,1.9395,1.9395,1.9395,1.9395,1.9395,1.9395,1.9395,1.9395,1.9395,1.9395,1.9395,1.9395,1.9395,1.9087,1.849,1.849,1.8163,1.7608,1.7608,1.7608,0.0,1.7608,1.7608,1.7608,1.7608,1.762,1.7668,1.765,1.7596,1.7527,1.7503,1.7579,1.7721,1.7885,1.8133,1.8388,1.8627,1.8858,1.9119,1.9517,1.9882,2.0201,2.0473,2.088,2.136,2.183,2.203,2.2207,2.2552,2.2706,2.286,2.3057,2.3091,2.3091,2.3091,2.3091,2.3042,2.2898,2.2654,2.2451,2.2285,2.1894,2.1621,2.1621,2.1016,2.0605,2.0605,2.0605,2.0605,2.0605,2.0605,2.0605,2.0605,2.0605,2.0605,2.0605,2.0605,2.0605,2.0605,2.0605,2.0605,2.0615,2.084,2.0967,1.5594,1.5706,1.5706,1.5706,1.5642,1.5547,0.0,0.0,1.5455,1.517,1.5331,1.5549,1.5521,1.565,1.5801,0.0,0.0,1.639,1.7009,0.0,0.0,0.0,0.0,0.0,0.0,0.0,0.0,1.9395,1.9395,1.9395,1.9395,1.9395,1.9395,1.9395,1.9395,1.9395,1.9395,1.9395,1.9395,1.9395,1.9395,1.9087,1.849,1.849,1.8163,1.7608,1.7608,1.7608,0.0,1.7608,1.7608,1.7608,1.7608,1.7773,1.8009,1.8009,1.7955,1.7899,1.7909,1.7872,1.7861,1.8141,1.8527,1.892,1.902,1.9219,1.9486,1.9905,2.0314,2.0663,2.0866,2.1248,2.1683,2.203,2.2207,2.2407,2.2737,2.2847,2.2925,2.3079,2.3091,2.3091,2.3091,2.3091,2.3091,2.3091,2.2869,2.2684,2.2684,2.2334,2.207,2.207,2.1426,2.0918,2.0791,2.0781,2.0723,2.0615,2.0605,2.0605,2.0605,2.0605,2.0605,2.0605,2.0605,2.0654,2.0781,2.0781,2.085,2.0977,2.1279,2.1474,1.5428,1.5493,1.5493,1.5493,1.5291,1.5107,0.0,0.0,1.4792,1.5041,1.4887,1.4858,1.5403,1.5499,1.559,1.5849,1.5891,0.0,1.6723,0.0,0.0,0.0,0.0,0.0,0.0,0.0,1.9395,1.9395,1.9395,0.0,1.9395,1.9395,1.9395,1.9395,1.9395,1.9395,1.9395,1.9395,1.9395,1.9395,1.9395,1.9087,1.849,1.849,1.8163,1.7608,1.7608,1.7608,0.0,1.7608,1.7608,1.7608,1.7608,1.7773,1.8009,1.8009,1.7955,1.7924,1.8141,1.814,1.8133,1.8404,1.8812,1.9242,1.951,1.9739,1.9951,2.0224,2.0821,2.1392,2.1392,2.175,2.2097,2.2097,2.2451,2.2794,2.2803,2.2947,2.3091,2.3091,2.3091,2.3091,2.3091,2.3091,2.3091,2.3091,2.3091,2.3091,2.3091,2.2742,2.2488,2.2488,2.2129,2.1699,2.122,2.119,2.1015,2.0635,2.0605,2.0605,2.0605,2.0605,2.0605,2.0605,2.0605,2.0801,2.119,2.119,2.1425,2.1896,2.1896,2.21,1.5097,1.522,1.522,1.522,1.5155,1.5059,1.4861,0.0,1.4665,1.4576,1.4631,1.4823,1.5167,1.5378,1.5584,1.5849,1.5891,0.0,0.0,0.0,0.0,0.0,0.0,0.0,0.0,0.0,1.9395,1.9395,1.9395,1.9395,1.9395,1.9395,1.9395,1.9395,1.9395,1.9395,1.9395,1.9395,1.9395,1.9395,1.9395,1.9087,1.849,1.849,1.8163,1.7608,1.7608,1.7608,1.7608,1.7608,1.7608,1.7608,1.7608,1.7871,1.8258,1.8265,1.8234,1.8217,1.8449,1.836,1.8179,1.8573,1.9043,1.951,1.9731,1.9982,2.0292,2.0888,2.1212,2.1437,2.1571,2.1852,2.2119,2.2264,2.2552,2.2838,2.2991,2.3057,2.3091,2.3091,2.3091,2.3091,2.3091,2.3091,2.3091,2.3091,2.3091,2.3091,2.3091,2.2984,2.2918,2.2918,2.2801,2.243,2.1738,2.168,2.1621,2.1495,2.1485,2.1485,2.1485,2.1485,2.1485,2.1485,2.1485,2.1563,2.168,2.168,2.1894,2.2314,2.2314,2.2518,0.0,1.4881,1.4909,1.4814,1.4718,0.0,0.0,0.0,1.4208,1.4034,1.4121,1.4352,1.4731,1.5029,1.5313,1.5677,1.5838,0.0,0.0,0.0,0.0,0.0,0.0,0.0,0.0,1.9395,1.9395,1.9395,1.9395,1.9395,1.9395,1.9395,1.9395,1.9395,1.9395,1.9395,1.9395,1.9395,1.9395,1.9395,1.9281,1.8951,1.849,1.8377,1.805,1.7608,1.7608,1.7608,0.0,1.7608,1.7608,1.7608,1.772,1.8029,1.8422,1.8534,1.8551,1.8517,1.8778,1.8598,1.8348,1.8798,1.9356,1.9914,2.0224,2.0419,2.0668,2.1235,2.1459,2.1571,2.1785,2.203,2.2264,2.2508,2.275,2.2947,2.3079,2.3091,2.3091,2.3091,2.3091,2.3091,2.3091,2.3091,2.3091,2.3091,2.3091,2.3091,2.3091,2.3091,2.3091,2.3091,2.3091,2.2908,2.2402,2.2207,2.206,2.1915,2.1905,2.1905,2.1905,2.1905,2.1905,2.1905,2.1905,2.1963,2.2129,2.2275,2.2469,2.2732,2.2732,2.2869,0.0,1.4358,1.4543,1.4292,1.4064,1.3811,1.3569,0.0,0.0,1.3491,1.3491,1.3669,1.421,1.4511,1.4839,1.5399,1.5716,0.0,0.0,0.0,0.0,0.0,0.0,0.0,1.9395,1.9395,1.9395,1.9395,1.9395,1.9395,1.9395,1.9395,1.9395,1.9395,1.9395,1.9395,1.9395,1.9395,1.9388,1.9361,1.9058,1.8764,1.845,1.8143,1.7849,0.0,1.7608,1.7608,1.7608,1.7608,1.7608,1.7635,1.7911,1.8167,1.8448,1.8784,1.8868,1.8839,1.9043,1.888,1.8703,1.9101,1.9737,2.0405,2.0862,2.1019,2.1073,2.1347,2.1571,2.1785,2.203,2.2264,2.2485,2.2737,2.2947,2.3091,2.3091,2.3091,2.3091,2.3091,2.3091,2.3091,2.3091,2.3091,2.3091,2.3091,2.3091,2.3091,2.3091,2.3091,2.3091,2.3091,2.3091,2.3091,2.3091,2.2762,2.2371,2.2002,2.2003,2.2003,2.2003,2.2003,2.2003,2.2003,2.2003,2.2168,2.2537,2.2927,2.3091,2.3091,2.3091,2.3091,1.2392,0.0,1.3572,1.368,1.3636,1.3588,0.0,0.0,0.0,0.0,0.0,1.3669,1.421,1.4358,1.4633,1.5373,1.5562,1.5663,1.5865,0.0,0.0,0.0,0.0,1.9395,1.9395,1.9395,1.9395,1.9395,1.9395,1.9395,1.9395,1.9395,1.9395,1.9395,1.9395,1.9395,1.9395,1.9395,1.9281,1.9025,1.893,1.8623,1.8123,1.8056,1.7849,1.7608,1.7608,1.7608,1.7608,1.7608,1.7608,1.7635,1.7911,1.8167,1.8448,1.8784,1.8997,1.9116,1.9092,1.9018,1.8957,1.9372,2.0005,2.0654,2.093,2.1141,2.1338,2.1562,2.1807,2.203,2.2074,2.2407,2.2706,2.2781,2.2947,2.3091,2.3091,2.3091,2.3091,2.3091,2.3091,2.3091,2.3091,2.3091,2.3091,2.3091,2.3091,2.3091,2.3091,2.3091,2.3091,2.3091,2.3091,2.3091,2.3091,2.3003,2.2927,2.283,2.282,2.282,2.282,2.282,2.282,2.282,2.282,2.2847,2.2967,2.3052,2.3091,2.3091,2.3091,2.3091,1.1457,1.2181,1.2854,1.2965,1.3007,1.2958,1.2832,0.0,0.0,0.0,0.0,0.0,1.3841,1.4027,1.437,1.5148,1.5401,0.0,0.0,0.0,0.0,0.0,0.0,1.9219,0.0,1.9395,1.9395,1.9395,1.9395,1.9395,1.9395,1.9395,1.9395,1.9395,1.9261,1.9232,1.9395,1.9261,1.9085,1.889,1.8623,1.8329,1.7989,1.7876,1.7742,1.7608,1.7608,1.7608,1.7608,1.7608,1.7608,1.7635,1.8036,1.8265,1.8448,1.8914,1.924,1.9394,1.917,1.9183,1.9323,1.953,2.0164,2.0871,2.0975,2.1253,2.1562,2.1674,2.1896,2.2119,2.2198,2.2508,2.2816,2.2925,2.3013,2.3091,2.3091,2.3091,2.3091,2.3091,2.3091,2.3091,2.3091,2.3091,2.3091,2.3091,2.3091,2.3091,2.3091,2.3091,2.3091,2.3091,2.3091,2.3091,2.3091,2.3091,2.3091,2.3091,2.3091,2.3091,2.3091,2.3091,2.3091,2.3091,2.3091,2.3091,2.3091,2.3091,2.3091,2.3091,2.3091,2.3091,1.0768,1.1461,1.2162,1.2261,1.232,1.2273,1.2054,0.0,0.0,0.0,0.0,0.0,0.0,0.0,0.0,0.0,0.0,0.0,0.0,0.0,0.0,0.0,1.8346,0.0,1.9308,1.9368,1.9395,1.9395,1.9395,1.9381,1.9328,1.9328,1.9308,1.9267,1.8991,1.8978,1.9261,1.8985,1.881,1.8756,1.8229,1.7969,1.7942,1.7702,1.7608,1.7608,0.0,0.0,1.7608,1.7608,1.7608,1.7661,1.8187,1.8396,1.8475,1.9089,1.9506,1.9711,1.9355,1.9376,1.961,1.961,2.0246,2.0997,2.0997,2.132,2.1696,2.1696,2.1919,2.2185,2.2353,2.2618,2.2882,2.3057,2.3091,2.3091,2.3091,2.3091,2.3091,2.3091,2.3091,2.3091,2.3091,2.3091,2.3091,2.3091,2.3091,2.3091,2.3091,2.3091,2.3091,2.3091,2.3091,2.3091,2.3091,2.3091,2.3091,2.3091,2.3091,2.3091,2.3091,2.3091,2.3091,2.3091,2.3091,2.3091,2.3091,2.3091,2.3091,2.3091,2.3091,2.3091,1.0014,1.0465,1.1019,1.1652,1.194,1.2054,0.0,0.0,0.0,0.0,0.0,0.0,0.0,0.0,0.0,0.0,0.0,0.0,0.0,0.0,0.0,1.7268,0.0,1.8916,1.8956,1.9219,1.9395,1.9395,1.9395,1.9287,1.8976,1.8991,1.8878,1.8659,1.8584,1.8577,1.8624,1.8584,1.843,1.8129,1.8035,1.7882,1.7655,1.7628,1.7608,1.7608,0.0,1.7608,1.7608,1.7608,1.7608,1.7661,1.8187,1.8396,1.8475,1.9089,1.9602,2.0012,1.9835,1.97,1.961,1.961,2.0246,2.0997,2.0997,2.132,2.1696,2.1696,2.2021,2.2353,2.2397,2.2728,2.3057,2.3091,2.3091,2.3091,2.3091,2.3091,2.3091,2.3091,2.3091,2.3091,2.3091,2.3091,2.3091,2.3091,2.3091,2.3091,2.3091,2.3091,2.3091,2.3091,2.3091,2.3091,2.3091,2.3091,2.3091,2.3091,2.3091,2.3091,2.3091,2.3091,2.3091,2.3091,2.3091,2.3091,2.3091,2.3091,2.3091,2.3091,2.3091,2.3091,0.9544,0.9858,1.025,1.058,1.113,0.0,0.0,0.0,0.0,0.0,0.0,0.0,0.0,0.0,0.0,0.0,0.0,1.5891,1.5891,1.6497,1.7005,0.0,0.0,1.8483,1.8677,1.8811,1.892,1.892,1.892,1.8859,1.8698,1.8691,1.8631,1.8497,1.8309,1.8223,1.8223,1.8083,1.8016,1.7989,1.7849,1.7722,1.7608,1.7608,1.7608,1.7608,0.0,1.7608,1.7608,1.7608,1.7608,1.7661,1.8187,1.8396,1.8501,1.9387,1.966,1.9581,1.9832,1.9779,1.961,1.961,2.0246,2.0997,2.0997,2.132,2.1696,2.1696,2.2043,2.2397,2.2397,2.274,2.3091,2.3091,2.3091,2.3091,2.3091,2.3091,2.3091,2.3091,2.3091,2.3091,2.3091,2.3091,2.3091,2.3091,2.3091,2.3091,2.3091,2.3091,2.3091,2.3091,2.3091,2.3091,2.3091,2.3091,2.3091,2.3091,2.3091,2.3091,2.3091,2.3091,2.3091,2.3091,2.3091,2.3091,2.3091,2.3091,2.3091,2.3091,2.3091,2.3091,0.927,0.9528,0.9823,0.9867,0.0,0.0,0.0,0.0,0.0,0.0,0.0,0.0,0.0,0.0,0.0,0.0,1.5517,1.5891,1.5891,1.6365,1.6813,1.7056,1.7645,1.8109,1.8364,1.845,1.849,1.849,1.849,1.8464,1.839,1.8384,1.8357,1.8277,1.8029,1.7916,1.7916,1.7702,1.7702,1.7909,1.7695,1.7608,1.7608,1.7608,1.7608,1.7608,1.7608,1.7608,1.7608,1.7608,1.7608,1.7661,1.8187,1.8501,1.871,1.9672,1.9616,1.9175,1.9649,1.9724,1.961,1.961,2.0209,2.093,2.0997,2.1298,2.1651,2.1696,2.1998,2.2331,2.2397,2.274,2.3091,2.3091,2.3091,2.3091,2.3091,2.3091,2.3091,2.3091,2.3091,2.3091,2.3091,2.3091,2.3091,2.3091,2.3091,2.3091,2.3091,2.3091,2.3091,2.3091,2.3091,2.3091,2.3091,2.3091,2.3091,2.3091,2.3091,2.3091,2.3091,2.3091,2.3091,2.3091,2.3091,2.3091,2.3091,2.3091,2.3091,2.3091,2.3091,2.3091,0.9159,0.9492,0.9853,1.0042,0.0,0.0,0.0,0.0,0.0,0.0,0.0,0.0,0.0,0.0,0.0,1.4982,1.5517,1.5891,1.5891,0.0,1.671,1.6735,1.7494,1.8002,1.8022,1.833,1.849,1.849,1.849,1.837,1.8042,1.8056,1.7922,1.7655,1.7648,1.7642,1.7642,1.7622,1.7622,1.7642,1.7622,1.7608,1.7608,1.7608,1.7608,1.7608,1.7608,1.7608,1.7608,1.7608,1.7608,1.7661,1.8187,1.8743,1.9272,1.9602,1.9471,1.9151,1.9437,1.9566,1.961,1.961,2.0119,2.0758,2.093,2.1195,2.1459,2.1651,2.1896,2.2163,2.2353,2.274,2.3091,2.3091,2.3091,2.3091,2.3091,2.3091,2.3091,2.3091,2.3091,2.3091,2.3091,2.3091,2.3091,2.3091,2.3091,2.3091,2.3091,2.3091,2.3091,2.3091,2.3091,2.3091,2.3091,2.3091,2.3091,2.3091,2.3091,2.3091,2.3091,2.3091,2.3091,2.3091,2.3091,2.3091,2.3091,2.3091,2.3091,2.3091,2.3091,2.3091,0.8906,0.9161,0.9418,0.9622,0.0,0.0,0.0,0.0,0.0,0.0,0.0,0.0,0.0,0.0,0.0,1.5014,1.5517,1.5971,1.6131,1.6471,1.6783,1.6981,1.745,1.7756,1.7756,1.7862,1.7929,1.7929,1.7929,1.7876,1.7762,1.7756,1.7702,1.7615,1.7608,1.7608,1.7608,1.7608,1.7608,1.7608,1.7608,1.7608,1.7608,1.7608,1.7608,1.7608,1.7608,1.7608,1.7608,1.7608,1.7608,1.7661,1.8187,1.8769,1.9324,1.9602,1.9446,1.9151,1.9412,1.9542,1.961,1.961,2.0104,2.0736,2.093,2.1195,2.1437,2.1651,2.1896,2.2141,2.2353,2.2662,2.2947,2.3079,2.3091,2.3091,2.3091,2.3091,2.3091,2.3091,2.3091,2.3091,2.3091,2.3091,2.3091,2.3091,2.3091,2.3091,2.3091,2.3091,2.3091,2.3091,2.3091,2.3091,2.3091,2.3091,2.3091,2.3091,2.3091,2.3091,2.3091,2.3091,2.3091,2.3091,2.3091,2.3091,2.3091,2.3091,2.3091,2.3091,2.3091,2.3091,0.8844,0.9003,0.9153,0.0,0.0,0.0,0.0,0.0,0.0,0.0,0.0,0.0,0.0,0.0,0.0,0.0,1.5577,1.5998,1.6271,1.6524,1.6816,1.7153,1.743,1.7608,1.7608,1.7608,1.7608,1.7608,1.7608,1.7608,1.7608,1.7608,1.7608,1.7608,1.7608,1.7608,1.7608,1.7608,1.7608,1.7608,1.7608,1.7608,1.7608,1.7608,1.7608,1.7608,1.7608,1.7608,1.7608,1.7608,1.7635,1.7773,1.8213,1.8717,1.9201,1.948,1.937,1.9126,1.9314,1.9423,1.9487,1.9564,1.999,2.0487,2.0803,2.1082,2.1316,2.154,2.1785,2.203,2.2242,2.2552,2.2825,2.2969,2.3047,2.3091,2.3091,2.3091,2.3091,2.3091,2.3091,2.3091,2.3091,2.3091,2.3091,2.3091,2.3091,2.3091,2.3091,2.3091,2.3091,2.3091,2.3091,2.3091,2.3091,2.3091,2.3091,2.3091,2.3091,2.3091,2.3091,2.3091,2.3091,2.3091,2.3091,2.3091,2.3091,2.3091,2.3091,2.3091,2.3091,2.3091,0.8999,0.9096,0.9181,0.0,0.0,0.0,0.0,0.0,0.0,0.0,0.0,0.0,0.0,0.0,0.0,1.5455,1.5737,1.5998,1.6271,1.6524,1.6842,1.7153,1.743,1.7608,1.7608,1.7608,1.7608,1.7608,1.7608,1.7608,1.7608,1.7608,1.7608,1.7608,1.7608,1.7608,1.7608,1.7608,1.7608,1.7608,1.7608,1.7608,1.7608,1.7608,1.7608,1.7608,1.7608,1.7608,1.7608,1.7608,1.7773,1.8016,1.8298,1.8593,1.8921,1.9201,1.92,1.9102,1.9102,1.9129,1.9234,1.951,1.9739,1.9996,2.0541,2.0848,2.1042,2.1325,2.154,2.1763,2.203,2.2451,2.2794,2.2803,2.2947,2.3091,2.3091,2.3091,2.3091,2.3091,2.3091,2.3091,2.3091,2.3091,2.3091,2.3091,2.3091,2.3091,2.3091,2.3091,2.3091,2.3091,2.3091,2.3091,2.3091,2.3091,2.3091,2.3091,2.3091,2.3091,2.3091,2.3091,2.3091,2.3091,2.3091,2.3091,2.3091,2.3091,2.3091,2.3091,2.3091,2.3091,0.8999,0.9096,0.0,0.0,0.0,0.0,0.0,0.0,0.0,0.0,0.0,0.0,0.0,0.0,0.0,1.5455,1.5737,1.6045,1.6524,1.6657,1.6889,1.743,1.7556,1.7608,1.7608,1.7608,1.7608,1.7608,1.7608,1.7608,1.7608,1.7608,1.7608,1.7608,1.7608,1.7608,1.7608,1.7608,1.7608,1.7608,1.7608,1.7608,1.7608,1.7608,1.7608,1.7608,1.7608,1.7608,1.7608,1.7608,1.7773,1.8016,1.8298,1.8593,1.8921,1.9201,1.9098,1.8839,1.9028,1.901,1.8966,1.9219,1.9585,1.9951,2.0314,2.0586,2.0826,2.1051,2.1293,2.1504,2.1593,2.1963,2.234,2.2485,2.2706,2.2882,2.2882,2.2991,2.3091,2.3091,2.3091,2.3091,2.3091,2.3091,2.3091,2.3091,2.3091,2.3091,2.3091,2.3091,2.3091,2.3091,2.3091,2.3091,2.3091,2.3091,2.3091,2.3091,2.3091,2.3091,2.3091,2.3091,2.3091,2.3091,2.3091,2.3091,2.3091,2.3091,2.3091,2.3091,2.3091,2.3091,0.8999,0.9166,0.0,0.0,0.0,0.0,0.0,0.0,0.0,0.0,0.0,0.0,0.0,0.0,0.0,1.561,1.5871,1.6211,1.665,1.6816,1.706,1.7529,1.7608,1.7608,1.7608,1.7608,1.7608,1.7608,1.7608,1.7608,1.7608,1.7608,1.7608,1.7608,1.7495,1.7434,1.7434,1.7321,1.7235,1.7235,1.7235,1.7235,1.7241,1.7501,1.7608,1.7608,1.7608,1.7608,1.7608,1.7608,1.7694,1.7878,1.8141,1.8429,1.8731,1.9018,1.8946,1.8716,1.8888,1.8827,1.872,1.8966,1.9302,1.97,2.0042,2.0337,2.0586,2.0826,2.1051,2.1271,2.1369,2.1616,2.1896,2.2198,2.2463,2.264,2.264,2.2816,2.2991,2.2991,2.3057,2.3091,2.3091,2.3091,2.3091,2.3091,2.3091,2.3091,2.3091,2.3091,2.3091,2.3091,2.3091,2.3091,2.3091,2.3091,2.3091,2.3091,2.3091,2.3091,2.3091,2.3091,2.3091,2.3091,2.3091,2.3091,2.3091,2.3091,2.3091,2.3091,2.3091,2.3091,0.9049,0.0,0.0,0.0,0.0,0.0,0.0,0.0,0.0,0.0,0.0,0.0,0.0,0.0,1.5589,1.5865,1.6131,1.6397,1.665,1.6981,1.7305,1.7556,1.7608,1.7608,1.7608,1.7608,1.7608,1.7608,1.7582,1.7568,1.7568,1.7541,1.7528,1.7528,1.7274,1.7159,1.7159,1.684,1.6707,1.6707,1.6707,1.6707,1.6727,1.7255,1.7528,1.7528,1.7528,1.7528,1.7528,1.7528,1.7528,1.7528,1.7804,1.8084,1.8364,1.8698,1.8735,1.8622,1.8646,1.8548,1.8481,1.8697,1.8943,1.9256,1.97,2.0019,2.0292,2.0564,2.0781,2.1006,2.128,2.1347,2.1491,2.1965,2.2226,2.2375,2.2375,2.2574,2.2772,2.2803,2.2947,2.3069,2.3091,2.3091,2.3091,2.3091,2.3091,2.3091,2.3091,2.3091,2.3091,2.3091,2.3091,2.3091,2.3091,2.3091,2.3091,2.3091,2.3091,2.3091,2.3091,2.3091,2.3091,2.3091,2.3091,2.3091,2.3091,2.3091,2.3091,2.3091,2.3091,2.3091,0.9276,0.9446,0.0,0.0,0.0,0.0,0.0,0.0,0.0,0.0,0.0,0.0,0.0,1.5261,1.5589,1.5865,1.6131,1.6397,1.665,1.6981,1.7305,1.7556,1.7608,1.7608,1.7608,1.7608,1.7608,1.7608,1.7394,1.7293,1.7293,1.7046,1.6894,1.6894,1.6834,1.68,1.68,1.674,1.6707,1.6707,1.6707,1.6707,1.6707,1.6834,1.6894,1.6894,1.6894,1.6894,1.6894,1.6894,1.6894,1.6919,1.7186,1.7457,1.7727,1.8017,1.8072,1.8022,1.823,1.8113,1.7962,1.8404,1.8697,1.8943,1.9256,1.9548,1.9808,1.9996,2.0246,2.0518,2.0767,2.097,2.1244,2.1862,2.2082,2.2163,2.2163,2.2331,2.2552,2.2759,2.2825,2.2904,2.3079,2.3091,2.3091,2.3091,2.3091,2.3091,2.3091,2.3091,2.3091,2.3091,2.3091,2.3091,2.3091,2.3091,2.3091,2.3091,2.3091,2.3091,2.3091,2.3091,2.3091,2.3091,2.3091,2.3091,2.3091,2.3091,2.3091,2.3091,2.3091,2.3091,0.0,0.0,0.0,0.0,0.0,0.0,0.0,0.0,0.0,0.0,0.0,0.0,1.4942,1.5414,1.5791,1.6057,1.6318,1.661,1.6902,1.7193,1.743,1.7582,1.7488,1.7401,1.7401,1.7274,1.7161,1.7161,1.7046,1.6966,1.6966,1.6787,1.6707,1.6707,1.6573,1.65,1.65,1.6353,1.6262,1.6262,1.6262,1.6262,1.6275,1.658,1.6707,1.6707,1.6707,1.6707,1.6707,1.6707,1.6707,1.6707,1.6864,1.7064,1.7338,1.7612,1.766,1.7654,1.7919,1.7879,1.7745,1.8032,1.8357,1.8697,1.8943,1.9196,1.9456,1.9685,1.9936,2.0221,2.0683,2.0947,2.125,2.1903,2.2052,2.2125,2.2419,2.2661,2.2866,2.3002,2.3219,2.3413,2.3516,2.3495,2.3435,2.3435,2.3227,2.3091,2.3091,2.3091,2.3091,2.3091,2.3091,2.3091,2.3091,2.3091,2.3091,2.3091,2.3091,2.3091,2.3091,2.3091,2.3091,2.3091,2.3091,2.3091,2.3091,2.3091,2.3091,2.3091,2.3091,2.3091,0.0,0.0,1.0622,1.14,0.0,0.0,0.0,0.0,0.0,0.0,0.0,1.4446,1.4933,1.5471,1.5911,1.6128,1.6438,1.6728,1.7003,1.7285,1.7428,1.7428,1.7247,1.71,1.71,1.6847,1.6707,1.6707,1.666,1.6627,1.6627,1.658,1.6528,1.6528,1.6319,1.6217,1.6217,1.5952,1.5808,1.5808,1.5808,1.5808,1.5821,1.6308,1.6528,1.6528,1.6528,1.6528,1.6528,1.6528,1.6528,1.6528,1.6528,1.6709,1.6963,1.7203,1.7288,1.7366,1.7575,1.7662,1.7628,1.7675,1.8009,1.8411,1.8596,1.8874,1.9127,1.9396,1.9666,2.0004,2.0602,2.0964,2.1312,2.1941,2.2067,2.2202,2.2731,2.3054,2.3242,2.3289,2.3682,2.4011,2.4011,2.3939,2.3896,2.3896,2.3571,2.3315,2.3315,2.3315,2.3315,2.3315,2.3247,2.323,2.323,2.3162,2.3091,2.3091,2.3091,2.3091,2.3091,2.3091,2.3091,2.3091,2.3091,2.3091,2.3091,2.3091,2.3091,2.3091,2.3091,2.3091,0.0,0.0,1.1439,0.0,0.0,0.0,0.0,0.0,0.0,0.0,1.4085,1.4392,1.4695,1.5199,1.5579,1.5605,1.6018,1.636,1.6411,1.6657,1.682,1.682,1.6787,1.6767,1.6767,1.6727,1.6707,1.6707,1.6473,1.6357,1.6357,1.6086,1.5921,1.5921,1.5888,1.5861,1.5861,1.5821,1.5808,1.5808,1.5808,1.5808,1.5808,1.5888,1.5921,1.5921,1.5921,1.5921,1.5921,1.5921,1.5921,1.5921,1.5921,1.6071,1.6317,1.6365,1.6646,1.7067,1.7091,1.7212,1.738,1.7628,1.7745,1.7861,1.811,1.8373,1.8635,1.8858,1.9306,1.9807,2.0114,2.0623,2.1199,2.1849,2.2177,2.238,2.2518,2.2762,2.3031,2.3242,2.3682,2.4011,2.4011,2.4181,2.4336,2.4336,2.4264,2.4225,2.4225,2.4225,2.4225,2.4225,2.3916,2.3701,2.3701,2.3337,2.3091,2.3091,2.3091,2.3091,2.3091,2.3091,2.3091,2.3091,2.3091,2.3091,2.3091,2.3091,2.3091,2.3091,2.3091,2.3091,1.0393,1.1033,1.154,0.0,1.2346,0.0,0.0,0.0,1.3612,1.3859,1.411,1.4386,1.4661,1.5149,1.5544,1.5702,1.6061,1.6344,1.6488,1.6632,1.6707,1.6707,1.656,1.6491,1.6491,1.6313,1.6195,1.6195,1.6099,1.6025,1.6025,1.5875,1.5808,1.5808,1.5808,1.5808,1.5808,1.5808,1.5808,1.5808,1.5808,1.5808,1.5808,1.5808,1.5808,1.5808,1.5808,1.5808,1.5808,1.5808,1.5808,1.5808,1.5808,1.5879,1.6004,1.6147,1.6343,1.6579,1.6713,1.6918,1.716,1.7284,1.7495,1.7721,1.7838,1.8071,1.8365,1.8785,1.9185,1.9629,2.0313,2.0809,2.127,2.1911,2.227,2.2526,2.273,2.311,2.3523,2.391,2.4142,2.4373,2.4694,2.4644,2.4607,2.4762,2.457,2.4391,2.4391,2.4391,2.4391,2.4391,2.4248,2.4141,2.4141,2.3942,2.3835,2.3835,2.361,2.3484,2.3484,2.3249,2.3091,2.3091,2.3091,2.3091,2.3091,2.3091,2.3091,2.3091,2.3091,2.3091,0.0,0.0,1.1636,1.224,1.2638,1.2934,0.0,0.0,1.3931,0.0,1.4208,1.4461,1.4667,1.5085,1.5494,1.5743,1.6023,1.6246,1.643,1.6455,1.6455,1.6455,1.6293,1.6159,1.6159,1.5959,1.5808,1.5808,1.5808,1.5808,1.5808,1.5808,1.5808,1.5808,1.5808,1.5808,1.5808,1.5808,1.5808,1.5808,1.5808,1.5808,1.5808,1.5808,1.5808,1.5808,1.5808,1.5808,1.5808,1.5808,1.5808,1.5808,1.5808,1.5808,1.5825,1.6028,1.6147,1.6224,1.643,1.6666,1.6902,1.6979,1.7238,1.7535,1.7581,1.7852,1.8223,1.8657,1.908,1.9572,2.0381,2.0864,2.1261,2.176,2.2148,2.256,2.3097,2.3522,2.392,2.4341,2.4464,2.4661,2.5113,2.501,2.4943,2.521,2.4961,2.4723,2.4723,2.4723,2.4723,2.4723,2.4648,2.458,2.458,2.4459,2.4391,2.4391,2.4121,2.3945,2.3945,2.361,2.3422,2.3422,2.3422,2.3305,2.3091,2.3091,2.3091,2.3091,2.3091,2.3091,0.0,1.148,0.0,1.2337,0.0,0.0,0.0,0.0,0.0,1.4232,1.449,1.467,1.4706,1.4923,1.5217,1.5473,1.5681,1.5824,1.5855,1.5848,1.5848,1.5848,1.5835,1.5828,1.5828,1.5815,1.5808,1.5808,1.5808,1.5808,1.5808,1.5808,1.5808,1.5808,1.5808,1.5808,1.5808,1.5808,1.5808,1.5808,1.5808,1.5808,1.5808,1.5808,1.5808,1.5808,1.5808,1.5808,1.5808,1.5808,1.5808,1.5808,1.5808,1.5808,1.5808,1.5832,1.5974,1.6201,1.6224,1.6407,1.6659,1.6932,1.7026,1.7073,1.7263,1.7718,1.82,1.8239,1.8892,1.9635,1.9967,2.0469,2.1003,2.1267,2.1751,2.2434,2.3522,2.378,2.3879,2.4152,2.4365,2.4587,2.4883,2.5118,2.5353,2.563,2.5659,2.5615,2.5615,2.5615,2.5615,2.5615,2.5293,2.5053,2.5053,2.4658,2.4391,2.4391,2.4371,2.4362,2.4362,2.4342,2.4332,2.4332,2.4332,2.3932,2.3091,2.3091,2.3091,2.3091,2.3091,2.3091,0.0,0.0,0.0,1.2503,1.3012,1.3418,1.369,1.3949,1.4184,1.4274,1.452,1.4742,1.4909,1.5172,1.538,1.5469,1.5659,1.5808,1.5808,1.5808,1.5808,1.5808,1.5808,1.5808,1.5808,1.5808,1.5808,1.5808,1.5808,1.5808,1.5808,1.5808,1.5808,1.5808,1.5808,1.5808,1.5808,1.5808,1.5808,1.5808,1.5808,1.5808,1.5808,1.5808,1.5808,1.5808,1.5808,1.5808,1.5808,1.5808,1.5808,1.5808,1.5808,1.5808,1.5808,1.5808,1.5855,1.595,1.595,1.6116,1.6359,1.6461,1.6595,1.6784,1.7043,1.7384,1.7802,1.8364,1.8917,1.9441,1.9934,2.0336,2.0745,2.1198,2.17,2.2249,2.2837,2.3422,2.3829,2.3929,2.4152,2.4365,2.4612,2.4858,2.5137,2.5416,2.5586,2.5693,2.5693,2.5693,2.5693,2.5693,2.5571,2.5498,2.5498,2.5328,2.524,2.524,2.499,2.4857,2.4857,2.456,2.4391,2.4391,2.4391,2.4108,2.3555,2.3555,2.3386,2.3091,2.3091,2.3091,1.0902,0.0,0.0,0.0,0.0,1.3563,1.3835,0.0,1.4322,1.4418,1.464,1.4909,1.5172,1.5428,1.5588,1.5588,1.5706,1.5808,1.5808,1.5808,1.5808,1.5808,1.5808,1.5808,1.5808,1.5808,1.5808,1.5808,1.5808,0.0,1.5808,1.5808,1.5808,1.5808,1.5808,1.5808,1.5808,1.5808,1.5808,1.5808,1.5808,1.5808,1.5808,1.5808,1.5808,1.5808,1.5808,1.5808,1.5808,1.5808,1.5808,1.5808,1.5808,1.5808,1.5808,1.5808,1.5808,1.5808,1.5808,1.5927,1.6076,1.6177,1.6312,1.6539,1.6881,1.7279,1.7715,1.8397,1.8921,1.9352,1.9845,2.0223,2.0617,2.107,2.1496,2.1928,2.2274,2.2987,2.3571,2.378,2.3954,2.4152,2.4455,2.4711,2.4981,2.526,2.5538,2.5693,2.5693,2.5693,2.5693,2.5693,2.5693,2.5693,2.5693,2.5693,2.5693,2.5693,2.5459,2.5293,2.5293,2.4986,2.484,2.484,2.484,2.4648,2.4242,2.4072,2.3825,2.3542,2.3542,2.3542,0.0,0.0,0.0,0.0,0.0,0.0,1.3859,0.0,1.437,1.464,1.4909,1.5172,1.5445,1.5666,1.5808,1.5808,1.5808,1.5808,1.5808,1.5808,1.5808,1.5808,1.5808,1.5808,1.5808,1.5808,1.5808,1.5808,1.5808,1.5808,1.5808,1.5808,1.5808,1.5808,1.5808,1.5808,1.5808,1.5808,1.5808,1.5808,1.5808,1.5808,1.5808,1.5808,1.5808,1.5808,1.5808,1.5808,1.5808,1.5808,1.5808,1.5808,1.5808,1.5808,1.5808,1.5808,1.5808,1.5808,1.5808,1.5808,1.5832,1.6099,1.6201,1.6303,1.6832,1.7415,1.7939,1.8278,1.8825,1.935,1.9628,2.0101,2.0539,2.0822,2.1096,2.1445,2.1971,2.256,2.3122,2.3671,2.3795,2.3954,2.4406,2.4711,2.4981,2.5235,2.5513,2.5684,2.5693,2.5693,2.5693,2.5693,2.5693,2.5693,2.5693,2.5693,2.5693,2.5693,2.5693,2.5693,2.5693,2.5693,2.5693,2.5693,2.5693,2.5503,2.5112,2.4648,2.4401,2.4391,2.4391,2.4391,1.076,0.0,0.0,0.0,0.0,0.0,1.404,1.425,1.437,1.464,1.4909,1.5172,1.5445,1.5666,1.5808,1.5808,1.5808,1.5808,1.5808,1.5808,1.5808,1.5808,1.5808,1.5808,1.5808,1.5808,1.5808,0.0,1.5808,1.5808,1.5808,1.5808,1.5808,1.5808,1.5808,1.5808,1.5808,1.5808,1.5808,1.5808,1.5808,1.5808,1.5808,1.5808,1.5808,1.5808,1.5808,1.5808,1.5808,1.5808,1.5808,1.5808,1.5808,1.5808,1.5808,1.5808,1.5808,1.5808,1.5808,1.5808,1.5808,1.5879,1.5903,1.6011,1.6604,1.7029,1.7432,1.7967,1.8541,1.9123,1.9576,1.9809,2.0042,2.0488,2.0822,2.1173,2.17,2.2106,2.2585,2.3347,2.368,2.3904,2.4217,2.4464,2.4711,2.4981,2.5235,2.5489,2.5684,2.5693,2.5693,2.5693,2.5693,2.5693,2.5693,2.5693,2.5693,2.5693,2.5693,2.5693,2.5693,2.5693,2.5693,2.5693,2.5693,2.565,2.5532,2.5107,2.4727,2.4391,2.4391,2.4391,0.0,0.0,0.0,0.0,0.0,0.0,1.398,1.422,1.437,0.0,1.4909,1.5172,1.5445,1.5666,1.5808,1.5808,1.5808,1.5808,1.5808,1.5808,1.5808,1.5808,1.5808,1.5808,1.5808,1.5808,1.5808,1.5808,1.5808,1.5808,1.5808,1.5808,1.5808,1.5808,1.5808,1.5808,1.5808,1.5808,1.5808,1.5808,1.5808,1.5808,1.5808,1.5808,1.5808,1.5808,1.5808,1.5808,1.5808,1.5808,1.5808,1.5808,1.5808,1.5808,1.5808,1.5808,1.5808,1.5808,1.5808,1.5808,1.5808,1.5808,1.5808,1.5912,1.6528,1.6885,1.7234,1.7839,1.8433,1.9,1.9428,1.9628,1.9809,2.0223,2.0539,2.0873,2.142,2.1751,2.2182,2.3071,2.3456,2.373,2.3978,2.4291,2.4578,2.4858,2.5137,2.5416,2.5669,2.5693,2.5693,2.5693,2.5693,2.5693,2.5693,2.5693,2.5693,2.5693,2.5693,2.5693,2.5693,2.5693,2.5693,2.5693,2.5693,2.5693,2.5693,2.5454,2.5215,2.4947,2.4947,2.4947,0.0,0.0,0.0,0.0,0.0,0.0,1.3777,1.4087,1.4334,1.4634,1.4885,1.5148,1.5452,1.5659,1.5784,1.5808,1.5808,1.5808,1.5808,1.5808,1.5808,1.5808,1.5808,1.5808,1.5808,1.5808,1.5808,1.5808,1.5808,1.5808,1.5808,1.5808,1.5808,1.5808,1.5808,1.5808,1.5808,1.5808,1.5808,1.5808,1.5808,1.5808,1.5808,1.5808,1.5808,1.5808,1.5808,1.5808,1.5808,1.5808,1.5808,1.5808,1.5808,1.5808,1.5808,1.5808,1.5808,1.5808,1.5808,1.5808,1.5808,1.5808,1.5828,1.5961,1.654,1.6884,1.7241,1.7833,1.8417,1.8921,1.9175,1.9454,1.9732,1.9983,2.0248,2.0591,2.1147,2.1504,2.1928,2.2745,2.3172,2.3506,2.3746,2.4168,2.4563,2.4858,2.5113,2.5357,2.5659,2.5693,2.5693,2.5693,2.5693,2.5693,2.5693,2.5693,2.5693,2.5693,2.5693,2.5693,2.5693,2.5693,2.5693,2.5693,2.5693,2.5693,2.5693,2.5693,2.5693,2.5693,2.5693,2.5693,0.0,0.0,0.0,0.0,0.0,0.0,1.3693,1.3948,1.4115,1.4597,1.4742,1.4927,1.5397,1.554,1.5611,1.5784,1.5808,1.5808,1.5808,1.5808,1.5808,1.5808,1.5808,1.5808,1.5808,1.5808,1.5808,1.5808,1.5808,1.5808,1.5808,1.5808,1.5808,1.5808,1.5808,1.5808,1.5808,1.5808,1.5808,1.5808,1.5808,1.5808,1.5808,1.5808,1.5808,1.5808,1.5808,1.5808,1.5808,1.5808,1.5808,1.5808,1.5808,1.5808,1.5808,1.5808,1.5808,1.5808,1.5808,1.5808,1.5808,1.5808,1.5992,1.6253,1.66,1.6924,1.7295,1.7862,1.8246,1.856,1.8888,1.9175,1.9454,1.9706,1.9983,2.0318,2.0865,2.1351,2.1801,2.2207,2.2887,2.3506,2.3746,2.4053,2.4399,2.4843,2.4932,2.5162,2.5635,2.5693,2.5693,2.5693,2.5693,2.5693,2.5693,2.5693,2.5693,2.5693,2.5693,2.5693,2.5693,2.5693,2.5693,2.5693,2.5693,2.5693,2.5693,2.5693,2.5693,2.5693,2.5693,2.5693,0.0,0.0,0.0,1.1892,0.0,0.0,0.0,1.365,1.3989,1.4246,1.4523,1.4783,1.5046,1.5326,1.554,1.5635,1.573,1.5808,1.5808,1.5808,1.5808,1.5808,1.5808,1.5808,1.5808,1.5808,1.5808,1.5808,1.5808,1.5808,1.5808,1.5808,1.5808,1.5808,1.5808,1.5808,1.5808,1.5808,1.5808,1.5808,1.5808,1.5808,1.5808,1.5808,1.5808,1.5808,1.5808,1.5808,1.5808,1.5808,1.5808,1.5808,1.5808,1.5808,1.5808,1.5808,1.5808,1.5808,1.5808,1.5808,1.5808,1.5808,1.6032,1.6351,1.662,1.704,1.7473,1.7897,1.8193,1.8475,1.8817,1.9104,1.9383,1.9628,1.9905,2.0215,2.0617,2.1224,2.1751,2.1869,2.2711,2.3447,2.3571,2.3929,2.435,2.4833,2.4907,2.5079,2.5635,2.5693,2.5693,2.5693,2.5693,2.5693,2.5693,2.5693,2.5693,2.5693,2.5693,2.5693,2.5693,2.5693,2.5693,2.5693,2.5693,2.5693,2.5693,2.5693,2.5693,2.5693,2.5693,2.5693,0.0,0.0,0.0,0.0,0.0,1.2357,0.0,0.0,0.0,1.3798,1.4209,0.0,0.0,0.0,0.0,0.0,0.0,0.0,0.0,1.573,0.0,1.5808,1.5808,1.5808,1.5808,1.5808,1.5808,1.5808,1.5808,1.5808,1.5808,1.5808,1.5808,1.5808,1.5808,1.5808,1.5808,1.5808,1.5808,1.5808,1.5808,1.5808,1.5808,1.5808,1.5808,1.5808,1.5808,1.5808,1.5808,1.5808,1.5808,1.5808,1.5808,1.5808,1.5808,1.5808,1.5808,1.5808,1.5808,1.5808,1.5815,1.5875,1.6152,1.6518,1.6787,1.7208,1.7635,1.7852,1.8115,1.8403,1.8731,1.9018,1.9298,1.955,1.9879,2.0163,2.0385,2.1096,2.17,2.17,2.2611,2.3397,2.3397,2.3854,2.435,2.4833,2.4907,2.5079,2.5635,2.5693,2.5693,2.5693,2.5693,2.5693,2.5693,2.5693,2.5693,2.5693,2.5693,2.5693,2.5693,2.5693,2.5693,2.5693,2.5693,2.5693,2.5693,2.5693,2.5693,2.5693,2.5693,2.5693,0.0,0.0,0.0,0.0,1.1554,0.0,0.0,0.0,1.3033,1.3468,0.0,0.0,0.0,0.0,0.0,0.0,0.0,0.0,1.5499,1.554,1.5588,1.5784,1.5808,1.5808,1.5808,1.5808,1.5808,1.5808,1.5808,1.5808,1.5808,1.5808,1.5808,1.5808,1.5808,1.5808,1.5808,1.5808,1.5808,1.5808,1.5808,1.5808,1.5808,1.5808,1.5808,1.5808,1.5808,1.5808,1.5808,1.5808,1.5808,1.5808,1.5808,1.5808,1.5808,1.5808,1.5808,1.5808,1.5808,1.5808,1.5848,1.6163,1.6625,1.7159,1.7421,1.7555,1.7608,1.7635,1.7852,1.8122,1.8403,1.8698,1.9,1.9279,1.9732,2.0112,2.0138,2.096,2.17,2.17,2.2611,2.3397,2.3397,2.3854,2.435,2.4833,2.4907,2.5079,2.5635,2.5693,2.5693,2.5693,2.5693,2.5693,2.5693,2.5693,2.5693,2.5693,2.5693,2.5693,2.5693,2.5693,2.5693,2.5693,2.5693,2.5693,2.5693,2.5693,2.5693,2.5693,2.5693,2.5693,0.0,0.0,0.0,0.0,0.0,0.0,1.2066,0.0,1.287,0.0,0.0,0.0,0.0,0.0,0.0,0.0,1.4904,0.0,0.0,0.0,1.5404,0.0,0.0,0.0,1.5808,1.5808,1.5808,1.5808,1.5808,1.5808,1.5808,1.5808,1.5808,1.5808,1.5808,1.5808,1.5808,1.5808,1.5808,1.5808,1.5808,1.5808,1.5808,1.5808,1.5808,1.5808,1.5808,1.5808,1.5808,1.5808,1.5808,1.5808,1.5808,1.5808,1.5808,1.5808,1.5808,1.5808,1.5808,1.5808,1.5881,1.6373,1.6832,1.7253,1.7521,1.7608,1.7608,1.7608,1.7799,1.8069,1.8318,1.8646,1.8974,1.9253,1.9706,2.0104,2.0104,2.0926,2.17,2.17,2.2485,2.3222,2.3372,2.3854,2.4301,2.4612,2.4809,2.5039,2.5416,2.5586,2.5693,2.5693,2.5693,2.5693,2.5693,2.5693,2.5693,2.5693,2.5693,2.5693,2.5693,2.5693,2.5693,2.5693,2.5693,2.5693,2.5693,2.5693,2.5693,2.5693,2.5693,2.5693,0.9994,0.0,0.0,0.0,0.0,0.0,0.0,0.0,0.0,0.0,0.0,0.0,0.0,0.0,0.0,0.0,0.0,1.4802,0.0,1.4937,0.0,0.0,0.0,0.0,0.0,1.5808,1.5808,1.5808,1.5808,1.5808,1.5808,1.5808,1.5808,1.5808,1.5808,1.5808,1.5808,1.5808,1.5808,1.5808,1.5808,1.5808,1.5808,1.5808,1.5808,1.5808,1.5808,1.5808,1.5808,1.5808,1.5808,1.5808,1.5808,1.5808,1.5808,1.5808,1.5808,1.5808,1.5808,1.5908,1.6128,1.666,1.7053,1.736,1.7541,1.7608,1.7608,1.7608,1.7747,1.7957,1.8318,1.8586,1.8862,1.9201,1.9706,2.0104,2.0104,2.0883,2.1623,2.17,2.2333,2.2971,2.3347,2.378,2.4177,2.4464,2.4735,2.5005,2.526,2.5538,2.5693,2.5693,2.5693,2.5693,2.5693,2.5693,2.5693,2.5693,2.5693,2.5693,2.5693,2.5693,2.5693,2.5693,2.5693,2.5693,2.5693,2.5693,2.5693,2.5693,2.5693,2.5693,0.0,0.0,0.0,1.0641,0.0,0.0,0.0,0.0,1.1796,0.0,0.0,0.0,0.0,0.0,0.0,0.0,0.0,0.0,0.0,0.0,0.0,0.0,0.0,0.0,0.0,1.5808,1.5808,0.0,1.5808,1.5808,1.5808,1.5808,1.5808,1.5808,1.5808,1.5808,1.5808,1.5808,1.5808,1.5808,1.5808,1.5808,1.5808,1.5808,1.5808,1.5808,1.5808,1.5808,1.5808,1.5808,1.5808,1.5808,1.5808,1.5808,1.5808,1.5808,1.5808,1.5808,1.5808,1.6175,1.6727,1.706,1.7361,1.7595,1.7608,1.7608,1.7608,1.7608,1.7608,1.774,1.8265,1.8396,1.856,1.9168,1.9706,2.0104,2.0104,2.0755,2.1402,2.1649,2.2148,2.2703,2.3297,2.363,2.3969,2.443,2.4735,2.5005,2.526,2.5538,2.5693,2.5693,2.5693,2.5693,2.5693,2.5693,2.5693,2.5693,2.5693,2.5693,2.5693,2.5693,2.5693,2.5693,2.5693,2.5693,2.5693,2.5693,2.5693,2.5693,2.5693,2.5693,0.0,0.0,0.9929,1.0337,0.0,0.0,0.0,0.0,0.0,0.0,0.0,0.0,0.0,0.0,0.0,0.0,0.0,0.0,0.0,0.0,0.0,0.0,0.0,0.0,0.0,0.0,0.0,0.0,1.5808,0.0,1.5808,1.5808,1.5808,1.5808,1.5808,1.5808,1.5808,1.5808,1.5808,1.5808,1.5808,1.5808,1.5808,1.5808,1.5808,1.5808,1.5808,1.5808,1.5808,1.5808,1.5808,1.5808,1.5808,1.5808,1.5808,1.5808,1.5808,1.5835,1.6052,1.6531,1.704,1.7166,1.7367,1.7608,1.7608,1.7608,1.7608,1.7608,1.7608,1.7714,1.8265,1.8396,1.8553,1.9168,1.9576,1.9879,2.0053,2.0575,2.1173,2.1623,2.2004,2.2485,2.3272,2.3472,2.3696,2.4217,2.4637,2.4932,2.5005,2.5416,2.5693,2.5693,2.5693,2.5693,2.5693,2.5693,2.5693,2.5693,2.5693,2.5693,2.5693,2.5693,2.5693,2.5693,2.5693,2.5693,2.5693,2.5693,2.5693,2.5693,2.5693,2.5693,0.895,0.9273,0.0,1.0084,1.0381,0.0,1.0851,0.0,1.144,0.0,0.0,0.0,0.0,0.0,0.0,0.0,0.0,0.0,0.0,1.3656,0.0,0.0,0.0,0.0,0.0,0.0,0.0,1.5778,1.5808,1.5808,0.0,1.5808,1.5808,1.5808,1.5808,1.5808,1.5808,1.5808,1.5808,1.5808,1.5808,1.5808,1.5808,1.5808,1.5808,1.5808,1.5808,1.5808,1.5808,1.5808,1.5808,1.5808,1.5808,1.5808,1.5808,1.5808,1.5875,1.6025,1.6326,1.6765,1.7219,1.732,1.7454,1.7608,1.7608,1.7608,1.7608,1.7608,1.7608,1.7714,1.8141,1.8325,1.8527,1.9045,1.9428,1.9776,2.0034,2.0454,2.0942,2.1573,2.1852,2.2257,2.3222,2.3397,2.3571,2.4127,2.4587,2.4907,2.4907,2.5367,2.5693,2.5693,2.5693,2.5693,2.5693,2.5693,2.5693,2.5693,2.5693,2.5693,2.5693,2.5693,2.5693,2.5693,2.5693,2.5693,2.5693,2.5693,2.5693,2.5693,2.5693,2.5693]},{"header":{"parameterUnit":"m.s-1","parameterCategory":1,"la1":30.6,"la2":29.2853,"lo1":-89.7004,"lo2":-87.6739,"dy":0.0162,"dx":0.0183,"nx":112,"ny":82,"refTime":"2024-02-14T06:00:00:Z","depth":0,"parameterNumber":3,"parameterNumberName":"V-component_of_WINDS"},"data":[0.0,0.0,0.0,0.0,0.0,0.0,0.0,0.0,0.0,0.0,0.0,0.0,0.0,0.0,0.0,0.0,0.0,0.0,0.0,0.0,0.0,0.0,0.0,0.0,0.0,0.0,0.0,0.0,0.0,0.0,0.0,0.0,0.0,0.0,0.0,0.0,0.0,0.0,0.0,0.0,0.0,0.0,0.0,0.0,0.0,0.0,0.0,0.0,0.0,0.0,0.0,0.0,0.0,0.0,0.0,0.0,0.0,0.0,0.0,0.0,0.0,0.0,0.0,0.0,0.0,0.0,0.0,0.0,0.0,0.0,0.0,0.0,0.0,0.0,0.0,0.0,0.0,0.0,0.0,0.0,0.0,0.0,0.0,0.0,0.0,0.0,0.0,0.0,0.0,0.0,0.0,2.1559,2.1403,2.1293,2.1293,2.1293,2.1293,2.1293,0.0,0.0,0.0,0.0,0.0,0.0,0.0,0.0,0.0,0.0,0.0,0.0,0.0,0.0,0.0,0.0,0.0,0.0,0.0,0.0,0.0,0.0,0.0,0.0,0.0,0.0,0.0,0.0,0.0,0.0,0.0,0.0,0.0,0.0,0.0,0.0,0.0,0.0,0.0,0.0,0.0,0.0,0.0,0.0,0.0,0.0,0.0,0.0,0.0,0.0,0.0,0.0,0.0,0.0,0.0,0.0,0.0,0.0,0.0,0.0,0.0,0.0,0.0,0.0,0.0,0.0,0.0,0.0,0.0,0.0,0.0,0.0,0.0,0.0,0.0,0.0,0.0,0.0,0.0,0.0,0.0,0.0,0.0,0.0,0.0,0.0,0.0,0.0,0.0,0.0,0.0,0.0,0.0,0.0,0.0,0.0,0.0,0.0,0.0,0.0,0.0,0.0,0.0,0.0,2.1527,2.1356,2.1325,2.1293,2.1293,2.1293,2.1293,2.1293,0.0,0.0,0.0,0.0,0.0,0.0,0.0,0.0,0.0,0.0,0.0,0.0,0.0,0.0,0.0,0.0,0.0,0.0,0.0,0.0,0.0,0.0,0.0,0.0,0.0,0.0,0.0,0.0,0.0,0.0,0.0,0.0,0.0,0.0,0.0,0.0,0.0,0.0,0.0,0.0,0.0,0.0,0.0,0.0,0.0,0.0,0.0,0.0,0.0,0.0,0.0,0.0,0.0,0.0,0.0,0.0,0.0,0.0,0.0,0.0,0.0,0.0,0.0,0.0,0.0,0.0,0.0,0.0,0.0,0.0,0.0,0.0,0.0,0.0,0.0,0.0,0.0,0.0,0.0,0.0,0.0,0.0,0.0,0.0,0.0,0.0,0.0,0.0,0.0,0.0,0.0,0.0,0.0,0.0,0.0,0.0,0.0,0.0,0.0,0.0,0.0,0.0,0.0,2.1702,2.1534,2.1379,2.1317,2.1293,2.1293,2.1293,2.1293,2.1293,2.1434,0.0,0.0,0.0,0.0,0.0,0.0,0.0,0.0,0.0,0.0,0.0,0.0,0.0,0.0,0.0,0.0,0.0,0.0,0.0,0.0,0.0,0.0,0.0,0.0,0.0,0.0,0.0,0.0,0.0,0.0,0.0,0.0,0.0,0.0,0.0,0.0,0.0,0.0,0.0,0.0,0.0,0.0,0.0,0.0,0.0,0.0,0.0,0.0,0.0,0.0,0.0,0.0,0.0,0.0,0.0,0.0,0.0,0.0,0.0,0.0,0.0,0.0,0.0,0.0,0.0,0.0,0.0,0.0,0.0,0.0,0.0,0.0,0.0,0.0,0.0,0.0,0.0,0.0,0.0,0.0,0.0,0.0,0.0,0.0,0.0,0.0,0.0,0.0,0.0,0.0,0.0,0.0,0.0,0.0,0.0,0.0,0.0,0.0,0.0,0.0,0.0,0.0,2.1649,2.155,2.1409,2.134,2.1293,2.1293,2.1293,2.1293,2.1293,2.1481,0.0,0.0,0.0,0.0,0.0,0.0,0.0,0.0,0.0,0.0,0.0,0.0,0.0,0.0,0.0,0.0,0.0,0.0,0.0,0.0,0.0,0.0,0.0,0.0,0.0,0.0,0.0,0.0,0.0,0.0,0.0,0.0,0.0,0.0,0.0,0.0,0.0,0.0,0.0,0.0,0.0,0.0,0.0,0.0,0.0,0.0,0.0,0.0,0.0,0.0,0.0,0.0,0.0,0.0,0.0,0.0,0.0,0.0,0.0,0.0,0.0,0.0,0.0,0.0,0.0,0.0,0.0,0.0,0.0,0.0,0.0,0.0,0.0,0.0,0.0,0.0,0.0,0.0,0.0,0.0,0.0,0.0,0.0,0.0,0.0,0.0,0.0,0.0,0.0,0.0,0.0,0.0,0.0,0.0,0.0,0.0,0.0,0.0,0.0,0.0,0.0,0.0,2.1679,2.155,2.1409,2.134,2.1293,2.1293,2.1293,2.1293,2.1293,2.1481,0.0,0.0,0.0,0.0,0.0,0.0,0.0,0.0,0.0,0.0,0.0,0.0,0.0,0.0,0.0,0.0,0.0,0.0,0.0,0.0,0.0,0.0,0.0,0.0,0.0,0.0,0.0,0.0,0.0,0.0,0.0,0.0,0.0,0.0,0.0,0.0,0.0,0.0,0.0,0.0,0.0,0.0,0.0,0.0,0.0,0.0,0.0,0.0,0.0,0.0,0.0,0.0,0.0,0.0,0.0,0.0,0.0,0.0,0.0,0.0,0.0,0.0,0.0,0.0,0.0,0.0,0.0,0.0,0.0,0.0,0.0,0.0,0.0,0.0,0.0,0.0,0.0,0.0,0.0,0.0,0.0,0.0,0.0,0.0,0.0,0.0,0.0,0.0,0.0,0.0,0.0,0.0,0.0,0.0,0.0,0.0,0.0,0.0,0.0,0.0,0.0,0.0,2.1717,2.1589,0.0,2.1395,2.1293,2.1293,2.1293,2.1317,2.1371,0.0,0.0,0.0,0.0,0.0,0.0,0.0,0.0,0.0,0.0,0.0,0.0,0.0,0.0,0.0,0.0,0.0,0.0,0.0,0.0,0.0,0.0,0.0,0.0,0.0,0.0,0.0,0.0,0.0,0.0,0.0,0.0,0.0,0.0,0.0,0.0,0.0,0.0,0.0,0.0,0.0,0.0,0.0,0.0,0.0,0.0,0.0,0.0,0.0,0.0,0.0,0.0,0.0,0.0,0.0,0.0,0.0,0.0,0.0,0.0,0.0,0.0,0.0,0.0,0.0,0.0,0.0,0.0,0.0,0.0,0.0,0.0,0.0,0.0,0.0,0.0,0.0,0.0,0.0,0.0,0.0,0.0,0.0,0.0,0.0,0.0,0.0,0.0,0.0,0.0,0.0,0.0,0.0,0.0,0.0,0.0,0.0,0.0,0.0,0.0,0.0,0.0,2.194,2.1753,2.1611,0.0,2.1442,2.1324,2.1293,2.1317,2.1356,2.1394,0.0,0.0,0.0,0.0,0.0,0.0,0.0,0.0,0.0,0.0,0.0,0.0,0.0,0.0,0.0,0.0,0.0,0.0,0.0,0.0,0.0,0.0,0.0,0.0,0.0,0.0,0.0,0.0,0.0,0.0,0.0,0.0,0.0,0.0,0.0,0.0,0.0,0.0,0.0,0.0,0.0,0.0,0.0,0.0,0.0,0.0,0.0,0.0,0.0,0.0,0.0,0.0,0.0,0.0,0.0,0.0,0.0,0.0,0.0,0.0,0.0,0.0,0.0,0.0,0.0,0.0,0.0,0.0,0.0,0.0,0.0,0.0,0.0,0.0,0.0,0.0,0.0,0.0,0.0,0.0,0.0,0.0,0.0,0.0,0.0,0.0,0.0,0.0,0.0,0.0,0.0,0.0,0.0,0.0,0.0,0.0,0.0,0.0,0.0,0.0,0.0,0.0,2.2006,2.1842,2.1679,2.1612,2.148,2.1387,2.1309,2.1355,2.1402,0.0,0.0,0.0,0.0,0.0,0.0,0.0,0.0,0.0,0.0,0.0,0.0,0.0,0.0,0.0,0.0,0.0,0.0,0.0,0.0,0.0,0.0,0.0,0.0,0.0,0.0,0.0,0.0,0.0,0.0,0.0,0.0,0.0,0.0,0.0,0.0,0.0,0.0,0.0,0.0,0.0,0.0,0.0,0.0,0.0,0.0,0.0,0.0,0.0,0.0,0.0,0.0,0.0,0.0,0.0,0.0,0.0,0.0,0.0,0.0,0.0,0.0,0.0,0.0,0.0,0.0,0.0,0.0,0.0,0.0,0.0,0.0,0.0,0.0,0.0,0.0,0.0,0.0,0.0,0.0,0.0,0.0,0.0,0.0,0.0,0.0,0.0,0.0,0.0,0.0,0.0,0.0,0.0,0.0,0.0,0.0,0.0,0.0,0.0,0.0,0.0,0.0,0.0,2.202,2.1869,2.1738,2.1679,2.1588,2.1534,2.1511,2.1527,2.1565,2.161,0.0,0.0,0.0,0.0,0.0,0.0,0.0,0.0,0.0,0.0,0.0,0.0,0.0,0.0,0.0,0.0,0.0,0.0,0.0,0.0,0.0,0.0,0.0,0.0,0.0,0.0,0.0,0.0,0.0,0.0,0.0,0.0,0.0,0.0,0.0,0.0,0.0,0.0,0.0,0.0,0.0,0.0,0.0,0.0,0.0,0.0,0.0,0.0,0.0,0.0,0.0,0.0,0.0,0.0,0.0,0.0,0.0,0.0,0.0,0.0,0.0,0.0,0.0,0.0,0.0,0.0,0.0,0.0,0.0,0.0,0.0,0.0,0.0,0.0,0.0,0.0,0.0,0.0,0.0,0.0,0.0,0.0,0.0,0.0,0.0,0.0,0.0,0.0,0.0,0.0,0.0,0.0,0.0,0.0,0.0,0.0,0.0,0.0,0.0,0.0,0.0,0.0,2.2027,2.1913,2.1796,2.1717,2.1664,2.1635,2.1604,2.1611,2.1656,2.1702,0.0,0.0,0.0,0.0,0.0,0.0,0.0,0.0,0.0,0.0,0.0,0.0,0.0,0.0,0.0,0.0,0.0,0.0,0.0,0.0,0.0,0.0,0.0,0.0,0.0,0.0,0.0,0.0,0.0,0.0,0.0,0.0,0.0,0.0,0.0,0.0,0.0,0.0,0.0,0.0,0.0,0.0,0.0,0.0,0.0,0.0,0.0,0.0,0.0,0.0,0.0,0.0,0.0,0.0,0.0,0.0,0.0,0.0,0.0,0.0,0.0,0.0,0.0,0.0,0.0,0.0,0.0,0.0,0.0,0.0,0.0,0.0,0.0,0.0,0.0,0.0,0.0,0.0,0.0,0.0,0.0,0.0,0.0,0.0,0.0,0.0,0.0,0.0,0.0,0.0,0.0,0.0,0.0,0.0,0.0,0.0,0.0,0.0,0.0,0.0,0.0,0.0,2.2152,2.1998,2.1862,2.1723,2.1708,2.1687,2.1611,2.1672,2.1717,2.1715,0.0,0.0,0.0,0.0,0.0,0.0,0.0,0.0,0.0,0.0,0.0,0.0,0.0,0.0,0.0,0.0,0.0,0.0,0.0,0.0,0.0,0.0,0.0,0.0,0.0,0.0,0.0,0.0,0.0,0.0,0.0,0.0,0.0,0.0,0.0,0.0,0.0,0.0,0.0,0.0,0.0,0.0,0.0,0.0,0.0,0.0,0.0,0.0,0.0,0.0,0.0,0.0,0.0,0.0,0.0,0.0,0.0,0.0,0.0,0.0,3.0399,0.0,0.0,0.0,0.0,0.0,0.0,0.0,0.0,0.0,0.0,0.0,0.0,0.0,0.0,0.0,0.0,0.0,0.0,0.0,0.0,0.0,0.0,0.0,0.0,0.0,0.0,0.0,0.0,0.0,0.0,0.0,0.0,0.0,0.0,0.0,0.0,0.0,0.0,0.0,0.0,0.0,2.3053,2.242,2.1948,2.1869,2.1803,2.1775,2.176,2.1775,2.1805,2.1855,2.1869,0.0,0.0,0.0,0.0,0.0,0.0,0.0,0.0,0.0,0.0,0.0,0.0,0.0,0.0,0.0,0.0,0.0,0.0,0.0,0.0,0.0,0.0,0.0,0.0,0.0,0.0,0.0,0.0,0.0,0.0,0.0,0.0,0.0,0.0,0.0,0.0,0.0,0.0,0.0,0.0,0.0,0.0,0.0,0.0,0.0,0.0,0.0,0.0,0.0,0.0,0.0,0.0,0.0,0.0,0.0,0.0,0.0,0.0,0.0,0.0,3.1267,0.0,0.0,0.0,0.0,0.0,0.0,0.0,0.0,0.0,0.0,0.0,0.0,0.0,0.0,0.0,0.0,0.0,0.0,0.0,0.0,0.0,0.0,0.0,0.0,0.0,0.0,0.0,0.0,0.0,0.0,0.0,0.0,0.0,0.0,0.0,0.0,0.0,0.0,0.0,0.0,2.3895,2.3139,2.2604,2.2523,2.2115,2.1862,2.1882,2.1869,2.1877,2.194,2.1948,0.0,0.0,0.0,0.0,0.0,0.0,0.0,0.0,0.0,0.0,0.0,0.0,0.0,0.0,0.0,0.0,0.0,0.0,0.0,0.0,0.0,0.0,0.0,0.0,0.0,0.0,0.0,0.0,0.0,0.0,0.0,0.0,0.0,0.0,0.0,0.0,0.0,0.0,0.0,0.0,0.0,0.0,0.0,0.0,0.0,0.0,0.0,0.0,0.0,0.0,0.0,0.0,0.0,3.3707,3.3592,3.3436,3.3317,3.3161,3.301,3.301,3.2809,3.2479,3.2345,0.0,0.0,0.0,0.0,0.0,0.0,0.0,0.0,0.0,0.0,0.0,0.0,0.0,0.0,0.0,0.0,0.0,0.0,0.0,0.0,0.0,0.0,0.0,0.0,2.8918,2.8724,2.8455,0.0,0.0,0.0,0.0,0.0,0.0,0.0,0.0,0.0,0.0,0.0,2.4732,2.4007,2.3468,2.3417,2.2631,2.2158,2.2207,2.2031,2.1948,2.2037,2.202,2.2089,0.0,0.0,0.0,0.0,0.0,0.0,0.0,0.0,0.0,0.0,0.0,0.0,0.0,0.0,0.0,0.0,0.0,0.0,0.0,0.0,0.0,0.0,0.0,0.0,0.0,0.0,0.0,0.0,0.0,0.0,0.0,0.0,3.3012,3.3126,0.0,0.0,0.0,0.0,0.0,0.0,0.0,0.0,0.0,0.0,0.0,0.0,0.0,3.7408,3.7358,3.734,3.732,3.7233,3.7175,3.6746,3.6012,3.5923,3.5453,3.4688,3.4688,0.0,3.24,3.2336,0.0,0.0,0.0,0.0,0.0,0.0,0.0,0.0,0.0,0.0,0.0,0.0,0.0,0.0,0.0,0.0,0.0,0.0,0.0,0.0,0.0,0.0,3.0718,3.0013,2.9736,2.9413,0.0,2.8411,2.8345,2.814,2.8049,0.0,0.0,0.0,0.0,0.0,0.0,0.0,2.556,2.4798,2.4257,2.4249,2.3508,2.302,2.3035,2.2383,2.2037,2.2168,2.2176,2.2204,2.2282,2.2345,0.0,0.0,0.0,0.0,0.0,0.0,0.0,0.0,0.0,0.0,0.0,0.0,0.0,0.0,0.0,0.0,0.0,0.0,0.0,0.0,0.0,0.0,0.0,0.0,0.0,0.0,0.0,0.0,0.0,3.3507,3.4208,3.4701,3.5161,3.5624,0.0,0.0,0.0,0.0,0.0,0.0,0.0,0.0,0.0,3.8138,3.8073,3.8028,3.7991,3.7966,3.7912,3.7849,3.7783,3.7536,3.7163,3.7071,3.6787,3.6402,3.6339,3.5853,3.5083,3.4114,3.3678,3.358,0.0,0.0,0.0,0.0,3.227,3.1794,3.1794,3.1708,3.1591,3.1591,0.0,0.0,0.0,0.0,0.0,0.0,0.0,0.0,0.0,0.0,3.1101,3.0754,3.0566,3.0335,2.9847,2.9741,2.9441,0.0,2.8071,2.7947,2.7782,0.0,0.0,0.0,0.0,2.6496,2.6447,2.5648,2.507,2.507,2.435,2.3713,2.3347,2.2956,2.2586,2.228,2.2264,2.2282,2.2342,2.2377,2.2419,0.0,0.0,0.0,0.0,0.0,0.0,0.0,0.0,0.0,0.0,0.0,0.0,0.0,0.0,0.0,0.0,0.0,0.0,0.0,0.0,0.0,0.0,0.0,0.0,0.0,0.0,0.0,0.0,3.5019,3.5818,3.6462,3.7048,3.7661,0.0,0.0,0.0,0.0,0.0,0.0,3.8466,3.8424,3.8479,3.8684,3.8642,3.8608,3.8608,3.8521,3.8459,3.841,3.8339,3.8208,3.7976,3.7851,3.7673,3.744,3.7337,3.7287,3.7181,3.5923,3.5364,3.53,3.5195,3.4723,3.4106,3.3837,3.3314,3.2698,3.2477,3.2302,3.2201,3.2182,3.2102,3.2015,3.2015,0.0,0.0,0.0,0.0,3.2015,3.2015,3.1905,3.1757,3.1563,3.1402,3.1204,3.088,3.0808,3.0406,0.0,2.8518,2.8262,2.8147,0.0,0.0,0.0,0.0,2.7024,2.6999,2.6374,2.5912,2.5896,2.5172,2.4506,2.4019,2.3737,2.3315,2.2646,2.2602,2.2546,2.2436,2.2439,2.2474,2.2511,0.0,0.0,0.0,0.0,0.0,0.0,0.0,0.0,0.0,0.0,0.0,0.0,0.0,0.0,0.0,0.0,0.0,0.0,0.0,0.0,0.0,0.0,0.0,0.0,0.0,0.0,0.0,0.0,0.0,3.8263,3.8241,0.0,0.0,0.0,0.0,3.8109,3.8112,3.8449,3.9208,3.918,3.9485,4.026,4.0287,4.0281,4.0281,4.0146,4.0076,4.0072,4.0009,3.9559,3.8734,3.8664,3.8147,3.7302,3.7306,3.727,3.7201,3.7102,3.7036,3.6973,3.6897,3.6807,3.6615,3.5776,3.5417,3.5182,3.4297,3.3932,3.3881,3.381,3.3738,3.3678,3.3678,3.3678,0.0,0.0,3.3678,3.3678,3.3678,3.357,3.3295,3.2518,3.2244,3.1884,3.0988,3.0808,3.0722,0.0,2.9666,2.904,2.9033,0.0,2.7503,2.7496,2.7269,2.707,2.7007,2.6908,2.6791,2.6657,2.5973,2.5533,2.5499,2.4838,2.4141,2.3478,2.3435,2.3157,2.2511,2.2562,2.2585,2.2585,2.2659,0.0,0.0,0.0,0.0,0.0,0.0,0.0,0.0,0.0,0.0,0.0,0.0,0.0,0.0,0.0,0.0,0.0,0.0,0.0,0.0,0.0,0.0,0.0,0.0,0.0,0.0,0.0,0.0,3.981,3.989,0.0,4.131,4.1388,4.1341,4.1327,4.1285,4.1381,4.1676,4.1626,4.1694,4.1937,4.191,4.1887,4.1872,4.1798,4.1738,4.1738,4.1627,4.1415,4.1108,4.1001,4.0489,3.9679,3.9634,3.9316,3.8809,3.8719,3.8033,3.7028,3.6962,3.6895,3.6795,3.6434,3.6285,3.6215,3.5841,3.5658,3.5584,3.5487,3.5425,3.5404,3.5404,3.5404,3.5293,3.4736,3.4564,3.4447,3.3874,3.3664,3.3518,3.3184,3.3038,3.2842,3.2384,3.2275,3.2214,3.2032,3.0833,2.9865,2.9829,2.8956,2.8269,2.8269,2.7597,2.7078,2.7007,2.6942,2.6851,2.6708,2.6454,2.6132,2.5699,2.5418,2.4998,2.4381,2.4347,2.4247,2.4056,2.4067,2.4114,2.4209,2.4237,2.4285,0.0,0.0,0.0,0.0,0.0,0.0,0.0,0.0,0.0,0.0,0.0,0.0,0.0,0.0,0.0,0.0,0.0,0.0,0.0,0.0,0.0,0.0,0.0,0.0,0.0,0.0,4.0391,4.1477,4.1544,4.1947,4.3034,4.308,4.307,4.3034,4.2966,4.2917,4.2903,4.2852,4.2795,4.2741,4.2691,4.2664,4.2626,4.2572,4.2528,4.2505,4.2383,4.2336,4.2336,4.2221,4.1876,4.1368,4.1274,4.0935,4.0428,4.0326,3.9456,3.8153,3.7816,3.7641,3.7558,3.7239,3.7082,3.7023,3.6663,3.6489,3.6412,3.6339,3.631,3.631,3.631,3.631,3.6174,3.5598,3.5452,3.5302,3.4664,3.4465,3.4313,3.3997,3.3843,3.3685,3.3204,3.3101,3.3024,3.2779,3.1627,3.0671,3.0584,2.9745,2.907,2.907,2.82,2.7514,2.7458,2.7161,2.6916,2.6808,2.6792,2.6613,2.6178,2.6135,2.5868,2.525,2.5206,2.5116,2.495,2.4962,2.5017,2.5097,2.5139,2.5328,2.5638,0.0,0.0,0.0,0.0,0.0,0.0,0.0,0.0,0.0,0.0,0.0,0.0,0.0,0.0,0.0,0.0,0.0,0.0,0.0,0.0,0.0,0.0,0.0,4.1105,4.227,4.3285,4.3282,4.3223,4.3176,4.3154,4.315,4.3116,4.3047,4.2991,4.2924,4.286,4.2843,4.2824,4.274,4.2759,4.2707,4.2646,4.2557,4.2479,4.2414,4.2322,4.2266,4.2266,4.219,4.2165,4.2114,4.1983,4.193,4.1885,4.1822,4.1304,4.0451,3.9569,3.9215,3.9097,3.8248,3.7895,3.7706,3.6798,3.6422,3.6376,3.6376,3.6376,3.6376,3.6376,3.6376,3.6376,3.634,3.6347,3.6307,3.6146,3.6054,3.5796,3.4934,3.4688,3.4354,3.3384,3.3147,3.3036,3.269,3.2039,3.1494,3.1342,3.0498,2.9837,2.9837,2.9036,0.0,2.8337,2.7634,2.7105,2.7033,2.7008,2.6991,2.6999,2.6999,2.6732,2.608,2.6037,2.5758,2.5109,2.5134,2.5166,2.5184,2.5307,2.5754,2.6541,0.0,0.0,0.0,0.0,0.0,0.0,0.0,0.0,0.0,0.0,0.0,0.0,0.0,0.0,0.0,0.0,0.0,0.0,0.0,0.0,0.0,0.0,4.3731,4.2684,4.2905,4.3597,4.4809,4.4885,4.5293,4.6435,4.6513,4.6456,4.6383,4.6322,4.626,4.6171,4.6191,4.6131,4.6013,4.6013,4.5981,4.591,4.5318,4.5003,4.4964,4.4263,4.3915,4.3861,4.3806,4.3399,4.2756,4.2714,4.2364,4.1822,4.1756,4.1583,4.1282,4.047,3.9728,3.9085,3.8797,3.8617,3.8483,3.8225,3.8103,3.8046,3.8046,3.8046,3.8046,3.8046,3.8046,3.7918,3.732,3.718,3.6997,3.6233,3.6016,3.5927,3.5574,3.5418,3.5251,3.4904,3.4347,3.3814,3.3523,3.2844,3.2213,3.1985,3.1201,3.0585,3.0525,2.9773,0.0,2.9111,2.8432,2.7927,2.781,2.7324,2.7024,2.7062,2.707,2.7042,2.6957,2.6948,2.6876,2.6755,2.6768,2.6819,2.6904,2.6997,2.7145,0.0,0.0,0.0,0.0,0.0,0.0,0.0,0.0,0.0,0.0,0.0,0.0,0.0,0.0,0.0,0.0,0.0,0.0,0.0,0.0,0.0,0.0,4.4867,4.5329,4.5195,4.4842,4.509,4.6407,4.6473,4.6785,4.7734,4.7726,4.7656,4.7621,4.7535,4.746,4.7416,4.7383,4.7331,4.725,4.7269,4.7202,4.7116,4.6652,4.6379,4.6297,4.5739,4.5276,4.4922,4.4885,4.4385,4.3531,4.352,4.3244,4.2789,4.2709,4.2467,0.0,0.0,0.0,0.0,0.0,3.9881,3.9749,3.9387,3.9249,3.9148,3.881,3.8699,3.8699,3.8699,3.8699,3.8597,3.8127,3.7958,3.7776,3.7153,3.6973,3.6856,3.6413,3.62,3.5994,3.5588,3.5041,3.4561,3.4348,3.3624,0.0,3.2668,3.1943,3.1359,3.128,3.0534,2.9989,2.9954,2.9291,2.8655,2.8262,2.785,2.748,2.721,2.7176,0.0,0.0,0.0,2.7337,2.7429,2.746,0.0,0.0,0.0,2.7708,2.7708,0.0,0.0,0.0,2.7708,2.7877,0.0,0.0,0.0,0.0,0.0,0.0,0.0,0.0,0.0,0.0,0.0,0.0,0.0,0.0,0.0,0.0,4.6393,4.7094,4.7892,4.746,4.7298,4.7936,4.7888,4.7851,4.7941,4.7839,4.7758,4.7745,4.7641,4.756,4.754,0.0,0.0,0.0,0.0,4.7377,4.7245,4.7162,4.702,4.6855,4.6743,4.6313,4.5615,4.5615,4.5185,4.4412,4.4345,4.4269,4.4161,4.4039,4.3554,4.283,4.1947,4.1542,4.1436,4.1277,4.1196,4.108,4.0299,0.0,0.0,3.9195,3.8975,3.8938,3.8865,3.8828,3.881,3.871,3.8583,3.8486,3.8417,3.8336,3.8101,3.7311,3.7023,3.6698,3.5913,3.552,3.5277,3.5146,3.4412,3.3696,3.3398,3.2648,3.2055,3.1921,3.1277,3.0826,3.0826,3.0127,2.9386,2.873,0.0,0.0,2.7479,2.7359,2.7307,2.7307,2.7305,2.7392,2.7503,2.7579,2.7637,2.7708,2.7708,2.7708,2.7708,2.7789,2.7841,2.7841,2.7841,2.821,0.0,0.0,0.0,0.0,0.0,0.0,0.0,0.0,0.0,0.0,0.0,0.0,0.0,0.0,0.0,4.732,4.7488,4.777,4.8525,4.9005,4.9144,4.8744,4.8597,4.8764,4.9415,4.9404,4.9322,4.9285,4.9256,4.9166,4.9006,4.8991,4.8922,4.8816,4.8808,4.88,4.8768,4.8124,4.7783,4.7732,0.0,0.0,4.6387,4.6387,4.5919,4.5119,4.5085,4.4666,4.3963,4.3929,4.3807,4.3465,4.2074,4.142,4.1243,4.1212,4.1174,4.1109,4.092,4.0865,4.0846,4.07,4.0636,4.0516,3.9863,3.9669,0.0,3.875,3.8517,3.847,3.8354,3.8315,3.8229,3.788,3.7742,3.7602,3.7335,3.6658,3.6043,3.5917,3.5108,3.4379,3.4208,3.3013,3.2037,3.1847,3.1697,3.1585,3.1585,3.0929,3.0412,3.0274,2.9144,2.8334,2.8196,2.7644,2.7307,2.7307,2.7398,2.7496,2.7579,2.7652,2.7686,2.7708,2.7708,2.7708,2.7708,2.8351,2.8667,2.8667,2.8667,2.8754,0.0,0.0,0.0,0.0,0.0,0.0,0.0,0.0,0.0,0.0,0.0,4.5201,4.5999,0.0,4.7485,4.8237,4.8248,4.8555,4.9743,5.0184,5.0284,4.9997,5.0239,5.0617,5.0998,5.0926,5.0836,5.0798,5.0712,5.0606,5.0498,5.0498,5.0297,4.9822,4.9803,4.9592,4.915,4.8758,4.852,4.8441,4.8013,4.756,4.7155,4.7124,4.6618,4.5778,4.5348,4.4872,4.4424,4.4009,4.3794,4.3619,4.2848,4.2484,4.2402,4.2369,4.232,4.2249,4.1837,4.169,4.1635,4.1232,4.1095,4.1022,4.0608,4.0506,4.0317,3.9412,3.91,3.8925,3.8431,3.8223,3.8121,3.8018,3.7898,3.7766,3.7676,3.7201,3.6759,3.663,3.5825,3.51,3.4973,3.3959,3.2971,3.2422,3.2041,3.18,3.18,3.1481,3.1102,3.074,3.0015,2.9386,2.898,2.8265,2.7686,2.7324,2.7429,2.7519,2.7549,2.7659,2.7708,2.7708,2.8105,2.8298,2.8298,2.9105,2.9468,2.9411,2.9814,3.0031,0.0,0.0,0.0,0.0,0.0,0.0,0.0,0.0,4.3805,4.4669,4.5432,4.6186,4.695,4.757,4.8232,4.9087,4.9129,4.9544,5.0978,5.1262,5.1345,5.1364,5.1831,5.214,5.2124,5.1944,5.1836,5.1836,5.1684,5.1589,5.1572,5.1591,5.1284,5.0622,5.0585,5.0169,4.9292,4.9265,4.9129,4.8838,4.8838,4.8504,4.7873,4.7814,4.7335,4.6456,4.5401,4.4952,4.4897,4.4068,4.3686,4.3573,4.3573,4.3573,4.3565,4.3513,4.3506,4.3414,4.2772,4.2525,4.2433,4.1782,4.158,4.1544,4.1379,4.1325,4.1127,4.0239,3.9919,3.9617,3.8743,3.8365,3.8191,3.8029,3.7837,3.7667,3.7577,3.7392,3.7239,3.7098,3.6439,3.5851,3.5725,3.4966,3.4053,3.3051,3.2386,3.1955,3.1817,3.18,3.1576,3.0981,3.0791,3.0368,2.9575,2.8954,2.8376,2.7789,2.7847,2.7915,2.7956,2.8044,2.8112,2.8112,2.8736,2.9069,2.9076,2.9875,3.0202,3.0109,3.0913,3.1235,4.174,4.2512,4.3136,4.3166,4.3152,4.3331,0.0,0.0,4.5456,4.6273,4.7035,4.7744,4.843,4.8542,4.8995,5.0511,5.069,5.0911,5.1686,5.2406,5.2809,5.2702,5.224,5.1904,5.1859,5.1721,5.1632,5.1632,5.1615,5.1564,5.1504,5.1504,5.1432,5.1285,5.1285,5.085,4.9916,4.9897,4.9463,4.8632,4.8632,4.8595,4.8494,4.8485,4.806,4.7201,4.5546,4.4812,4.4757,4.3897,4.3513,4.3515,4.3515,4.3515,4.3515,4.3496,4.3506,4.3488,4.3396,4.3378,4.3341,4.3267,4.3231,4.3102,4.2378,4.2117,4.1877,4.0943,4.0629,4.0379,3.9503,3.9172,3.8877,3.8096,3.7757,3.7577,3.7457,3.7261,3.7098,3.7019,3.6786,3.6552,3.6405,3.5669,3.4596,3.3128,3.2835,3.2541,3.1886,3.18,3.1775,3.1679,3.1085,3.0368,2.9575,2.9411,2.9377,2.9349,2.9357,2.9424,2.9541,2.9566,2.9574,2.9574,2.9644,2.9696,2.9696,3.0454,3.0811,3.0811,3.1612,3.1612,4.2626,4.3392,4.3986,0.0,4.4198,4.4666,4.5547,4.5884,4.6256,4.7114,4.7835,4.8402,4.8644,4.902,4.9634,0.0,5.0809,5.1174,5.2315,5.2776,5.3125,5.3496,5.3297,5.3126,5.3135,5.3056,5.3002,5.3002,5.292,5.2856,5.2772,5.2791,5.2521,5.1935,5.1925,5.1499,5.0648,5.0139,4.9695,4.9279,4.8818,4.8596,4.8596,4.8569,4.8062,4.7187,4.6443,4.5616,4.4716,4.4359,4.392,4.3506,4.3506,4.3506,4.3506,4.3506,4.3506,4.3506,4.3506,4.3506,4.3506,4.3506,4.3506,4.3424,4.3052,4.2917,4.2691,4.1712,4.1423,4.1188,4.0221,3.9878,3.9571,3.8681,3.8337,3.8036,3.7461,3.7184,3.7009,3.6891,3.6718,3.6572,3.6513,3.6132,3.5452,3.4306,3.3763,3.323,3.249,3.2387,3.2234,3.1852,3.1524,3.1024,3.0248,3.0196,3.0015,2.9558,2.9583,2.9625,2.9685,2.9751,2.9802,2.9802,3.0211,3.0437,3.0437,3.122,3.1559,3.1497,3.1836,3.1774,4.345,0.0,0.0,4.4675,4.5183,4.5848,4.6459,4.6825,4.7206,4.7793,4.8492,4.8976,4.8835,4.949,5.0256,5.085,5.1147,5.1753,5.3018,5.3206,5.3394,5.3879,5.3935,5.3935,5.3982,5.3944,5.3916,5.3916,5.3784,5.3697,5.3646,5.3646,5.3339,5.266,5.2631,5.2234,5.1374,5.0755,5.0201,4.973,4.9159,4.8753,4.8523,4.8467,4.8069,4.7424,4.7204,4.6434,4.5342,4.4883,4.4351,4.3818,4.3598,4.3506,4.3506,4.3506,4.3506,4.3506,4.3506,4.3506,4.3506,4.3506,4.3506,4.3489,4.3411,4.3367,4.3195,4.2441,4.2196,4.1923,4.0989,4.0624,4.0278,3.9386,3.9028,3.8631,3.7763,3.7422,3.7174,3.6851,3.6626,3.6492,3.6444,3.635,3.6065,3.5431,3.4809,3.4093,3.3164,3.2902,3.2521,3.1822,3.1791,3.1585,3.105,3.0998,3.0748,3.0179,3.0188,3.0214,3.0214,3.0292,3.0352,3.0352,3.089,3.1141,3.1141,3.1741,3.1974,3.1875,3.2074,3.2141,0.0,0.0,4.5376,4.5376,4.586,4.6363,4.6326,4.7503,4.8599,4.8491,4.9164,4.9686,4.9431,5.0091,5.0871,5.1464,5.2279,5.3112,5.386,5.3972,5.3935,5.3822,5.3745,5.3714,0.0,5.3714,5.3714,5.3714,5.3588,5.3509,5.3509,5.3509,5.3491,5.3472,5.3472,5.3016,5.2086,5.2049,5.1208,4.961,4.9574,4.9133,4.8306,4.8306,4.8288,4.8223,4.7452,4.7076,4.6911,4.5342,4.4681,4.459,4.3791,4.3506,4.3506,4.3506,4.3506,4.3506,4.3506,4.3506,4.3506,4.3506,4.3506,4.3489,4.3411,4.3314,4.3196,4.3087,4.291,4.2586,4.1764,4.1424,4.1025,4.0094,3.9712,3.9328,3.8468,3.8111,3.7727,3.6872,3.6592,3.6454,3.6322,3.6261,3.6187,3.617,3.592,3.5238,3.3854,3.3161,3.2492,3.1693,3.1718,3.1783,3.1775,3.1775,3.1765,3.174,3.174,3.174,3.174,3.174,3.174,3.174,3.1757,3.1775,3.1775,3.1792,3.1818,3.1826,3.2551,3.2869,4.5056,0.0,4.5387,4.5868,4.6092,4.6474,4.7523,4.8145,4.8637,4.9131,4.9385,4.9491,4.9352,4.9974,5.0734,5.1427,5.222,5.3013,5.3758,5.3822,5.3783,5.3744,5.3637,0.0,0.0,0.0,0.0,5.3568,5.3529,5.3451,5.3369,5.3369,5.3357,5.3293,5.3293,5.3154,5.2836,5.2296,5.1752,5.1179,5.0106,4.9142,4.8296,4.8296,4.8296,4.8278,4.8003,4.7599,4.7058,4.6526,4.5672,4.4663,4.4406,4.3975,4.3506,4.3506,4.3506,4.3506,4.3506,4.3506,4.3506,4.3506,4.3463,4.3411,4.3295,4.3196,4.3114,4.3003,4.2899,4.272,4.2354,4.2115,4.1739,4.0851,4.0435,4.0027,3.9156,3.8804,3.8397,3.746,3.7216,3.6971,3.6347,3.6208,3.615,3.596,3.5447,3.4893,3.4421,3.3758,3.3059,3.2332,3.237,3.2248,3.1706,3.1746,3.18,3.18,3.18,3.18,3.18,3.18,3.18,3.18,3.18,3.18,3.18,3.18,3.2021,3.2481,3.2712,3.3051,4.5291,4.5393,4.5602,4.6061,4.6537,4.715,4.8157,4.8557,4.8859,4.9363,4.9387,4.9316,4.9246,5.0077,5.0942,5.1385,5.2391,5.3247,5.3709,5.3734,5.3675,5.3636,5.3509,5.342,0.0,0.0,0.0,5.342,5.3408,5.3347,5.3274,5.3264,5.3233,5.3196,5.3196,5.3196,5.3196,5.2692,5.227,5.1987,5.0372,4.9307,4.8746,4.8434,4.8296,4.8296,4.8296,4.8003,4.7498,4.7223,4.6333,4.5104,4.481,4.4213,4.3506,4.3506,4.3506,4.3506,4.3506,4.3506,4.3497,4.3471,4.3437,4.3376,4.3215,4.3132,4.3077,4.2909,4.2794,4.2706,4.2598,4.2389,4.208,4.1493,4.1153,4.0732,3.9859,3.948,3.9062,3.8194,3.77,3.7253,3.6696,3.63,3.5982,3.5762,3.5326,3.4936,3.4654,3.4262,3.373,3.3035,3.306,3.2811,3.2021,3.2074,3.202,3.1744,3.1764,3.18,3.18,3.18,3.18,3.18,3.1746,3.1865,3.2167,3.2103,3.245,3.3137,3.3421,3.3757,4.5085,4.5538,4.6012,4.6024,4.7181,4.8276,4.8262,4.8785,4.9276,4.9222,4.9179,4.9173,0.0,0.0,5.1414,5.1388,5.2707,5.3728,5.3705,5.3694,5.3636,0.0,0.0,0.0,0.0,0.0,0.0,5.3297,0.0,5.3196,5.3196,5.3196,5.3196,5.3196,5.3196,5.3196,5.3196,5.3196,5.2803,5.1987,5.0408,4.9647,4.9574,4.8691,4.8296,4.8296,4.8296,4.8296,4.8241,4.748,4.6682,4.5883,4.5085,4.4268,4.3561,4.3524,4.3506,4.3506,4.3497,4.3479,4.3489,4.3411,4.3394,4.335,4.316,4.3086,4.3049,4.2851,4.2706,4.257,4.2514,4.2295,4.2079,4.1998,4.1776,4.1367,4.0528,4.0142,3.9731,3.8986,3.8031,3.7326,3.7281,3.6489,3.5785,3.5622,3.56,3.5357,3.4652,3.4677,3.4459,3.3716,3.3707,3.3444,3.271,3.2767,3.2517,3.177,3.1829,3.1894,3.1894,3.1894,3.1894,3.1894,3.1765,3.2078,3.2843,3.2718,3.3027,3.3768,3.4523,3.4899,4.4827,4.5316,4.5974,4.647,4.7387,4.829,4.8819,4.9086,4.9214,4.9133,4.9135,4.9091,0.0,0.0,0.0,5.1305,5.2159,0.0,5.3611,5.3528,0.0,5.3359,0.0,5.322,5.322,5.3217,0.0,0.0,5.3217,5.3196,5.3196,5.3196,5.3196,5.3196,5.3196,5.3196,5.3196,5.3196,5.2803,5.1987,5.0967,5.0188,4.9574,4.8691,4.8296,4.8296,4.8296,4.8296,4.8278,4.8076,4.7526,4.6718,4.592,4.5094,4.4323,4.3726,4.3506,4.3497,4.3446,4.342,4.342,4.3412,4.3305,4.3169,4.3114,4.3002,4.2878,4.2803,4.2675,4.2496,4.2377,4.2181,4.1998,4.1873,4.1637,4.1356,4.1051,4.0885,4.0522,3.9646,3.8654,3.7763,3.7109,3.6752,3.6333,3.5695,3.56,3.5532,3.534,3.5346,3.5097,3.4346,3.4381,3.4138,3.341,3.3417,3.3375,3.3187,3.32,3.321,3.321,3.321,3.321,3.321,3.318,3.3272,3.346,3.344,3.3762,3.4461,3.4649,3.498,4.4592,4.5111,4.5831,4.6573,4.7361,4.8181,4.8969,4.9115,4.9054,4.9013,4.9015,0.0,0.0,0.0,0.0,0.0,0.0,0.0,5.3408,5.339,5.3297,0.0,5.3209,0.0,5.3196,5.3196,5.3196,0.0,5.3196,5.3196,5.3196,5.3196,5.3196,5.3196,5.3196,5.3196,5.3196,5.3196,5.2976,5.2509,5.1353,5.0563,5.0096,4.8857,4.8296,4.8296,0.0,4.8296,4.8296,4.8296,4.7838,4.7058,4.6608,4.5727,4.4645,4.4195,4.3792,4.3455,4.3402,4.335,4.3269,4.3269,4.3196,4.3077,4.3002,4.2898,4.2774,4.2694,4.2546,4.2377,4.2246,4.2048,4.1891,4.1736,4.1498,4.1283,4.1186,4.1088,4.0723,3.9754,3.9075,3.8358,3.7481,3.705,3.6648,3.6197,3.5831,3.56,3.56,3.56,3.543,3.5019,3.5057,3.4813,3.406,3.4087,3.3997,3.3683,3.369,3.3693,3.3693,3.3693,3.3693,3.3693,3.367,3.3809,3.414,3.4081,3.4419,3.509,3.509,3.5283,4.4368,4.4886,4.5621,4.6296,4.7127,4.7944,4.8688,4.887,4.8874,4.8883,0.0,4.8891,4.89,4.9457,5.0192,5.0917,0.0,5.244,5.3044,5.3224,5.3274,5.3206,5.3196,5.3196,5.3196,5.3196,5.3196,5.3196,5.3196,5.3196,5.3196,5.3196,5.3196,5.3196,5.3196,5.3196,5.3196,5.3196,5.3196,5.3177,5.1683,5.0894,5.0747,4.9187,4.8416,4.8296,4.8296,4.8296,4.8296,4.8296,4.7893,4.7241,4.7131,4.6186,4.4847,4.4737,4.4151,4.3403,4.3385,4.326,4.3095,4.3095,4.3086,4.3049,4.2869,4.2783,4.2743,4.2554,4.2394,4.2246,4.2132,4.1931,4.1736,4.1604,4.1374,4.1169,4.1117,4.0988,4.0598,3.9701,3.9438,3.9067,3.82,3.7528,3.7032,3.6829,3.6214,3.5729,3.5616,3.56,3.56,3.56,3.56,3.534,3.4692,3.4751,3.455,3.3909,3.3925,3.3959,3.3959,3.3959,3.3959,3.3959,3.39,3.4187,3.4811,3.4701,3.4979,3.56,3.56,3.56,4.4097,4.4607,4.5187,4.5261,4.6402,4.7503,4.7651,4.8197,0.0,0.0,0.0,4.8821,4.8891,4.9011,4.9357,5.0083,0.0,0.0,0.0,0.0,5.3217,0.0,0.0,0.0,0.0,0.0,0.0,0.0,0.0,5.3196,5.3196,5.3196,5.3196,5.3196,5.3196,5.3196,5.3196,5.3196,5.3196,5.3196,5.2234,5.1444,5.0765,4.9802,4.8976,4.8296,4.8296,0.0,4.8296,4.8296,4.8223,4.8021,4.7351,4.6516,4.5608,4.4938,4.4151,4.3376,4.3269,4.3178,4.3095,4.3095,4.303,4.291,4.2832,4.2725,4.2627,4.2534,4.2325,4.2121,4.2041,4.183,4.1604,4.1471,4.1273,4.1117,4.1093,4.0917,4.0626,4.0221,4.0143,3.9826,3.8962,3.87,3.8205,3.6981,3.6682,3.6349,3.5695,3.56,3.56,3.56,3.56,3.5549,3.5414,3.5436,3.5396,3.5261,3.5266,3.5277,3.5277,3.5277,3.5277,3.5277,3.5255,3.5312,3.5447,3.5425,3.5464,3.56,3.56,3.56,4.3921,4.4153,4.4519,4.4902,4.5577,4.626,4.6685,0.0,0.0,0.0,4.8518,4.8822,4.8891,0.0,0.0,0.0,0.0,0.0,0.0,0.0,0.0,0.0,0.0,0.0,0.0,0.0,0.0,0.0,0.0,5.3196,5.3196,5.3196,5.3196,5.3196,5.3196,5.3196,5.3196,5.3196,5.3196,5.3196,5.238,5.1573,5.0765,4.9968,4.9123,4.8296,4.8296,4.8296,4.8296,4.8296,4.8296,4.826,4.7874,4.7232,4.6415,4.5581,4.4711,4.3844,4.3333,4.3068,4.2984,4.2964,4.2899,4.2833,4.2735,4.2627,4.2498,4.2336,4.217,4.2023,4.1916,4.1699,4.1471,4.1329,4.114,4.0988,4.0917,4.0733,4.0534,4.0342,4.0238,4.0057,3.9639,3.9254,3.8763,3.8053,3.7291,3.6648,3.6265,3.5864,3.56,3.56,3.56,3.56,3.56,3.56,3.56,3.56,3.56,3.56,3.56,3.56,3.56,3.56,3.56,3.56,3.56,3.56,3.56,3.56,3.56,3.56,4.3794,4.3754,4.3894,4.4521,4.4816,4.5111,4.5738,4.6512,0.0,0.0,4.8074,4.8618,4.8854,0.0,0.0,0.0,0.0,0.0,0.0,0.0,0.0,0.0,0.0,0.0,0.0,0.0,0.0,0.0,0.0,5.3196,5.3196,5.3196,5.3196,5.3196,5.3196,5.3196,5.3196,5.3196,5.3196,5.3196,5.2564,5.1756,5.0784,5.0151,4.9288,4.8296,4.8296,4.8296,4.8296,4.8296,4.8296,4.8296,4.8296,4.7819,4.6993,4.6121,4.5205,4.4272,4.3396,4.3002,4.2862,4.2822,4.2793,4.2764,4.2627,4.2518,4.2405,4.2173,4.2034,4.1923,4.1797,4.156,4.1318,4.1163,4.0983,4.0829,4.0685,4.0546,4.0424,4.0275,4.0175,4.0096,4.0096,3.9609,3.9186,3.9017,3.8019,3.7207,3.7054,3.6349,3.5864,3.5864,3.5712,3.56,3.56,3.56,3.56,3.56,3.56,3.56,3.56,3.56,3.56,3.56,3.56,3.56,3.56,3.56,3.56,3.56,3.56,3.56,4.3659,4.3565,4.355,4.3624,4.4184,4.4745,4.4818,0.0,0.0,4.7257,4.7567,4.7951,4.8743,0.0,0.0,0.0,0.0,5.0222,0.0,0.0,0.0,0.0,0.0,0.0,0.0,0.0,0.0,0.0,5.3196,5.3196,5.3196,5.3196,5.3196,5.3196,5.3196,5.3196,5.3196,5.3196,5.3196,5.3196,5.3122,5.2278,5.0802,5.0729,4.9829,4.8296,4.8296,4.8296,0.0,4.8296,4.8296,4.8296,4.8296,4.7819,4.6993,4.6121,4.5205,4.4272,4.3396,4.2965,4.2803,4.2793,4.2793,4.2754,4.2574,4.2425,4.2287,4.2135,4.1956,4.1797,4.1648,4.1419,4.1163,4.0977,4.0829,4.0685,4.0546,4.0412,4.0275,4.0133,4.0113,4.0096,4.0096,4.0045,3.9762,3.9102,3.8882,3.8548,3.7889,3.7156,3.6694,3.6694,3.6045,3.56,3.56,3.56,3.56,3.56,3.56,3.56,3.56,3.56,3.56,3.56,3.56,3.56,3.56,3.56,3.56,3.56,3.56,3.56,4.3592,4.3513,4.3506,4.3506,4.3745,4.3992,4.4027,0.0,4.5455,4.5924,4.6862,4.7729,4.8111,4.8574,0.0,0.0,0.0,0.0,0.0,0.0,0.0,0.0,0.0,0.0,0.0,0.0,0.0,0.0,5.3196,5.3196,5.3196,5.3196,5.3196,5.3196,5.3196,5.3196,5.3196,5.3196,5.3196,5.3196,5.3196,5.2352,5.0802,5.0802,4.9903,4.8296,4.8296,4.8296,0.0,4.8296,4.8296,4.8296,4.8296,4.8084,4.765,4.6739,4.584,4.4925,4.401,4.3306,4.2783,4.2715,4.2589,4.248,4.2397,4.2295,4.2135,4.1973,4.1801,4.1648,4.1515,4.1312,4.1088,4.084,4.0733,4.0636,4.0424,4.0337,4.0251,4.0138,4.0096,4.0096,4.0096,4.0096,4.0011,3.9711,3.9288,3.8886,3.8599,3.7922,3.7449,3.7449,3.6355,3.56,3.56,3.56,3.56,3.56,3.56,3.56,3.56,3.56,3.56,3.56,3.56,3.56,3.56,3.56,3.56,3.5616,3.6096,3.6315,4.3583,4.3522,4.3522,4.3522,4.3566,4.36,0.0,0.0,4.4647,4.5012,4.6071,4.7068,4.7592,4.8166,4.863,0.0,0.0,4.9073,4.9751,0.0,0.0,0.0,0.0,0.0,0.0,0.0,0.0,5.3196,5.3196,5.3196,5.3196,5.3196,5.3196,5.3196,5.3196,5.3196,5.3196,5.3196,5.3196,5.3196,5.3196,5.2352,5.0802,5.0802,4.9903,4.8296,4.8296,4.8296,0.0,4.8296,4.8296,4.8296,4.8296,4.8257,4.8086,4.7146,4.6246,4.5366,4.4395,4.3482,4.2725,4.2607,4.2419,4.2246,4.2222,4.2111,4.1966,4.1791,4.1593,4.1443,4.1341,4.1146,4.0941,4.0733,4.0636,4.0527,4.0342,4.028,4.0213,4.0125,4.0096,4.0096,4.0096,4.0096,4.0096,4.0096,3.966,3.9339,3.9339,3.8684,3.8227,3.8227,3.7065,3.6186,3.5966,3.5949,3.5847,3.5616,3.56,3.56,3.56,3.56,3.56,3.56,3.56,3.5729,3.5949,3.5949,3.6067,3.6287,3.6857,3.7241,4.3642,4.3599,4.3599,4.3599,4.3711,4.3796,0.0,0.0,4.413,4.4953,4.523,4.5815,4.7404,4.7701,4.798,4.8779,4.8909,0.0,4.9889,0.0,0.0,0.0,0.0,0.0,0.0,0.0,5.3196,5.3196,5.3196,0.0,5.3196,5.3196,5.3196,5.3196,5.3196,5.3196,5.3196,5.3196,5.3196,5.3196,5.3196,5.2352,5.0802,5.0802,4.9903,4.8296,4.8296,4.8296,0.0,4.8296,4.8296,4.8296,4.8296,4.8257,4.8086,4.7146,4.6246,4.5356,4.4343,4.3392,4.2589,4.2516,4.2315,4.21,4.2019,4.1912,4.1769,4.1637,4.1364,4.1093,4.1093,4.0905,4.0697,4.0697,4.0502,4.0288,4.0305,4.0201,4.0096,4.0096,4.0096,4.0096,4.0096,4.0096,4.0096,4.0096,4.0096,4.0096,4.0096,3.944,3.9,3.9,3.8328,3.7584,3.6846,3.6795,3.6445,3.565,3.56,3.56,3.56,3.56,3.56,3.56,3.56,3.5983,3.6795,3.6795,3.7156,3.7877,3.7877,3.8278,4.3613,4.3736,4.3736,4.3736,4.3779,4.3812,4.3859,0.0,4.3987,4.4284,4.4862,4.5621,4.668,4.733,4.7961,4.8779,4.8909,0.0,0.0,0.0,0.0,0.0,0.0,0.0,0.0,0.0,5.3196,5.3196,5.3196,5.3196,5.3196,5.3196,5.3196,5.3196,5.3196,5.3196,5.3196,5.3196,5.3196,5.3196,5.3196,5.2352,5.0802,5.0802,4.9903,4.8296,4.8296,4.8296,4.8296,4.8296,4.8296,4.8296,4.8296,4.82,4.8034,4.7738,4.6662,4.5302,4.4955,4.385,4.257,4.2399,4.2212,4.2019,4.1895,4.1776,4.1604,4.133,4.1186,4.107,4.1,4.0829,4.0685,4.0583,4.0424,4.0263,4.0175,4.0138,4.0096,4.0096,4.0096,4.0096,4.0096,4.0096,4.0096,4.0096,4.0096,4.0096,4.0096,3.991,3.9745,3.9745,3.9542,3.8899,3.7652,3.755,3.7449,3.7183,3.7166,3.7166,3.7166,3.7166,3.7166,3.7166,3.7166,3.7302,3.755,3.755,3.7922,3.865,3.865,3.9051,0.0,4.3605,4.3843,4.3875,4.3907,0.0,0.0,0.0,4.4055,4.409,4.4533,4.5259,4.6368,4.695,4.7659,4.8793,4.8926,0.0,0.0,0.0,0.0,0.0,0.0,0.0,0.0,5.3196,5.3196,5.3196,5.3196,5.3196,5.3196,5.3196,5.3196,5.3196,5.3196,5.3196,5.3196,5.3196,5.3196,5.3196,5.2884,5.2068,5.0802,5.049,4.9591,4.8296,4.8296,4.8296,0.0,4.8296,4.8296,4.8296,4.8276,4.8141,4.7992,4.797,4.7019,4.5687,4.5263,4.4216,4.2965,4.2407,4.2048,4.1808,4.1637,4.152,4.1397,4.1175,4.1058,4.1,4.0864,4.0733,4.0583,4.0448,4.0313,4.0201,4.0125,4.0096,4.0096,4.0096,4.0096,4.0096,4.0096,4.0096,4.0096,4.0096,4.0096,4.0096,4.0096,4.0096,4.0096,4.0096,4.0096,3.9728,3.8802,3.8464,3.821,3.791,3.7893,3.7893,3.7893,3.7893,3.7893,3.7893,3.7893,3.8041,3.8328,3.8582,3.8966,3.9423,3.9423,3.966,0.0,4.3225,4.3863,4.3986,4.4101,4.4222,4.4296,0.0,0.0,4.43,4.43,4.4797,4.6388,4.6642,4.7154,4.8841,4.9006,0.0,0.0,0.0,0.0,0.0,0.0,0.0,5.3196,5.3196,5.3196,5.3196,5.3196,5.3196,5.3196,5.3196,5.3196,5.3196,5.3196,5.3196,5.3196,5.3196,5.3177,5.3104,5.2362,5.1555,5.0692,4.9931,4.9123,0.0,4.8296,4.8296,4.8296,4.8296,4.8296,4.8287,4.8226,4.811,4.7982,4.7914,4.7293,4.6336,4.5343,4.4479,4.3599,4.2464,4.1849,4.1549,4.1277,4.1197,4.1192,4.1117,4.1,4.0864,4.0733,4.0583,4.0461,4.0342,4.0201,4.0096,4.0096,4.0096,4.0096,4.0096,4.0096,4.0096,4.0096,4.0096,4.0096,4.0096,4.0096,4.0096,4.0096,4.0096,4.0096,4.0096,4.0096,4.0096,4.0096,3.9474,3.8797,3.8108,3.8063,3.8063,3.8063,3.8063,3.8063,3.8063,3.8063,3.8396,3.9085,3.9762,4.0096,4.0096,4.0096,4.0096,4.1918,0.0,4.3375,4.4058,4.4255,4.427,0.0,0.0,0.0,0.0,0.0,4.4797,4.6388,4.669,4.7218,4.8849,4.9076,4.9023,4.8917,0.0,0.0,0.0,0.0,5.3196,5.3196,5.3196,5.3196,5.3196,5.3196,5.3196,5.3196,5.3196,5.3196,5.3196,5.3196,5.3196,5.3196,5.3196,5.2884,5.227,5.2097,5.1253,4.9876,4.9692,4.9123,4.8296,4.8296,4.8296,4.8296,4.8296,4.8296,4.8287,4.8226,4.811,4.7982,4.7914,4.7241,4.6222,4.5322,4.4399,4.3468,4.2384,4.1765,4.1426,4.1243,4.1157,4.1099,4.0982,4.0852,4.0733,4.0709,4.0527,4.0337,4.0317,4.0201,4.0096,4.0096,4.0096,4.0096,4.0096,4.0096,4.0096,4.0096,4.0096,4.0096,4.0096,4.0096,4.0096,4.0096,4.0096,4.0096,4.0096,4.0096,4.0096,4.0096,3.9943,3.9762,3.9592,3.9576,3.9576,3.9576,3.9576,3.9576,3.9576,3.9576,3.9673,3.9829,4.0028,4.0096,4.0096,4.0096,4.0096,4.1312,4.2305,4.3308,4.4212,4.4444,4.4458,4.4475,0.0,0.0,0.0,0.0,0.0,4.654,4.679,4.7278,4.8878,4.9127,0.0,0.0,0.0,0.0,0.0,0.0,5.2803,0.0,5.3196,5.3196,5.3196,5.3196,5.3196,5.3196,5.3196,5.3196,5.3196,5.2829,5.2839,5.3196,5.2829,5.2435,5.1987,5.1253,5.0445,4.9592,4.9197,4.8746,4.8296,4.8296,4.8296,4.8296,4.8296,4.8296,4.8287,4.8159,4.8052,4.7982,4.7863,4.7396,4.6678,4.5438,4.4051,4.2771,4.2182,4.1688,4.1295,4.122,4.11,4.0982,4.0923,4.0805,4.0685,4.0619,4.0448,4.0275,4.0213,4.0163,4.0096,4.0096,4.0096,4.0096,4.0096,4.0096,4.0096,4.0096,4.0096,4.0096,4.0096,4.0096,4.0096,4.0096,4.0096,4.0096,4.0096,4.0096,4.0096,4.0096,4.0096,4.0096,4.0096,4.0096,4.0096,4.0096,4.0096,4.0096,4.0096,4.0096,4.0096,4.0096,4.0096,4.0096,4.0096,4.0096,4.0096,4.081,4.204,4.3305,4.421,4.4518,4.4632,4.4692,0.0,0.0,0.0,0.0,0.0,0.0,0.0,0.0,0.0,0.0,0.0,0.0,0.0,0.0,0.0,5.1539,0.0,5.2957,5.3122,5.3196,5.3196,5.3196,5.3159,5.3012,5.3012,5.2957,5.2847,5.2179,5.2142,5.2829,5.216,5.1767,5.162,5.0253,4.9537,4.938,4.8636,4.8296,4.8296,0.0,0.0,4.8296,4.8296,4.8296,4.8277,4.8082,4.8002,4.7972,4.7772,4.7604,4.7223,4.5529,4.3646,4.1994,4.1994,4.1626,4.1209,4.1209,4.1065,4.0912,4.0912,4.0793,4.0648,4.0534,4.0387,4.0238,4.0138,4.0096,4.0096,4.0096,4.0096,4.0096,4.0096,4.0096,4.0096,4.0096,4.0096,4.0096,4.0096,4.0096,4.0096,4.0096,4.0096,4.0096,4.0096,4.0096,4.0096,4.0096,4.0096,4.0096,4.0096,4.0096,4.0096,4.0096,4.0096,4.0096,4.0096,4.0096,4.0096,4.0096,4.0096,4.0096,4.0096,4.0096,4.0096,4.1022,4.1876,4.2703,4.3485,4.4176,4.4692,0.0,0.0,0.0,0.0,0.0,0.0,0.0,0.0,0.0,0.0,0.0,0.0,0.0,0.0,0.0,4.9972,0.0,5.206,5.2171,5.2803,5.3196,5.3196,5.3196,5.2902,5.2226,5.2179,5.1867,5.1177,5.1059,5.1041,5.1169,5.1059,5.0637,4.9978,4.9721,4.9215,4.8508,4.8351,4.8296,4.8296,0.0,4.8296,4.8296,4.8296,4.8296,4.8277,4.8082,4.8002,4.7972,4.7772,4.7543,4.7075,4.528,4.3479,4.1994,4.1994,4.1626,4.1209,4.1209,4.1065,4.0912,4.0912,4.0716,4.0534,4.051,4.0325,4.0138,4.0096,4.0096,4.0096,4.0096,4.0096,4.0096,4.0096,4.0096,4.0096,4.0096,4.0096,4.0096,4.0096,4.0096,4.0096,4.0096,4.0096,4.0096,4.0096,4.0096,4.0096,4.0096,4.0096,4.0096,4.0096,4.0096,4.0096,4.0096,4.0096,4.0096,4.0096,4.0096,4.0096,4.0096,4.0096,4.0096,4.0096,4.0096,4.0096,4.0532,4.1562,4.2592,4.2934,4.3924,0.0,0.0,0.0,0.0,0.0,0.0,0.0,0.0,0.0,0.0,0.0,0.0,4.8909,4.8909,4.9038,4.9298,0.0,0.0,5.0867,5.1316,5.1683,5.1893,5.1893,5.1893,5.1728,5.1371,5.1353,5.1187,5.082,5.039,5.0151,5.0151,4.9682,4.9499,4.9592,4.9123,4.8691,4.8296,4.8296,4.8296,4.8296,0.0,4.8296,4.8296,4.8296,4.8296,4.8277,4.8082,4.8002,4.7962,4.761,4.6884,4.5921,4.4939,4.3465,4.1994,4.1994,4.1626,4.1209,4.1209,4.1065,4.0912,4.0912,4.0704,4.051,4.051,4.0296,4.0096,4.0096,4.0096,4.0096,4.0096,4.0096,4.0096,4.0096,4.0096,4.0096,4.0096,4.0096,4.0096,4.0096,4.0096,4.0096,4.0096,4.0096,4.0096,4.0096,4.0096,4.0096,4.0096,4.0096,4.0096,4.0096,4.0096,4.0096,4.0096,4.0096,4.0096,4.0096,4.0096,4.0096,4.0096,4.0096,4.0096,4.0096,4.0096,4.0096,4.0355,4.1478,4.2653,4.2843,0.0,0.0,0.0,0.0,0.0,0.0,0.0,0.0,0.0,0.0,0.0,0.0,4.9029,4.8909,4.8909,4.8732,4.8827,4.9446,4.957,4.9839,5.0453,5.0692,5.0802,5.0802,5.0802,5.0729,5.0527,5.0508,5.0435,5.0215,4.9619,4.9307,4.9307,4.8636,4.8636,4.9288,4.8618,4.8296,4.8296,4.8296,4.8296,4.8296,4.8296,4.8296,4.8296,4.8296,4.8296,4.8277,4.8082,4.7962,4.788,4.7493,4.6352,4.4969,4.4721,4.3469,4.1994,4.1994,4.1666,4.1243,4.1209,4.1076,4.0935,4.0912,4.0728,4.0546,4.051,4.0296,4.0096,4.0096,4.0096,4.0096,4.0096,4.0096,4.0096,4.0096,4.0096,4.0096,4.0096,4.0096,4.0096,4.0096,4.0096,4.0096,4.0096,4.0096,4.0096,4.0096,4.0096,4.0096,4.0096,4.0096,4.0096,4.0096,4.0096,4.0096,4.0096,4.0096,4.0096,4.0096,4.0096,4.0096,4.0096,4.0096,4.0096,4.0096,4.0096,4.0096,4.1101,4.1947,4.2786,4.3605,0.0,0.0,0.0,0.0,0.0,0.0,0.0,0.0,0.0,0.0,0.0,4.9195,4.9029,4.8909,4.8909,0.0,4.8615,4.8688,4.923,4.9629,4.9684,5.0362,5.0802,5.0802,5.0802,5.0472,4.9739,4.9692,4.9325,4.8508,4.8406,4.8388,4.8388,4.8333,4.8333,4.8388,4.8333,4.8296,4.8296,4.8296,4.8296,4.8296,4.8296,4.8296,4.8296,4.8296,4.8296,4.8277,4.8082,4.7888,4.7699,4.7543,4.6434,4.4979,4.4835,4.3561,4.1994,4.1994,4.171,4.1352,4.1243,4.1152,4.1058,4.0935,4.0805,4.066,4.0534,4.0296,4.0096,4.0096,4.0096,4.0096,4.0096,4.0096,4.0096,4.0096,4.0096,4.0096,4.0096,4.0096,4.0096,4.0096,4.0096,4.0096,4.0096,4.0096,4.0096,4.0096,4.0096,4.0096,4.0096,4.0096,4.0096,4.0096,4.0096,4.0096,4.0096,4.0096,4.0096,4.0096,4.0096,4.0096,4.0096,4.0096,4.0096,4.0096,4.0096,4.0096,4.1237,4.2081,4.2924,4.3739,0.0,0.0,0.0,0.0,0.0,0.0,0.0,0.0,0.0,0.0,0.0,4.9205,4.9029,4.8883,4.883,4.8696,4.8569,4.8541,4.8686,4.8783,4.8783,4.9077,4.926,4.926,4.926,4.9114,4.8802,4.8783,4.8636,4.8315,4.8296,4.8296,4.8296,4.8296,4.8296,4.8296,4.8296,4.8296,4.8296,4.8296,4.8296,4.8296,4.8296,4.8296,4.8296,4.8296,4.8296,4.8277,4.8082,4.7878,4.7678,4.7543,4.6445,4.4979,4.4846,4.3572,4.1994,4.1994,4.1739,4.1363,4.1243,4.1152,4.107,4.0935,4.0805,4.0673,4.0534,4.0362,4.0201,4.0125,4.0096,4.0096,4.0096,4.0096,4.0096,4.0096,4.0096,4.0096,4.0096,4.0096,4.0096,4.0096,4.0096,4.0096,4.0096,4.0096,4.0096,4.0096,4.0096,4.0096,4.0096,4.0096,4.0096,4.0096,4.0096,4.0096,4.0096,4.0096,4.0096,4.0096,4.0096,4.0096,4.0096,4.0096,4.0096,4.0096,4.0096,4.0096,4.1609,4.2354,4.3061,0.0,0.0,0.0,0.0,0.0,0.0,0.0,0.0,0.0,0.0,0.0,0.0,0.0,4.903,4.8874,4.8804,4.8678,4.8578,4.8522,4.8382,4.8296,4.8296,4.8296,4.8296,4.8296,4.8296,4.8296,4.8296,4.8296,4.8296,4.8296,4.8296,4.8296,4.8296,4.8296,4.8296,4.8296,4.8296,4.8296,4.8296,4.8296,4.8296,4.8296,4.8296,4.8296,4.8296,4.8296,4.8287,4.8257,4.8072,4.7899,4.7749,4.7615,4.6477,4.499,4.4888,4.3625,4.203,4.2016,4.1793,4.1487,4.1329,4.1209,4.1111,4.0994,4.0864,4.0733,4.0595,4.0424,4.0292,4.0188,4.0121,4.0096,4.0096,4.0096,4.0096,4.0096,4.0096,4.0096,4.0096,4.0096,4.0096,4.0096,4.0096,4.0096,4.0096,4.0096,4.0096,4.0096,4.0096,4.0096,4.0096,4.0096,4.0096,4.0096,4.0096,4.0096,4.0096,4.0096,4.0096,4.0096,4.0096,4.0096,4.0096,4.0096,4.0096,4.0096,4.0096,4.0096,4.2335,4.2794,4.3195,0.0,0.0,0.0,0.0,0.0,0.0,0.0,0.0,0.0,0.0,0.0,0.0,4.911,4.8979,4.8874,4.8804,4.8678,4.8569,4.8522,4.8382,4.8296,4.8296,4.8296,4.8296,4.8296,4.8296,4.8296,4.8296,4.8296,4.8296,4.8296,4.8296,4.8296,4.8296,4.8296,4.8296,4.8296,4.8296,4.8296,4.8296,4.8296,4.8296,4.8296,4.8296,4.8296,4.8296,4.8296,4.8257,4.8187,4.806,4.7968,4.7881,4.7749,4.6568,4.5,4.5,4.3734,4.2082,4.2019,4.1912,4.1747,4.1482,4.1306,4.1186,4.1128,4.0994,4.0876,4.0733,4.0502,4.0288,4.0305,4.0201,4.0096,4.0096,4.0096,4.0096,4.0096,4.0096,4.0096,4.0096,4.0096,4.0096,4.0096,4.0096,4.0096,4.0096,4.0096,4.0096,4.0096,4.0096,4.0096,4.0096,4.0096,4.0096,4.0096,4.0096,4.0096,4.0096,4.0096,4.0096,4.0096,4.0096,4.0096,4.0096,4.0096,4.0096,4.0096,4.0096,4.0096,4.2335,4.2794,0.0,0.0,0.0,0.0,0.0,0.0,0.0,0.0,0.0,0.0,0.0,0.0,0.0,4.911,4.8979,4.8838,4.8678,4.8633,4.8532,4.8382,4.8316,4.8296,4.8296,4.8296,4.8296,4.8296,4.8296,4.8296,4.8296,4.8296,4.8296,4.8296,4.8296,4.8296,4.8296,4.8296,4.8296,4.8296,4.8296,4.8296,4.8296,4.8296,4.8296,4.8296,4.8296,4.8296,4.8296,4.8296,4.8257,4.8187,4.806,4.7968,4.7881,4.7749,4.661,4.5132,4.5032,4.3786,4.2225,4.2111,4.1941,4.1769,4.1593,4.1459,4.1318,4.1203,4.1123,4.1035,4.0988,4.0769,4.0563,4.0461,4.0337,4.0238,4.0238,4.0175,4.0096,4.0096,4.0096,4.0096,4.0096,4.0096,4.0096,4.0096,4.0096,4.0096,4.0096,4.0096,4.0096,4.0096,4.0096,4.0096,4.0096,4.0096,4.0096,4.0096,4.0096,4.0096,4.0096,4.0096,4.0096,4.0096,4.0096,4.0096,4.0096,4.0096,4.0096,4.0096,4.0096,4.0096,4.2335,4.2779,0.0,0.0,0.0,0.0,0.0,0.0,0.0,0.0,0.0,0.0,0.0,0.0,0.0,4.904,4.8936,4.8804,4.8614,4.8578,4.8513,4.8325,4.8296,4.8296,4.8296,4.8296,4.8296,4.8296,4.8296,4.8296,4.8296,4.8296,4.8296,4.8296,4.7984,4.7819,4.7819,4.7507,4.7352,4.7352,4.7352,4.7352,4.737,4.8003,4.8296,4.8296,4.8296,4.8296,4.8296,4.8296,4.8286,4.8218,4.812,4.801,4.7935,4.7822,4.6672,4.5183,4.5112,4.3886,4.2356,4.2225,4.2051,4.1888,4.1725,4.1582,4.1459,4.1318,4.1203,4.1134,4.1105,4.0976,4.0805,4.0619,4.0473,4.0375,4.0375,4.0275,4.0175,4.0175,4.0138,4.0096,4.0096,4.0096,4.0096,4.0096,4.0096,4.0096,4.0096,4.0096,4.0096,4.0096,4.0096,4.0096,4.0096,4.0096,4.0096,4.0096,4.0096,4.0096,4.0096,4.0096,4.0096,4.0096,4.0096,4.0096,4.0096,4.0096,4.0096,4.0096,4.0096,4.0096,4.2345,0.0,0.0,0.0,0.0,0.0,0.0,0.0,0.0,0.0,0.0,0.0,0.0,0.0,4.9068,4.8917,4.883,4.8741,4.8614,4.8541,4.8447,4.8316,4.8296,4.8296,4.8296,4.8296,4.8296,4.8296,4.8223,4.8186,4.8186,4.8113,4.8076,4.8076,4.7379,4.6984,4.6984,4.6269,4.5902,4.5902,4.5902,4.5902,4.5957,4.7407,4.8076,4.8076,4.8076,4.8076,4.8076,4.8076,4.8076,4.8076,4.8016,4.7891,4.7763,4.7696,4.6589,4.5095,4.5085,4.3962,4.2503,4.2366,4.2236,4.2072,4.1888,4.1736,4.1604,4.1471,4.134,4.1226,4.1152,4.1117,4.1064,4.0879,4.0671,4.0522,4.0522,4.0412,4.03,4.0305,4.0201,4.0108,4.0096,4.0096,4.0096,4.0096,4.0096,4.0096,4.0096,4.0096,4.0096,4.0096,4.0096,4.0096,4.0096,4.0096,4.0096,4.0096,4.0096,4.0096,4.0096,4.0096,4.0096,4.0096,4.0096,4.0096,4.0096,4.0096,4.0096,4.0096,4.0096,4.0096,4.2276,4.2718,0.0,0.0,0.0,0.0,0.0,0.0,0.0,0.0,0.0,0.0,0.0,4.915,4.9068,4.8917,4.883,4.8741,4.8614,4.8541,4.8447,4.8316,4.8296,4.8296,4.8296,4.8296,4.8296,4.8296,4.7709,4.7351,4.7351,4.6755,4.6416,4.6416,4.625,4.6159,4.6159,4.5993,4.5902,4.5902,4.5902,4.5902,4.5902,4.625,4.6416,4.6416,4.6416,4.6416,4.6416,4.6416,4.6416,4.6406,4.635,4.6228,4.6104,4.6033,4.5298,4.4328,4.4285,4.3594,4.2704,4.2516,4.2366,4.2236,4.2072,4.198,4.188,4.1747,4.1626,4.1493,4.1369,4.1267,4.1302,4.1773,4.1259,4.066,4.066,4.0546,4.0424,4.033,4.0292,4.0226,4.0125,4.0096,4.0096,4.0096,4.0096,4.0096,4.0096,4.0096,4.0096,4.0096,4.0096,4.0096,4.0096,4.0096,4.0096,4.0096,4.0096,4.0096,4.0096,4.0096,4.0096,4.0096,4.0096,4.0096,4.0096,4.0096,4.0096,4.0096,4.0096,4.0096,0.0,0.0,0.0,0.0,0.0,0.0,0.0,0.0,0.0,0.0,0.0,0.0,4.8308,4.8795,4.8962,4.8875,4.8768,4.8669,4.8569,4.8467,4.8382,4.8306,4.7966,4.7728,4.7728,4.7379,4.715,4.715,4.6755,4.6535,4.6535,4.6122,4.5902,4.5902,4.5535,4.5333,4.5333,4.4929,4.4754,4.4754,4.4754,4.4754,4.4791,4.5553,4.5902,4.5902,4.5902,4.5902,4.5902,4.5902,4.5902,4.5902,4.5865,4.5791,4.5688,4.5583,4.4977,4.4181,4.4075,4.35,4.2774,4.2675,4.2536,4.2366,4.2236,4.2121,4.2023,4.1916,4.1797,4.1747,4.2,4.1956,4.2044,4.2698,4.2137,4.1502,4.1832,4.179,4.1679,4.1604,4.1461,4.1329,4.1248,4.09,4.0641,4.0641,4.0333,4.0096,4.0096,4.0096,4.0096,4.0096,4.0096,4.0096,4.0096,4.0096,4.0096,4.0096,4.0096,4.0096,4.0096,4.0096,4.0096,4.0096,4.0096,4.0096,4.0096,4.0096,4.0096,4.0096,4.0096,4.0096,0.0,0.0,4.3205,4.448,0.0,0.0,0.0,0.0,0.0,0.0,0.0,4.6703,4.7452,4.8059,4.843,4.8378,4.8253,4.8154,4.8099,4.7977,4.7884,4.7884,4.7305,4.6902,4.6902,4.6287,4.5902,4.5902,4.5773,4.5681,4.5681,4.5553,4.5489,4.5489,4.4837,4.448,4.448,4.3828,4.3506,4.3506,4.3506,4.3506,4.3543,4.4883,4.5489,4.5489,4.5489,4.5489,4.5489,4.5489,4.5489,4.5489,4.5489,4.5443,4.537,4.5259,4.4745,4.4086,4.3982,4.3441,4.2822,4.2803,4.2685,4.2534,4.2389,4.2267,4.2153,4.2072,4.2055,4.2176,4.2713,4.2863,4.3039,4.3708,4.325,4.2764,4.3148,4.3131,4.303,4.3005,4.2723,4.2494,4.2494,4.1884,4.139,4.139,4.0878,4.0485,4.0485,4.0485,4.0485,4.0485,4.0367,4.0286,4.0286,4.0168,4.0096,4.0096,4.0096,4.0096,4.0096,4.0096,4.0096,4.0096,4.0096,4.0096,4.0096,4.0096,4.0096,4.0096,4.0096,4.0096,0.0,0.0,4.4531,0.0,0.0,0.0,0.0,0.0,0.0,0.0,4.5016,4.582,4.6605,4.669,4.6647,4.6638,4.6519,4.6441,4.6423,4.6314,4.6214,4.6214,4.6122,4.6067,4.6067,4.5957,4.5902,4.5902,4.5259,4.4865,4.4865,4.4195,4.3818,4.3818,4.3726,4.3653,4.3653,4.3543,4.3506,4.3506,4.3506,4.3506,4.3506,4.3726,4.3818,4.3818,4.3818,4.3818,4.3818,4.3818,4.3818,4.3818,4.3818,4.3784,4.3714,4.3696,4.3506,4.3259,4.3249,4.3075,4.2881,4.2822,4.2774,4.2725,4.2599,4.2508,4.2415,4.2295,4.2672,4.3087,4.3074,4.3482,4.4073,4.4735,4.4725,4.434,4.3546,4.3264,4.3144,4.303,4.2723,4.2494,4.2494,4.2308,4.2151,4.2151,4.208,4.2012,4.2012,4.2012,4.2012,4.2012,4.1424,4.1052,4.1052,4.0472,4.0096,4.0096,4.0096,4.0096,4.0096,4.0096,4.0096,4.0096,4.0096,4.0096,4.0096,4.0096,4.0096,4.0096,4.0096,4.0096,4.1975,4.3244,4.4222,0.0,4.4612,0.0,0.0,0.0,4.4263,4.4207,4.4414,4.4859,4.5714,4.611,4.6288,4.6255,4.6152,4.6074,4.6002,4.5929,4.5902,4.5902,4.5498,4.5232,4.5232,4.4819,4.4571,4.4571,4.4232,4.403,4.403,4.369,4.3506,4.3506,4.3506,4.3506,4.3506,4.3506,4.3506,4.3506,4.3506,4.3506,4.3506,4.3506,4.3506,4.3506,4.3506,4.3506,4.3506,4.3506,4.3506,4.3506,4.3506,4.348,4.3455,4.3402,4.335,4.326,4.3187,4.3087,4.3012,4.2983,4.2898,4.2783,4.2735,4.2637,4.2618,4.2946,4.3218,4.3576,4.4316,4.4689,4.5034,4.5681,4.5724,4.549,4.4973,4.4691,4.4475,4.4268,4.4119,4.397,4.3813,4.3392,4.3054,4.2943,4.2557,4.23,4.23,4.23,4.23,4.23,4.1999,4.1813,4.1813,4.1521,4.1335,4.1335,4.0946,4.0726,4.0726,4.032,4.0096,4.0096,4.0096,4.0096,4.0096,4.0096,4.0096,4.0096,4.0096,4.0096,0.0,0.0,4.3712,4.4419,4.453,4.4466,0.0,0.0,4.4184,0.0,4.4055,4.4178,4.4809,4.5329,4.5645,4.556,4.5483,4.5404,4.5296,4.5287,4.5287,4.5287,4.4764,4.4397,4.4397,4.3846,4.3506,4.3506,4.3506,4.3506,4.3506,4.3506,4.3506,4.3506,4.3506,4.3506,4.3506,4.3506,4.3506,4.3506,4.3506,4.3506,4.3506,4.3506,4.3506,4.3506,4.3506,4.3506,4.3506,4.3506,4.3506,4.3506,4.3506,4.3506,4.3479,4.3446,4.3402,4.3394,4.3296,4.3205,4.3114,4.3104,4.3002,4.286,4.2841,4.2899,4.3061,4.3555,4.3947,4.4414,4.5443,4.5782,4.5987,4.6401,4.6369,4.6191,4.5947,4.5731,4.5524,4.53,4.5234,4.5127,4.4899,4.4375,4.3919,4.3721,4.3234,4.2875,4.2875,4.2875,4.2875,4.2875,4.2692,4.2574,4.2574,4.2418,4.23,4.23,4.1779,4.1474,4.1474,4.0946,4.0671,4.0671,4.0671,4.0468,4.0096,4.0096,4.0096,4.0096,4.0096,4.0096,0.0,4.2844,0.0,4.4392,0.0,0.0,0.0,0.0,0.0,4.4047,4.3942,4.3923,4.3952,4.3962,4.3882,4.3771,4.3676,4.3625,4.3635,4.3616,4.3616,4.3616,4.3579,4.3561,4.3561,4.3524,4.3506,4.3506,4.3506,4.3506,4.3506,4.3506,4.3506,4.3506,4.3506,4.3506,4.3506,4.3506,4.3506,4.3506,4.3506,4.3506,4.3506,4.3506,4.3506,4.3506,4.3506,4.3506,4.3506,4.3506,4.3506,4.3506,4.3506,4.3506,4.3506,4.3497,4.3445,4.3403,4.3394,4.3305,4.3187,4.3123,4.3086,4.3067,4.2929,4.3376,4.3938,4.3964,4.4983,4.6047,4.5989,4.6452,4.6898,4.6801,4.6578,4.6253,4.5731,4.5619,4.5567,4.5423,4.5287,4.5167,4.5005,4.4852,4.4697,4.4561,4.4499,4.4479,4.4479,4.4479,4.4479,4.4479,4.3809,4.3338,4.3338,4.2709,4.23,4.23,4.2266,4.2249,4.2249,4.2215,4.2198,4.2198,4.2198,4.1504,4.0096,4.0096,4.0096,4.0096,4.0096,4.0096,0.0,0.0,0.0,4.3513,4.4015,4.4322,4.4259,4.4158,4.4062,4.4013,4.3953,4.3899,4.3843,4.3753,4.3659,4.3607,4.3539,4.3506,4.3506,4.3506,4.3506,4.3506,4.3506,4.3506,4.3506,4.3506,4.3506,4.3506,4.3506,4.3506,4.3506,4.3506,4.3506,4.3506,4.3506,4.3506,4.3506,4.3506,4.3506,4.3506,4.3506,4.3506,4.3506,4.3506,4.3506,4.3506,4.3506,4.3506,4.3506,4.3506,4.3506,4.3506,4.3506,4.3506,4.3506,4.3506,4.3489,4.3454,4.3454,4.3393,4.3323,4.3305,4.3233,4.316,4.3058,4.3574,4.427,4.461,4.5459,4.6362,4.6748,4.6979,4.7077,4.6853,4.6602,4.632,4.6055,4.5782,4.5594,4.5541,4.5423,4.5287,4.5154,4.5019,4.4886,4.4751,4.4654,4.4615,4.4615,4.4615,4.4615,4.4615,4.4347,4.4164,4.4164,4.3924,4.3772,4.3772,4.3284,4.3,4.3,4.254,4.23,4.23,4.23,4.1809,4.0798,4.0798,4.0557,4.0096,4.0096,4.0096,4.0775,0.0,0.0,0.0,0.0,4.4278,4.4214,0.0,4.3997,4.3966,4.3913,4.3843,4.3753,4.3642,4.3565,4.3565,4.3522,4.3506,4.3506,4.3506,4.3506,4.3506,4.3506,4.3506,4.3506,4.3506,4.3506,4.3506,4.3506,0.0,4.3506,4.3506,4.3506,4.3506,4.3506,4.3506,4.3506,4.3506,4.3506,4.3506,4.3506,4.3506,4.3506,4.3506,4.3506,4.3506,4.3506,4.3506,4.3506,4.3506,4.3506,4.3506,4.3506,4.3506,4.3506,4.3506,4.3506,4.3506,4.3506,4.3463,4.3429,4.3412,4.334,4.3296,4.3479,4.4078,4.483,4.5462,4.6176,4.6865,4.7252,4.7283,4.7133,4.6911,4.6696,4.6495,4.6308,4.598,4.5705,4.5619,4.5528,4.5423,4.5217,4.51,4.4951,4.4817,4.4682,4.4615,4.4615,4.4615,4.4615,4.4615,4.4615,4.4615,4.4615,4.4615,4.4615,4.4615,4.4096,4.3809,4.3809,4.3332,4.3078,4.3078,4.3078,4.2692,4.1935,4.1694,4.1318,4.0828,4.0828,4.0828,0.0,0.0,0.0,0.0,0.0,0.0,4.4207,0.0,4.3981,4.3913,4.3843,4.3753,4.3615,4.3558,4.3506,4.3506,4.3506,4.3506,4.3506,4.3506,4.3506,4.3506,4.3506,4.3506,4.3506,4.3506,4.3506,4.3506,4.3506,4.3506,4.3506,4.3506,4.3506,4.3506,4.3506,4.3506,4.3506,4.3506,4.3506,4.3506,4.3506,4.3506,4.3506,4.3506,4.3506,4.3506,4.3506,4.3506,4.3506,4.3506,4.3506,4.3506,4.3506,4.3506,4.3506,4.3506,4.3506,4.3506,4.3506,4.3506,4.3497,4.342,4.3403,4.3532,4.4209,4.4926,4.5686,4.6476,4.7184,4.7668,4.7533,4.7356,4.7167,4.7043,4.6899,4.6719,4.6453,4.6191,4.5935,4.5654,4.5589,4.5528,4.5243,4.51,4.4951,4.4831,4.4696,4.4598,4.4615,4.4615,4.4615,4.4615,4.4615,4.4615,4.4615,4.4615,4.4615,4.4615,4.4615,4.4615,4.4615,4.4615,4.4615,4.4615,4.4615,4.4228,4.344,4.2692,4.2317,4.23,4.23,4.23,3.9984,0.0,0.0,0.0,0.0,0.0,4.3944,4.402,4.3981,4.3913,4.3843,4.3753,4.3615,4.3558,4.3506,4.3506,4.3506,4.3506,4.3506,4.3506,4.3506,4.3506,4.3506,4.3506,4.3506,4.3506,4.3506,0.0,4.3506,4.3506,4.3506,4.3506,4.3506,4.3506,4.3506,4.3506,4.3506,4.3506,4.3506,4.3506,4.3506,4.3506,4.3506,4.3506,4.3506,4.3506,4.3506,4.3506,4.3506,4.3506,4.3506,4.3506,4.3506,4.3506,4.3506,4.3506,4.3506,4.3506,4.3506,4.3506,4.3506,4.348,4.3471,4.3619,4.4336,4.5095,4.5861,4.6577,4.7296,4.778,4.7554,4.7457,4.7359,4.719,4.7043,4.6865,4.6602,4.641,4.6179,4.5821,4.5671,4.5554,4.5367,4.5234,4.51,4.4951,4.4831,4.4709,4.4598,4.4615,4.4615,4.4615,4.4615,4.4615,4.4615,4.4615,4.4615,4.4615,4.4615,4.4615,4.4615,4.4615,4.4615,4.4615,4.4615,4.4482,4.4279,4.3487,4.2828,4.23,4.23,4.23,0.0,0.0,0.0,0.0,0.0,0.0,4.343,4.3763,4.3981,0.0,4.3843,4.3753,4.3615,4.3558,4.3506,4.3506,4.3506,4.3506,4.3506,4.3506,4.3506,4.3506,4.3506,4.3506,4.3506,4.3506,4.3506,4.3506,4.3506,4.3506,4.3506,4.3506,4.3506,4.3506,4.3506,4.3506,4.3506,4.3506,4.3506,4.3506,4.3506,4.3506,4.3506,4.3506,4.3506,4.3506,4.3506,4.3506,4.3506,4.3506,4.3506,4.3506,4.3506,4.3506,4.3506,4.3506,4.3506,4.3506,4.3506,4.3506,4.3506,4.3506,4.3506,4.3718,4.4802,4.5462,4.6019,4.7085,4.7632,4.785,4.7636,4.7533,4.7457,4.7283,4.7167,4.702,4.6731,4.6578,4.6374,4.596,4.5787,4.5645,4.5515,4.5327,4.515,4.5019,4.4886,4.4751,4.4629,4.4615,4.4615,4.4615,4.4615,4.4615,4.4615,4.4615,4.4615,4.4615,4.4615,4.4615,4.4615,4.4615,4.4615,4.4615,4.4615,4.4615,4.4615,4.4144,4.3673,4.3264,4.3264,4.3264,0.0,0.0,0.0,0.0,0.0,0.0,4.2798,4.3355,4.387,4.3894,4.3851,4.3761,4.3634,4.3539,4.3515,4.3506,4.3506,4.3506,4.3506,4.3506,4.3506,4.3506,4.3506,4.3506,4.3506,4.3506,4.3506,4.3506,4.3506,4.3506,4.3506,4.3506,4.3506,4.3506,4.3506,4.3506,4.3506,4.3506,4.3506,4.3506,4.3506,4.3506,4.3506,4.3506,4.3506,4.3506,4.3506,4.3506,4.3506,4.3506,4.3506,4.3506,4.3506,4.3506,4.3506,4.3506,4.3506,4.3506,4.3506,4.3506,4.3506,4.3506,4.3561,4.3928,4.5443,4.592,4.6267,4.7776,4.8057,4.7881,4.7759,4.7625,4.749,4.7363,4.7272,4.7145,4.6876,4.6714,4.6495,4.6122,4.5909,4.5761,4.5615,4.5393,4.518,4.5019,4.4899,4.4762,4.4612,4.4615,4.4615,4.4615,4.4615,4.4615,4.4615,4.4615,4.4615,4.4615,4.4615,4.4615,4.4615,4.4615,4.4615,4.4615,4.4615,4.4615,4.4615,4.4615,4.4615,4.4615,4.4615,4.4615,0.0,0.0,0.0,0.0,0.0,0.0,4.2538,4.2927,4.3202,4.3783,4.3899,4.3816,4.3632,4.3582,4.3556,4.3515,4.3506,4.3506,4.3506,4.3506,4.3506,4.3506,4.3506,4.3506,4.3506,4.3506,4.3506,4.3506,4.3506,4.3506,4.3506,4.3506,4.3506,4.3506,4.3506,4.3506,4.3506,4.3506,4.3506,4.3506,4.3506,4.3506,4.3506,4.3506,4.3506,4.3506,4.3506,4.3506,4.3506,4.3506,4.3506,4.3506,4.3506,4.3506,4.3506,4.3506,4.3506,4.3506,4.3506,4.3506,4.3506,4.3506,4.3938,4.4654,4.5608,4.6342,4.7038,4.7932,4.808,4.796,4.7873,4.7759,4.7625,4.75,4.7363,4.722,4.7002,4.6784,4.6554,4.6362,4.603,4.5761,4.5615,4.5476,4.5291,4.5049,4.4978,4.4872,4.4626,4.4615,4.4615,4.4615,4.4615,4.4615,4.4615,4.4615,4.4615,4.4615,4.4615,4.4615,4.4615,4.4615,4.4615,4.4615,4.4615,4.4615,4.4615,4.4615,4.4615,4.4615,4.4615,4.4615,0.0,0.0,0.0,3.9988,0.0,0.0,0.0,4.2244,4.2894,4.3282,4.3643,4.3865,4.3775,4.3657,4.3582,4.3548,4.3513,4.3506,4.3506,4.3506,4.3506,4.3506,4.3506,4.3506,4.3506,4.3506,4.3506,4.3506,4.3506,4.3506,4.3506,4.3506,4.3506,4.3506,4.3506,4.3506,4.3506,4.3506,4.3506,4.3506,4.3506,4.3506,4.3506,4.3506,4.3506,4.3506,4.3506,4.3506,4.3506,4.3506,4.3506,4.3506,4.3506,4.3506,4.3506,4.3506,4.3506,4.3506,4.3506,4.3506,4.3506,4.3506,4.4048,4.4847,4.5663,4.6737,4.7764,4.8107,4.81,4.7972,4.7922,4.7809,4.7675,4.7533,4.7396,4.7265,4.7133,4.6842,4.6578,4.6501,4.6117,4.577,4.5705,4.5541,4.5318,4.5032,4.4991,4.4896,4.4626,4.4615,4.4615,4.4615,4.4615,4.4615,4.4615,4.4615,4.4615,4.4615,4.4615,4.4615,4.4615,4.4615,4.4615,4.4615,4.4615,4.4615,4.4615,4.4615,4.4615,4.4615,4.4615,4.4615,0.0,0.0,0.0,0.0,0.0,4.0419,0.0,0.0,0.0,4.2545,4.3171,0.0,0.0,0.0,0.0,0.0,0.0,0.0,0.0,4.3513,0.0,4.3506,4.3506,4.3506,4.3506,4.3506,4.3506,4.3506,4.3506,4.3506,4.3506,4.3506,4.3506,4.3506,4.3506,4.3506,4.3506,4.3506,4.3506,4.3506,4.3506,4.3506,4.3506,4.3506,4.3506,4.3506,4.3506,4.3506,4.3506,4.3506,4.3506,4.3506,4.3506,4.3506,4.3506,4.3506,4.3506,4.3506,4.3506,4.3506,4.3524,4.369,4.4378,4.5305,4.6122,4.7278,4.8287,4.8228,4.813,4.802,4.7935,4.7822,4.7689,4.7565,4.7407,4.7287,4.7234,4.6899,4.6602,4.6602,4.6167,4.5795,4.5795,4.5581,4.5318,4.5032,4.4991,4.4896,4.4626,4.4615,4.4615,4.4615,4.4615,4.4615,4.4615,4.4615,4.4615,4.4615,4.4615,4.4615,4.4615,4.4615,4.4615,4.4615,4.4615,4.4615,4.4615,4.4615,4.4615,4.4615,4.4615,4.4615,0.0,0.0,0.0,0.0,3.9558,0.0,0.0,0.0,4.0945,4.1605,0.0,0.0,0.0,0.0,0.0,0.0,0.0,0.0,4.3617,4.3582,4.3565,4.3515,4.3506,4.3506,4.3506,4.3506,4.3506,4.3506,4.3506,4.3506,4.3506,4.3506,4.3506,4.3506,4.3506,4.3506,4.3506,4.3506,4.3506,4.3506,4.3506,4.3506,4.3506,4.3506,4.3506,4.3506,4.3506,4.3506,4.3506,4.3506,4.3506,4.3506,4.3506,4.3506,4.3506,4.3506,4.3506,4.3506,4.3506,4.3506,4.3616,4.4333,4.5599,4.6984,4.7783,4.815,4.8296,4.8287,4.8228,4.8148,4.802,4.7927,4.785,4.7717,4.749,4.7309,4.7298,4.6939,4.6602,4.6602,4.6167,4.5795,4.5795,4.5581,4.5318,4.5032,4.4991,4.4896,4.4626,4.4615,4.4615,4.4615,4.4615,4.4615,4.4615,4.4615,4.4615,4.4615,4.4615,4.4615,4.4615,4.4615,4.4615,4.4615,4.4615,4.4615,4.4615,4.4615,4.4615,4.4615,4.4615,4.4615,0.0,0.0,0.0,0.0,0.0,0.0,3.9854,0.0,4.0586,0.0,0.0,0.0,0.0,0.0,0.0,0.0,4.3515,0.0,0.0,0.0,4.3651,0.0,0.0,0.0,4.3506,4.3506,4.3506,4.3506,4.3506,4.3506,4.3506,4.3506,4.3506,4.3506,4.3506,4.3506,4.3506,4.3506,4.3506,4.3506,4.3506,4.3506,4.3506,4.3506,4.3506,4.3506,4.3506,4.3506,4.3506,4.3506,4.3506,4.3506,4.3506,4.3506,4.3506,4.3506,4.3506,4.3506,4.3506,4.3506,4.3708,4.4984,4.6168,4.7241,4.8058,4.8296,4.8296,4.8296,4.8247,4.8168,4.8032,4.7947,4.7861,4.7728,4.75,4.7291,4.7291,4.6933,4.6602,4.6602,4.6228,4.5884,4.5808,4.5581,4.5344,4.5154,4.5046,4.494,4.4751,4.4654,4.4615,4.4615,4.4615,4.4615,4.4615,4.4615,4.4615,4.4615,4.4615,4.4615,4.4615,4.4615,4.4615,4.4615,4.4615,4.4615,4.4615,4.4615,4.4615,4.4615,4.4615,4.4615,3.99,0.0,0.0,0.0,0.0,0.0,0.0,0.0,0.0,0.0,0.0,0.0,0.0,0.0,0.0,0.0,0.0,4.3528,0.0,4.3689,0.0,0.0,0.0,0.0,0.0,4.3506,4.3506,4.3506,4.3506,4.3506,4.3506,4.3506,4.3506,4.3506,4.3506,4.3506,4.3506,4.3506,4.3506,4.3506,4.3506,4.3506,4.3506,4.3506,4.3506,4.3506,4.3506,4.3506,4.3506,4.3506,4.3506,4.3506,4.3506,4.3506,4.3506,4.3506,4.3506,4.3506,4.3506,4.3781,4.4387,4.5773,4.6773,4.7535,4.8113,4.8296,4.8296,4.8296,4.8267,4.8189,4.8032,4.7949,4.7884,4.7749,4.75,4.7291,4.7291,4.6973,4.6637,4.6602,4.6301,4.601,4.5821,4.5619,4.541,4.5234,4.5086,4.4937,4.4817,4.4682,4.4615,4.4615,4.4615,4.4615,4.4615,4.4615,4.4615,4.4615,4.4615,4.4615,4.4615,4.4615,4.4615,4.4615,4.4615,4.4615,4.4615,4.4615,4.4615,4.4615,4.4615,4.4615,0.0,0.0,0.0,3.9712,0.0,0.0,0.0,0.0,3.9507,0.0,0.0,0.0,0.0,0.0,0.0,0.0,0.0,0.0,0.0,0.0,0.0,0.0,0.0,0.0,0.0,4.3506,4.3506,0.0,4.3506,4.3506,4.3506,4.3506,4.3506,4.3506,4.3506,4.3506,4.3506,4.3506,4.3506,4.3506,4.3506,4.3506,4.3506,4.3506,4.3506,4.3506,4.3506,4.3506,4.3506,4.3506,4.3506,4.3506,4.3506,4.3506,4.3506,4.3506,4.3506,4.3506,4.3506,4.4516,4.5957,4.6792,4.7617,4.826,4.8296,4.8296,4.8296,4.8296,4.8296,4.8248,4.8052,4.8002,4.796,4.7741,4.75,4.7291,4.7291,4.703,4.676,4.6625,4.6369,4.61,4.5846,4.5697,4.5498,4.523,4.5086,4.4937,4.4817,4.4682,4.4615,4.4615,4.4615,4.4615,4.4615,4.4615,4.4615,4.4615,4.4615,4.4615,4.4615,4.4615,4.4615,4.4615,4.4615,4.4615,4.4615,4.4615,4.4615,4.4615,4.4615,4.4615,0.0,0.0,3.9916,3.9792,0.0,0.0,0.0,0.0,0.0,0.0,0.0,0.0,0.0,0.0,0.0,0.0,0.0,0.0,0.0,0.0,0.0,0.0,0.0,0.0,0.0,0.0,0.0,0.0,4.3506,0.0,4.3506,4.3506,4.3506,4.3506,4.3506,4.3506,4.3506,4.3506,4.3506,4.3506,4.3506,4.3506,4.3506,4.3506,4.3506,4.3506,4.3506,4.3506,4.3506,4.3506,4.3506,4.3506,4.3506,4.3506,4.3506,4.3506,4.3506,4.3579,4.4103,4.5342,4.6737,4.7003,4.7636,4.8296,4.8296,4.8296,4.8296,4.8296,4.8296,4.8258,4.8052,4.8002,4.7941,4.7741,4.7554,4.7407,4.7313,4.7109,4.6865,4.6637,4.6459,4.6228,4.5859,4.5757,4.5641,4.5367,4.514,4.4978,4.4937,4.4751,4.4615,4.4615,4.4615,4.4615,4.4615,4.4615,4.4615,4.4615,4.4615,4.4615,4.4615,4.4615,4.4615,4.4615,4.4615,4.4615,4.4615,4.4615,4.4615,4.4615,4.4615,4.4615,3.8765,3.9191,0.0,3.9797,3.9781,0.0,3.9716,0.0,3.9571,0.0,0.0,0.0,0.0,0.0,0.0,0.0,0.0,0.0,0.0,4.1564,0.0,0.0,0.0,0.0,0.0,0.0,0.0,4.3496,4.3506,4.3506,0.0,4.3506,4.3506,4.3506,4.3506,4.3506,4.3506,4.3506,4.3506,4.3506,4.3506,4.3506,4.3506,4.3506,4.3506,4.3506,4.3506,4.3506,4.3506,4.3506,4.3506,4.3506,4.3506,4.3506,4.3506,4.3506,4.369,4.403,4.4856,4.5984,4.7149,4.7424,4.7874,4.8296,4.8296,4.8296,4.8296,4.8296,4.8296,4.8258,4.812,4.805,4.7951,4.7811,4.7636,4.745,4.7341,4.7183,4.6968,4.6661,4.653,4.6338,4.5884,4.5795,4.5705,4.5437,4.5167,4.4991,4.4991,4.4779,4.4615,4.4615,4.4615,4.4615,4.4615,4.4615,4.4615,4.4615,4.4615,4.4615,4.4615,4.4615,4.4615,4.4615,4.4615,4.4615,4.4615,4.4615,4.4615,4.4615,4.4615,4.4615]}]]